[[{"header":{"parameterUnit":"m.s-1","parameterCategory":1,"la1":30.6,"la2":28.766,"lo1":-90.7593,"lo2":-88.6598,"dy":0.0162,"dx":0.0183,"nx":116,"ny":114,"refTime":"2023-03-14T06:00:00:Z","depth":0,"parameterNumber":2,"parameterNumberName":"U-component_of_WINDS"},"data":[0.0,0.0,0.0,0.0,0.0,0.0,0.0,0.0,0.0,0.0,0.0,0.0,0.0,0.0,0.0,0.0,0.0,0.0,0.0,0.0,0.0,0.0,0.0,0.0,0.0,0.0,0.0,0.0,0.0,0.0,0.0,0.0,0.0,0.0,0.0,0.0,0.0,0.0,0.0,0.0,0.0,0.0,0.0,0.0,0.0,0.0,0.0,0.0,0.0,0.0,0.0,0.0,0.0,0.0,0.0,0.0,0.0,0.0,0.0,0.0,0.0,0.0,0.0,0.0,0.0,0.0,0.0,0.0,0.0,0.0,0.0,0.0,0.0,0.0,0.0,0.0,0.0,0.0,0.0,0.0,0.0,0.0,0.0,0.0,0.0,0.0,0.0,0.0,0.0,0.0,0.0,0.0,0.0,0.0,0.0,0.0,0.0,0.0,0.0,0.0,0.0,0.0,0.0,0.0,0.0,0.0,0.0,0.0,0.0,0.0,0.0,0.0,0.0,0.0,0.0,0.0,0.0,0.0,0.0,0.0,0.0,0.0,0.0,0.0,0.0,0.0,0.0,0.0,0.0,0.0,0.0,0.0,0.0,0.0,0.0,0.0,0.0,0.0,0.0,0.0,0.0,0.0,0.0,0.0,0.0,0.0,0.0,0.0,0.0,0.0,0.0,0.0,0.0,0.0,0.0,0.0,0.0,0.0,0.0,0.0,0.0,0.0,0.0,0.0,0.0,0.0,0.0,0.0,0.0,0.0,0.0,0.0,0.0,0.0,0.0,0.0,0.0,0.0,0.0,0.0,0.0,0.0,0.0,0.0,0.0,0.0,0.0,0.0,0.0,0.0,0.0,0.0,0.0,0.0,0.0,0.0,0.0,0.0,0.0,0.0,0.0,0.0,0.0,0.0,0.0,0.0,0.0,0.0,0.0,0.0,0.0,0.0,0.0,0.0,0.0,0.0,0.0,0.0,0.0,0.0,0.0,0.0,0.0,0.0,0.0,0.0,0.0,0.0,0.0,0.0,0.0,0.0,0.0,0.0,0.0,0.0,0.0,0.0,0.0,0.0,0.0,0.0,0.0,0.0,0.0,0.0,0.0,0.0,0.0,0.0,0.0,0.0,0.0,0.0,0.0,0.0,0.0,0.0,0.0,0.0,0.0,0.0,0.0,0.0,0.0,0.0,0.0,0.0,0.0,0.0,0.0,0.0,0.0,0.0,0.0,0.0,0.0,0.0,0.0,0.0,0.0,0.0,0.0,0.0,0.0,0.0,0.0,0.0,0.0,0.0,0.0,0.0,0.0,0.0,0.0,0.0,0.0,0.0,0.0,0.0,0.0,0.0,0.0,0.0,0.0,0.0,0.0,0.0,0.0,0.0,0.0,0.0,0.0,0.0,0.0,0.0,0.0,0.0,0.0,0.0,0.0,0.0,0.0,0.0,0.0,0.0,0.0,0.0,0.0,0.0,0.0,0.0,0.0,0.0,0.0,0.0,0.0,0.0,0.0,0.0,0.0,0.0,0.0,0.0,0.0,0.0,0.0,0.0,0.0,0.0,0.0,0.0,0.0,0.0,0.0,0.0,0.0,0.0,0.0,0.0,0.0,0.0,0.0,0.0,0.0,0.0,0.0,0.0,0.0,0.0,0.0,0.0,0.0,0.0,0.0,0.0,0.0,0.0,0.0,0.0,0.0,0.0,0.0,0.0,0.0,0.0,0.0,0.0,0.0,0.0,0.0,0.0,0.0,0.0,0.0,0.0,0.0,0.0,0.0,0.0,0.0,0.0,0.0,0.0,0.0,0.0,0.0,0.0,0.0,0.0,0.0,0.0,0.0,0.0,0.0,0.0,0.0,0.0,0.0,0.0,0.0,0.0,0.0,0.0,0.0,0.0,0.0,0.0,0.0,0.0,0.0,0.0,0.0,0.0,0.0,0.0,0.0,0.0,0.0,0.0,0.0,0.0,0.0,0.0,0.0,0.0,0.0,0.0,0.0,0.0,0.0,0.0,0.0,0.0,0.0,0.0,0.0,0.0,0.0,0.0,0.0,0.0,0.0,0.0,0.0,0.0,0.0,0.0,0.0,0.0,0.0,0.0,0.0,0.0,0.0,0.0,0.0,0.0,0.0,0.0,0.0,0.0,0.0,0.0,0.0,0.0,0.0,0.0,0.0,0.0,0.0,0.0,0.0,0.0,0.0,0.0,0.0,0.0,0.0,0.0,0.0,0.0,0.0,0.0,0.0,0.0,0.0,0.0,0.0,0.0,0.0,0.0,0.0,0.0,0.0,0.0,0.0,0.0,0.0,0.0,0.0,0.0,0.0,0.0,0.0,0.0,0.0,0.0,0.0,0.0,0.0,0.0,0.0,0.0,0.0,0.0,0.0,0.0,0.0,0.0,0.0,0.0,0.0,0.0,0.0,0.0,0.0,0.0,0.0,0.0,0.0,0.0,0.0,0.0,0.0,0.0,0.0,0.0,0.0,0.0,0.0,0.0,0.0,0.0,0.0,0.0,0.0,0.0,0.0,0.0,0.0,0.0,0.0,0.0,0.0,0.0,0.0,0.0,0.0,0.0,0.0,0.0,0.0,0.0,0.0,0.0,0.0,0.0,0.0,0.0,0.0,0.0,0.0,0.0,0.0,0.0,0.0,0.0,0.0,0.0,0.0,0.0,0.0,0.0,0.0,0.0,0.0,0.0,0.0,0.0,0.0,0.0,0.0,0.0,0.0,0.0,0.0,0.0,0.0,0.0,0.0,0.0,0.0,0.0,0.0,0.0,0.0,0.0,0.0,0.0,0.0,0.0,0.0,0.0,0.0,0.0,0.0,0.0,0.0,0.0,0.0,0.0,0.0,0.0,0.0,0.0,0.0,0.0,0.0,0.0,0.0,0.0,0.0,0.0,0.0,0.0,0.0,0.0,0.0,0.0,0.0,0.0,0.0,0.0,0.0,0.0,0.0,0.0,0.0,0.0,0.0,0.0,0.0,0.0,0.0,0.0,0.0,0.0,0.0,0.0,0.0,0.0,0.0,0.0,0.0,0.0,0.0,0.0,0.0,0.0,0.0,0.0,0.0,0.0,0.0,0.0,0.0,0.0,0.0,0.0,0.0,0.0,0.0,0.0,0.0,0.0,0.0,0.0,0.0,0.0,0.0,0.0,0.0,0.0,0.0,0.0,0.0,0.0,0.0,0.0,0.0,0.0,0.0,0.0,0.0,0.0,0.0,0.0,0.0,0.0,0.0,0.0,0.0,0.0,0.0,0.0,0.0,0.0,0.0,0.0,0.0,0.0,0.0,0.0,0.0,0.0,0.0,0.0,0.0,0.0,0.0,0.0,0.0,0.0,0.0,0.0,0.0,0.0,0.0,0.0,0.0,0.0,0.0,0.0,0.0,0.0,0.0,0.0,0.0,0.0,0.0,0.0,0.0,0.0,0.0,0.0,0.0,0.0,0.0,0.0,0.0,0.0,0.0,0.0,0.0,0.0,0.0,0.0,0.0,0.0,0.0,0.0,0.0,0.0,0.0,0.0,0.0,0.0,0.0,0.0,0.0,0.0,0.0,0.0,0.0,0.0,0.0,0.0,0.0,0.0,0.0,0.0,0.0,0.0,0.0,0.0,0.0,0.0,0.0,0.0,0.0,0.0,0.0,0.0,0.0,0.0,0.0,0.0,0.0,0.0,0.0,0.0,0.0,0.0,0.0,0.0,0.0,0.0,0.0,0.0,0.0,0.0,0.0,0.0,0.0,0.0,0.0,0.0,0.0,0.0,0.0,0.0,0.0,0.0,0.0,0.0,0.0,0.0,0.0,0.0,0.0,0.0,0.0,0.0,0.0,0.0,0.0,0.0,0.0,0.0,0.0,0.0,0.0,0.0,0.0,0.0,0.0,0.0,0.0,0.0,0.0,0.0,0.0,0.0,0.0,0.0,0.0,0.0,0.0,0.0,0.0,0.0,0.0,0.0,0.0,0.0,0.0,0.0,0.0,0.0,0.0,0.0,0.0,0.0,0.0,0.0,0.0,0.0,0.0,0.0,0.0,0.0,0.0,0.0,0.0,0.0,0.0,0.0,0.0,0.0,0.0,0.0,0.0,0.0,0.0,0.0,0.0,0.0,0.0,0.0,0.0,0.0,0.0,0.0,0.0,0.0,0.0,0.0,0.0,0.0,0.0,0.0,0.0,0.0,0.0,0.0,0.0,0.0,0.0,0.0,0.0,0.0,0.0,0.0,0.0,0.0,0.0,0.0,0.0,0.0,0.0,0.0,0.0,0.0,0.0,0.0,0.0,0.0,0.0,0.0,0.0,0.0,0.0,0.0,0.0,0.0,0.0,0.0,0.0,0.0,0.0,0.0,0.0,0.0,0.0,0.0,0.0,0.0,0.0,0.0,0.0,0.0,0.0,0.0,0.0,0.0,0.0,0.0,0.0,0.0,0.0,0.0,0.0,0.0,0.0,0.0,0.0,0.0,0.0,0.0,0.0,0.0,0.0,0.0,0.0,0.0,0.0,0.0,0.0,0.0,0.0,0.0,0.0,0.0,0.0,0.0,0.0,0.0,0.0,0.0,0.0,0.0,0.0,0.0,0.0,0.0,0.0,0.0,0.0,0.0,0.0,0.0,0.0,0.0,0.0,0.0,0.0,0.0,0.0,0.0,0.0,0.0,0.0,0.0,0.0,0.0,0.0,0.0,0.0,0.0,0.0,0.0,0.0,0.0,0.0,0.0,0.0,0.0,0.0,0.0,0.0,0.0,0.0,0.0,0.0,0.0,0.0,0.0,0.0,0.0,0.0,0.0,0.0,0.0,0.0,0.0,0.0,0.0,0.0,0.0,0.0,0.0,0.0,0.0,0.0,0.0,0.0,0.0,0.0,0.0,0.0,0.0,0.0,0.0,0.0,0.0,0.0,0.0,0.0,0.0,0.0,0.0,0.0,0.0,0.0,0.0,0.0,0.0,0.0,0.0,0.0,0.0,0.0,0.0,0.0,0.0,0.0,0.0,0.0,0.0,0.0,0.0,0.0,0.0,0.0,0.0,0.0,0.0,0.0,0.0,0.0,0.0,0.0,0.0,0.0,0.0,0.0,0.0,0.0,0.0,0.0,0.0,0.0,0.0,0.0,0.0,0.0,0.0,0.0,0.0,0.0,0.0,0.0,0.0,0.0,0.0,0.0,0.0,0.0,0.0,0.0,0.0,0.0,0.0,0.0,0.0,0.0,0.0,0.0,0.0,0.0,0.0,0.0,0.0,0.0,0.0,0.0,0.0,0.0,0.0,0.0,0.0,0.0,0.0,0.0,0.0,0.0,0.0,0.0,0.0,0.0,0.0,0.0,0.0,0.0,0.0,0.0,0.0,0.0,0.0,0.0,0.0,0.0,0.0,0.0,0.0,0.0,0.0,0.0,0.0,0.0,0.0,0.0,0.0,0.0,0.0,0.0,0.0,0.0,0.0,0.0,0.0,0.0,0.0,0.0,0.0,0.0,0.0,0.0,0.0,0.0,0.0,0.0,0.0,0.0,0.0,0.0,0.0,0.0,0.0,0.0,0.0,0.0,0.0,0.0,0.0,0.0,0.0,0.0,0.0,0.0,0.0,0.0,0.0,0.0,0.0,0.0,0.0,0.0,0.0,0.0,0.0,0.0,0.0,0.0,0.0,0.0,0.0,0.0,0.0,0.0,0.0,0.0,0.0,0.0,0.0,0.0,0.0,0.0,0.0,0.0,0.0,0.0,0.0,0.0,0.0,0.0,0.0,0.0,0.0,0.0,0.0,0.0,0.0,0.0,0.0,0.0,0.0,0.0,0.0,0.0,0.0,0.0,0.0,0.0,0.0,0.0,0.0,0.0,0.0,0.0,0.0,0.0,0.0,0.0,0.0,0.0,0.0,0.0,0.0,0.0,0.0,0.0,0.0,0.0,0.0,0.0,0.0,0.0,0.0,0.0,0.0,0.0,0.0,0.0,0.0,0.0,0.0,0.0,0.0,0.0,0.0,0.0,0.0,0.0,0.0,0.0,0.0,0.0,0.0,0.0,0.0,0.0,0.0,0.0,0.0,0.0,0.0,0.0,0.0,0.0,0.0,0.0,0.0,0.0,0.0,0.0,0.0,0.0,0.0,6.9378,0.0,0.0,0.0,0.0,0.0,0.0,0.0,0.0,0.0,0.0,0.0,0.0,0.0,0.0,0.0,0.0,0.0,0.0,0.0,0.0,0.0,0.0,0.0,0.0,0.0,0.0,0.0,0.0,0.0,0.0,0.0,0.0,0.0,0.0,0.0,0.0,0.0,0.0,0.0,0.0,0.0,0.0,0.0,0.0,0.0,0.0,0.0,0.0,0.0,0.0,0.0,0.0,0.0,0.0,0.0,0.0,0.0,0.0,0.0,0.0,0.0,0.0,0.0,0.0,0.0,0.0,0.0,0.0,0.0,0.0,0.0,0.0,0.0,0.0,0.0,0.0,0.0,0.0,0.0,0.0,0.0,0.0,0.0,0.0,0.0,0.0,0.0,0.0,0.0,0.0,0.0,0.0,0.0,0.0,0.0,0.0,0.0,0.0,0.0,0.0,0.0,0.0,0.0,0.0,0.0,0.0,0.0,0.0,0.0,0.0,0.0,0.0,0.0,0.0,0.0,0.0,6.9866,0.0,0.0,0.0,0.0,0.0,0.0,0.0,0.0,0.0,0.0,0.0,0.0,0.0,0.0,0.0,0.0,0.0,0.0,0.0,0.0,0.0,0.0,0.0,0.0,0.0,0.0,0.0,0.0,0.0,0.0,0.0,0.0,0.0,0.0,0.0,0.0,0.0,0.0,0.0,0.0,0.0,0.0,0.0,0.0,0.0,0.0,0.0,0.0,0.0,0.0,0.0,0.0,0.0,0.0,0.0,0.0,0.0,0.0,0.0,0.0,0.0,0.0,0.0,0.0,0.0,0.0,0.0,0.0,0.0,0.0,0.0,0.0,0.0,0.0,0.0,0.0,0.0,0.0,0.0,0.0,0.0,0.0,0.0,0.0,0.0,0.0,0.0,0.0,0.0,0.0,0.0,0.0,0.0,0.0,0.0,0.0,0.0,0.0,0.0,0.0,0.0,0.0,0.0,0.0,0.0,0.0,0.0,0.0,7.1358,7.1358,7.1358,7.1358,7.1745,7.24,7.1668,7.1358,7.1358,7.1358,0.0,0.0,0.0,0.0,0.0,0.0,0.0,0.0,0.0,0.0,0.0,0.0,0.0,0.0,0.0,0.0,0.0,0.0,0.0,0.0,0.0,0.0,0.0,0.0,0.0,0.0,0.0,0.0,0.0,0.0,0.0,0.0,0.0,0.0,0.0,0.0,0.0,0.0,6.3009,6.3085,6.3045,6.2851,6.2851,0.0,0.0,0.0,0.0,0.0,0.0,0.0,0.0,0.0,0.0,0.0,0.0,0.0,0.0,0.0,0.0,0.0,0.0,0.0,0.0,0.0,0.0,0.0,0.0,0.0,0.0,0.0,0.0,0.0,0.0,0.0,0.0,0.0,0.0,0.0,0.0,0.0,0.0,0.0,0.0,0.0,0.0,0.0,6.5304,6.6738,0.0,0.0,0.0,0.0,0.0,0.0,0.0,0.0,0.0,0.0,0.0,0.0,0.0,7.1863,7.1863,7.2741,7.3163,7.3163,7.3163,7.3163,7.3163,7.3163,7.3201,7.3317,7.3201,0.0,7.3163,7.3163,0.0,0.0,0.0,0.0,0.0,0.0,0.0,0.0,0.0,0.0,0.0,0.0,0.0,0.0,0.0,0.0,0.0,0.0,0.0,0.0,0.0,0.0,0.0,0.0,0.0,0.0,0.0,0.0,0.0,0.0,0.0,0.0,0.0,0.0,0.0,0.0,6.2543,6.3008,6.3314,6.4319,6.4743,6.4782,6.5739,6.5083,6.3314,6.3314,0.0,0.0,0.0,0.0,0.0,0.0,0.0,0.0,0.0,0.0,0.0,0.0,0.0,0.0,0.0,0.0,0.0,0.0,0.0,0.0,0.0,0.0,0.0,0.0,0.0,0.0,0.0,0.0,0.0,0.0,0.0,0.0,0.0,0.0,0.0,0.0,0.0,0.0,0.0,6.5844,6.6765,6.7832,6.8435,6.8918,0.0,0.0,0.0,0.0,0.0,0.0,0.0,0.0,0.0,7.2357,7.2741,7.2935,7.2935,7.3317,7.3507,7.3507,7.3507,7.3507,7.3507,7.3969,7.4434,7.4934,7.5438,7.5899,7.6169,7.428,7.3507,7.3507,0.0,0.0,0.0,0.0,7.3663,7.3717,0.0,0.0,0.0,0.0,0.0,0.0,0.0,0.0,0.0,0.0,0.0,0.0,0.0,0.0,0.0,5.558,0.0,0.0,0.0,0.0,0.0,0.0,0.0,0.0,0.0,0.0,0.0,6.3971,6.3971,6.4199,6.4622,6.5934,6.6551,6.659,6.7854,6.7006,6.4583,6.4583,6.4583,0.0,0.0,0.0,0.0,0.0,0.0,0.0,0.0,0.0,0.0,0.0,0.0,0.0,0.0,0.0,0.0,0.0,0.0,0.0,0.0,0.0,0.0,0.0,0.0,0.0,0.0,0.0,0.0,0.0,0.0,0.0,0.0,0.0,0.0,0.0,0.0,0.0,0.0,6.7525,6.8251,6.8968,6.9625,7.0012,0.0,0.0,0.0,0.0,0.0,0.0,7.2516,7.2516,7.282,7.3469,7.3932,7.4124,7.4124,7.4588,7.4782,7.4782,7.4782,7.4782,7.4819,7.5397,7.6015,7.667,7.7326,7.7944,7.829,7.5822,7.4782,7.4782,7.4782,7.4784,7.4787,7.4875,7.4934,7.4943,0.0,0.0,0.0,0.0,0.0,0.0,0.0,0.0,0.0,0.0,0.0,0.0,0.0,0.0,5.5515,5.7143,5.7313,5.7642,0.0,0.0,0.0,0.0,0.0,0.0,0.0,0.0,0.0,6.5785,6.5785,6.659,6.8159,6.8237,6.8277,6.8276,6.8353,6.8314,6.8122,6.8122,6.8122,6.8122,0.0,0.0,0.0,0.0,0.0,0.0,0.0,0.0,0.0,0.0,0.0,0.0,0.0,0.0,0.0,0.0,0.0,0.0,0.0,0.0,0.0,0.0,0.0,0.0,0.0,0.0,0.0,0.0,0.0,0.0,0.0,0.0,0.0,0.0,0.0,0.0,0.0,0.0,0.0,7.0666,7.0821,0.0,0.0,0.0,0.0,7.2135,7.2895,7.3392,7.3432,7.3432,7.343,7.3507,7.5049,7.5861,7.5861,7.7442,7.8252,7.8252,7.8252,7.8252,7.8252,7.829,7.833,7.8369,7.8405,7.8446,7.8484,7.833,7.8252,7.8252,7.8252,7.8239,7.8239,7.8278,7.8276,7.8274,0.0,0.0,0.0,0.0,0.0,0.0,0.0,0.0,0.0,0.0,0.0,0.0,0.0,5.5823,5.663,5.7209,5.8191,5.8848,5.9121,0.0,0.0,0.0,0.0,0.0,0.0,0.0,6.6319,6.751,6.751,6.7818,6.8391,6.897,6.9241,6.9241,6.9779,7.001,6.9933,6.8854,6.8391,6.8391,6.8391,6.8391,0.0,0.0,0.0,0.0,0.0,0.0,0.0,0.0,0.0,0.0,0.0,0.0,0.0,0.0,0.0,0.0,0.0,0.0,0.0,0.0,0.0,0.0,0.0,0.0,0.0,0.0,0.0,0.0,0.0,0.0,0.0,0.0,0.0,0.0,0.0,0.0,0.0,7.0862,7.14,0.0,7.1748,7.2514,7.3051,7.3051,7.3317,7.3969,7.5049,7.5126,7.559,7.667,7.7288,7.7596,7.7596,7.8215,7.8484,7.8484,7.8484,7.8484,7.8523,7.9673,8.0171,8.021,8.1291,8.1791,8.1791,8.1762,8.0491,7.8484,7.8484,7.8497,7.8518,7.851,7.8487,7.8503,0.0,0.0,0.0,0.0,0.0,0.0,0.0,0.0,0.0,0.0,0.0,5.5073,5.5231,5.6354,5.7243,5.7547,5.8741,5.9741,6.0321,0.0,0.0,0.0,6.4014,0.0,0.0,6.7132,6.7973,6.8854,6.8854,6.897,6.9278,6.9818,7.0089,7.0129,7.0667,7.0898,7.0821,6.9702,6.9241,6.9241,6.9241,6.9241,6.9241,0.0,0.0,0.0,0.0,0.0,0.0,0.0,0.0,0.0,0.0,0.0,0.0,0.0,0.0,0.0,0.0,0.0,0.0,0.0,0.0,0.0,0.0,0.0,0.0,0.0,0.0,0.0,0.0,0.0,0.0,0.0,0.0,0.0,0.0,7.1015,7.1439,7.1743,7.2283,7.2631,7.2631,7.3666,7.4357,7.4357,7.4857,7.5667,7.6786,7.6826,7.7365,7.8446,7.9059,7.9365,7.9365,7.9944,8.0215,8.0215,8.0215,8.0215,8.0254,8.1404,8.1943,8.202,8.3137,8.3601,8.3607,8.3613,8.2264,8.0217,8.0233,8.0204,8.0209,8.0202,8.0217,8.0234,0.0,0.0,0.0,0.0,0.0,0.0,0.0,0.0,0.0,0.0,5.4488,5.5191,5.5865,5.6597,5.7401,5.8278,5.9085,6.0282,6.1982,6.2135,0.0,0.0,0.0,0.0,6.7172,6.801,6.8854,6.9743,6.9743,7.0129,7.0898,7.0898,7.0898,7.0898,7.0898,7.0898,7.0898,7.0898,7.0898,7.0898,7.0898,7.0898,7.0898,0.0,0.0,0.0,0.0,0.0,0.0,0.0,0.0,0.0,0.0,0.0,0.0,0.0,0.0,0.0,0.0,0.0,0.0,0.0,0.0,0.0,0.0,0.0,0.0,0.0,0.0,0.0,0.0,0.0,0.0,0.0,0.0,0.0,7.225,7.225,7.2554,7.3392,7.3546,7.3586,7.3586,7.5088,7.6092,7.6092,7.7597,7.8523,7.8598,7.8598,7.86,7.8677,8.0289,8.117,8.117,8.2789,8.3599,8.3599,8.3599,8.3599,8.3599,8.3638,8.3638,8.3638,8.3678,8.3682,8.3692,8.3692,8.3686,8.368,8.361,8.3589,8.3591,8.3591,8.3589,8.3585,0.0,0.0,0.0,0.0,0.0,0.0,0.0,0.0,0.0,0.0,5.5197,5.5899,5.6634,5.7437,5.8279,5.9087,5.9935,6.0899,6.2019,0.0,0.0,0.0,0.0,0.0,6.8975,6.9202,6.9743,7.055,7.055,7.0667,7.0898,7.0898,7.0898,7.0898,7.0898,7.0898,7.0898,7.0898,7.0898,7.0898,7.0898,7.0898,7.0898,0.0,0.0,0.0,0.0,0.0,0.0,0.0,0.0,0.0,0.0,0.0,0.0,0.0,0.0,0.0,0.0,0.0,0.0,0.0,0.0,0.0,0.0,0.0,0.0,0.0,0.0,0.0,0.0,0.0,0.0,0.0,7.3126,7.3126,7.3126,7.3126,7.324,7.347,7.4588,7.532,7.532,7.6826,7.7828,7.7828,7.8252,7.9059,8.0325,8.0402,8.0943,8.2176,8.2676,8.2907,8.2907,8.3368,8.3599,8.3599,8.3599,8.3599,8.3601,8.4247,8.4557,8.4565,8.5172,8.5403,8.5405,8.5405,8.5403,8.5288,8.4075,8.36,8.3591,8.3591,8.3583,8.3595,0.0,0.0,0.0,0.0,0.0,0.0,0.0,0.0,0.0,0.0,5.5812,5.6593,5.6942,5.809,5.9009,5.9472,6.063,6.1709,6.2552,0.0,0.0,0.0,6.7787,6.8669,6.9666,7.0012,7.0437,7.0898,7.0898,7.0898,7.0898,7.0898,7.0898,7.0898,7.0898,7.0898,7.0898,7.0898,7.0898,7.0898,7.0898,7.0898,7.0898,7.0898,7.0898,7.0898,7.0898,7.0898,7.0898,7.0898,0.0,0.0,0.0,0.0,0.0,0.0,0.0,0.0,0.0,0.0,0.0,0.0,0.0,0.0,0.0,0.0,0.0,0.0,0.0,0.0,0.0,0.0,0.0,0.0,7.4549,7.478,7.5513,7.4972,7.4665,7.5051,7.6245,7.7055,7.7055,7.8596,7.9596,7.9596,8.0252,8.1098,8.2095,8.2133,8.2597,8.3561,8.3943,8.4134,8.4134,8.448,8.4634,8.4634,8.4634,8.4634,8.4672,8.5168,8.5401,8.5446,8.5901,8.6089,8.6089,8.6089,8.6089,0.0,0.0,0.0,0.0,0.0,8.4636,8.4661,0.0,0.0,0.0,0.0,0.0,0.0,0.0,0.0,0.0,0.0,0.0,5.7166,5.7133,5.8553,5.9549,5.9627,6.1133,6.2478,0.0,0.0,6.7133,6.7249,6.8821,6.9743,6.9819,7.0514,7.0898,7.0898,7.0898,7.0898,7.0898,7.0898,7.0898,7.0898,7.0898,7.0898,7.0898,7.0898,7.0898,7.0898,7.0898,7.0898,7.0898,7.0898,7.0898,7.0898,7.0898,7.0898,7.0898,7.0898,0.0,0.0,0.0,0.0,0.0,0.0,0.0,0.0,0.0,0.0,0.0,0.0,0.0,0.0,0.0,0.0,0.0,0.0,0.0,0.0,0.0,0.0,0.0,0.0,7.6284,7.6786,7.829,7.7401,7.6786,7.7367,7.8252,7.879,7.879,8.0366,8.1362,8.1362,8.2751,8.3638,8.3753,0.0,0.0,0.0,0.0,8.5051,8.5051,8.5859,8.6245,8.6245,8.6361,8.6399,8.6401,8.6401,8.6403,8.6408,8.6408,8.6408,8.6408,8.6408,8.6408,8.6367,8.617,8.6089,8.6089,8.6089,8.6089,8.6089,0.0,0.0,0.0,0.0,0.0,0.0,0.0,0.0,0.0,5.5608,5.6478,5.7284,5.7971,5.8933,5.9781,6.0476,6.1518,6.2749,0.0,6.6091,6.7401,6.8125,6.9164,7.0012,7.0667,7.0821,7.0898,7.0898,7.0898,7.0898,7.0898,7.0898,7.0898,7.0898,7.0898,7.0898,7.0898,7.0898,7.0898,7.0898,7.0898,7.0898,7.0898,7.0898,7.0898,7.0898,7.0898,7.0898,7.0898,7.0898,7.0898,7.0898,7.0898,7.0938,0.0,0.0,0.0,0.0,0.0,0.0,0.0,0.0,0.0,0.0,0.0,0.0,0.0,0.0,0.0,0.0,0.0,0.0,0.0,7.7751,7.8021,7.8136,7.8446,7.944,7.9631,7.8405,7.9635,8.0594,8.0594,8.2135,8.3137,8.3137,8.3407,8.3905,8.4591,8.4668,8.4937,8.5591,8.5784,8.5859,8.5859,8.6709,8.7134,8.7173,0.0,0.0,8.819,8.819,8.8205,8.8191,8.8191,8.8191,8.8191,8.8191,8.8191,8.8071,8.6645,8.6089,8.6089,8.6089,8.6089,8.6089,0.0,0.0,0.0,0.0,0.0,0.0,0.0,0.0,0.0,0.0,5.7206,5.7974,5.8818,5.9665,6.0515,6.1364,6.2633,0.0,6.5745,6.7051,6.8127,6.901,6.9858,7.0475,7.0898,7.0898,7.0898,7.0898,7.0898,7.0898,7.0898,7.0898,7.1129,7.1556,7.1556,7.1783,7.2203,7.2203,7.2203,7.2203,7.2203,7.2203,7.2128,7.1245,7.0898,7.0975,7.14,7.1556,7.1631,7.2049,7.2203,7.2203,7.2203,7.2203,7.2203,0.0,0.0,0.0,0.0,0.0,0.0,0.0,0.0,0.0,0.0,0.0,0.0,0.0,0.0,7.6247,7.7094,0.0,7.7671,7.894,7.9517,7.9942,8.0366,8.152,8.1712,8.0017,8.1325,8.2366,8.2366,8.3518,8.4247,8.4247,8.4634,8.5055,8.5476,8.5512,8.5899,8.6707,8.6748,8.6978,8.7404,8.7827,8.806,8.806,8.8485,8.8684,8.8694,8.869,8.8709,8.8704,8.8692,8.8707,8.8707,8.8707,8.8707,8.8628,8.7754,8.7391,8.7398,8.7398,8.7398,8.7398,0.0,0.0,0.0,0.0,0.0,0.0,0.0,0.0,0.0,0.0,5.7816,5.8624,5.9393,6.0282,6.1209,0.0,0.0,6.5322,6.6979,6.7935,6.8778,6.9666,7.0475,7.0898,7.0898,7.0898,7.0898,7.0898,7.0898,7.0898,7.0898,7.1052,7.1516,7.2211,7.2364,7.282,7.3507,7.3507,7.3507,7.3507,7.3507,7.3507,7.3353,7.1935,7.1397,7.1514,7.2208,7.2439,7.2554,7.3278,7.3507,7.3507,7.3507,7.3507,7.3507,7.3507,7.3507,0.0,0.0,0.0,0.0,0.0,0.0,0.0,0.0,7.5515,7.6478,7.6478,7.7557,7.8561,7.8713,7.8906,7.9288,8.0165,8.1016,8.1823,8.2443,8.3289,8.3364,8.2016,8.3018,8.3866,8.3866,8.463,8.5128,8.5128,8.5743,8.6168,8.6322,8.6361,8.6748,8.7637,8.7634,8.7983,8.8677,8.8868,8.9026,8.9186,8.9376,8.9537,8.9665,8.9656,8.9671,8.9664,8.9658,8.966,8.966,8.966,8.966,8.966,8.966,8.9673,8.9589,8.8955,8.8717,8.8717,0.0,0.0,0.0,0.0,0.0,0.0,0.0,0.0,0.0,0.0,0.0,0.0,0.0,0.0,0.0,0.0,6.4048,6.5322,6.6979,6.7935,6.8778,6.9666,7.0475,7.0898,7.0898,7.0898,7.0898,7.0898,7.0898,7.0898,7.0938,7.1671,7.2094,7.2211,7.3011,7.3393,7.3507,7.3507,7.3507,7.3507,7.3507,7.3507,7.3469,7.3276,7.3201,7.3238,7.3317,7.3353,7.3355,7.347,7.3507,7.3507,7.3507,7.3507,7.3507,7.3507,7.3507,7.3661,7.4355,7.5128,7.6092,7.7559,7.7405,7.7059,0.0,7.8099,7.8213,7.8213,7.8369,7.8752,7.9513,8.0285,8.1054,8.1902,8.2751,8.3368,8.3445,8.4211,8.4666,8.451,8.4628,8.4743,8.4743,8.5476,8.5974,8.5974,8.6053,8.6438,8.7211,8.7248,8.7634,8.8523,8.8562,8.86,8.8716,8.94,9.0141,9.0946,9.1707,9.2447,9.3123,9.3121,9.3123,9.3127,9.3155,9.315,9.315,9.315,9.315,9.315,9.315,9.3157,9.2772,8.9797,8.8685,8.8685,0.0,0.0,0.0,0.0,0.0,0.0,0.0,0.0,0.0,0.0,0.0,0.0,0.0,0.0,0.0,6.3237,6.4549,6.6051,6.7744,6.8201,6.901,7.0358,7.0706,7.0898,7.0898,7.0898,7.0898,7.0898,7.0898,7.0898,7.0938,7.1787,7.2479,7.2974,7.3818,7.4471,7.4936,7.4936,7.4936,7.4936,7.4936,7.4936,7.4936,7.4936,7.4936,7.4897,7.4395,7.4199,0.0,0.0,7.4936,7.4936,7.4936,7.5282,7.5707,7.5707,7.6055,7.6478,7.6824,7.7172,7.7634,7.833,7.8252,7.8099,7.8405,7.8904,7.9248,7.9248,8.0017,8.0827,8.1208,8.1979,8.2674,8.2982,8.3787,8.4362,8.4362,8.5053,8.5589,8.5589,8.5589,8.5589,8.5589,8.5897,8.6322,8.6824,8.6863,8.725,8.8098,8.8175,8.8558,8.9361,8.9902,9.0411,9.0926,9.1723,9.2275,9.2656,9.3011,9.3361,9.3705,9.422,9.4742,9.5202,9.5202,9.5202,9.5202,9.5202,9.5202,9.5202,9.5202,9.5202,9.493,9.2493,9.1603,9.1603,0.0,0.0,0.0,0.0,0.0,0.0,0.0,0.0,0.0,0.0,0.0,0.0,0.0,0.0,6.3314,6.3314,6.5089,6.6861,6.8314,6.8624,6.9395,7.0821,7.0898,7.0898,7.0898,7.0898,7.0898,7.0898,7.0898,7.0898,7.0938,7.2054,7.2897,7.3546,7.4586,7.5397,7.6015,7.6015,7.6015,7.6015,7.6015,7.6015,7.6015,7.6015,7.6015,7.5938,7.5282,7.5049,0.0,0.0,7.6361,7.6401,7.6632,7.7134,7.7636,7.7636,7.8023,7.8561,7.8788,7.8675,7.8638,7.9098,7.9058,7.8981,7.9442,8.0054,8.0552,8.0783,8.1823,8.2672,8.2672,8.3366,8.3943,8.3943,8.4668,8.5241,8.5241,8.5743,8.6207,8.6438,8.6476,8.6553,8.6784,8.6592,8.6824,8.7673,8.775,8.8137,8.8983,8.9252,8.9789,9.059,9.1439,9.218,9.2818,9.3665,9.4185,9.4417,9.4622,9.4885,9.5129,9.5772,9.6392,9.6993,9.6993,9.6993,9.6993,9.6993,9.6993,9.6993,9.6993,9.6993,9.6844,9.5573,9.4826,9.4416,0.0,0.0,0.0,0.0,0.0,0.0,0.0,0.0,0.0,0.0,0.0,0.0,0.0,0.0,6.3314,6.3314,6.5591,6.7438,6.8353,6.9202,7.0012,7.086,7.0898,7.0898,7.0898,7.0898,7.0898,7.0898,7.0898,7.0898,7.0937,7.2663,7.347,7.3584,7.5203,7.5976,7.6015,7.6015,7.6015,7.6015,7.6015,7.6015,7.6015,7.6015,7.6015,7.6015,7.5976,0.0,0.0,7.698,7.7251,7.7405,7.8175,7.8446,7.8446,7.8446,7.8482,7.8675,7.9513,7.9131,7.8906,8.0594,8.0398,8.0204,8.1823,8.221,8.2443,8.3291,8.3522,8.3563,8.3563,8.4286,8.4858,8.4858,8.5551,8.6053,8.6053,8.6089,8.6399,8.725,8.7365,8.7673,8.8523,8.7867,8.7711,8.86,8.8677,8.9019,8.9819,9.0667,9.1515,9.2405,9.3213,9.3642,9.3654,9.4525,9.5376,9.624,9.6992,9.7813,9.8664,9.868,9.8709,9.8709,9.8709,9.8709,9.8709,9.8709,9.8709,9.8709,9.8709,9.8709,9.8709,9.867,9.7628,9.6211,0.0,0.0,0.0,0.0,0.0,0.0,0.0,0.0,0.0,0.0,0.0,0.0,0.0,0.0,0.0,0.0,6.5128,6.6899,6.8314,6.8662,6.9433,7.0821,7.0898,7.0898,7.0898,7.0898,7.0898,7.0898,7.0898,7.0898,7.0937,7.2664,7.3507,7.3584,7.5243,7.6015,7.6015,7.6015,7.6015,7.6015,7.6015,7.6015,7.6015,7.6015,7.6361,7.6865,0.0,0.0,0.0,7.7828,7.8099,7.8136,7.8405,7.8904,7.9477,8.0056,8.021,8.0287,8.0592,8.0439,8.0479,8.1633,8.167,8.1749,8.2905,8.3176,8.3251,8.3522,8.4057,8.4476,8.4476,8.513,8.5705,8.5705,8.5936,8.6089,8.6089,8.6592,8.7055,8.7365,8.7906,8.8598,8.9438,8.875,8.8596,8.9436,9.0017,9.0748,9.1592,9.2402,9.3262,9.4133,9.4978,9.5698,9.6224,9.7106,9.7676,9.7978,9.8216,9.8832,9.9668,9.9671,10.0291,10.1281,10.1281,10.1599,10.2193,10.2193,10.2193,10.2193,10.2193,10.2193,10.2193,10.2193,10.1782,10.1017,0.0,0.0,0.0,0.0,0.0,0.0,0.0,0.0,0.0,0.0,0.0,0.0,0.0,0.0,0.0,0.0,0.0,6.6591,6.8276,6.8701,6.9472,7.0821,7.0898,7.0898,7.0898,7.0898,7.0898,7.0898,7.0898,7.0898,7.0937,7.2358,7.3203,7.3546,7.4934,7.5705,7.6015,7.6015,7.6015,7.6015,7.6015,7.6015,7.6015,7.6015,7.6555,0.0,0.0,0.0,7.8286,7.8786,7.8979,7.9017,7.9329,8.0017,8.0744,8.1016,8.1285,8.1518,8.1518,8.1518,8.1749,8.2558,8.2751,8.2982,8.3866,8.4057,8.4136,8.4441,8.4939,8.532,8.532,8.5743,8.6089,8.6089,8.6361,8.6553,8.6553,8.7325,8.7981,8.8246,8.8786,8.9594,9.0705,9.0364,9.025,9.0782,9.1592,9.2479,9.3369,9.4174,9.5034,9.5874,9.6753,9.7437,9.7969,9.8814,9.9562,10.0211,10.0488,10.0885,10.1481,10.1481,10.1996,10.3105,10.3104,10.3407,10.3884,10.3884,10.3884,10.3884,10.3884,10.3884,10.3884,10.3884,10.3884,10.3609,0.0,0.0,0.0,0.0,0.0,0.0,0.0,0.0,0.0,0.0,0.0,0.0,0.0,0.0,0.0,0.0,0.0,0.0,6.8276,6.9164,7.0012,7.086,7.0898,7.0898,7.0898,7.0898,7.0898,7.0898,7.0898,7.0938,7.0977,7.1863,7.2745,7.3584,7.4394,7.5243,7.6015,7.6015,7.6015,7.6015,7.6015,7.6015,7.6015,7.6015,7.6555,7.7444,7.8215,7.9094,7.9858,7.9858,7.9858,8.0012,8.0821,8.1631,8.2095,8.1362,8.171,8.2326,8.2364,8.2364,8.2597,8.3445,8.3676,8.3905,8.4743,8.4974,8.5164,8.5938,8.6089,8.6089,8.6089,8.6089,8.6089,8.6089,8.6824,8.7404,8.7404,8.8175,8.9058,8.9857,9.0009,9.0705,9.2405,9.2633,9.2672,9.2672,9.3405,9.4215,9.5064,9.5944,9.6797,9.7628,9.8473,9.8944,9.8972,9.9844,10.1101,10.2701,10.3495,10.389,10.389,10.389,10.389,10.4003,10.3985,10.4016,10.4016,10.4016,10.4016,10.4016,10.4016,10.4016,10.4016,10.4016,10.4016,10.3993,0.0,0.0,0.0,0.0,0.0,0.0,0.0,0.0,0.0,0.0,0.0,0.0,0.0,0.0,0.0,0.0,0.0,0.0,6.8237,6.8624,6.9393,7.0821,7.0898,7.0898,7.0898,7.0898,7.0898,7.0898,7.0898,7.1246,7.1904,7.2743,7.3626,7.4434,7.5282,7.5782,7.6015,7.6015,7.6015,7.6015,7.6015,7.6015,7.6015,7.6015,7.6901,7.8215,7.8446,7.9481,8.0783,8.0783,8.0783,8.0823,8.1016,8.1246,8.1479,8.1864,8.2133,8.2441,8.3099,8.3253,8.3484,8.436,8.4553,8.4784,8.5591,8.5782,8.5859,8.6053,8.6089,8.6089,8.6089,8.6089,8.6089,8.6089,8.6824,8.7404,8.7404,8.8671,8.9898,9.0782,9.1439,9.2249,9.3289,9.4557,9.5324,9.5324,9.5516,9.6019,9.6826,9.7682,9.854,9.9403,10.0184,10.0995,10.1599,10.2511,10.3093,10.3583,10.3782,10.39,10.39,10.39,10.4218,10.481,10.4785,10.5208,10.5803,10.5803,10.5803,10.5803,10.5803,10.5803,10.5803,10.5803,10.5803,10.5808,0.0,0.0,0.0,0.0,0.0,0.0,0.0,0.0,0.0,0.0,0.0,0.0,0.0,0.0,0.0,0.0,0.0,0.0,0.0,6.8201,6.9008,7.0321,7.0706,7.0898,7.0898,7.0898,7.0898,7.0898,7.0898,7.1169,7.1633,7.2128,7.3009,7.4199,7.4665,7.532,7.6015,7.6015,7.6015,0.0,0.0,7.6015,7.6015,7.6015,7.6824,7.8021,7.8369,7.9635,8.1093,8.1093,8.1093,8.1093,8.1093,8.1595,8.221,8.2287,8.2826,8.3553,8.4057,8.4172,8.4364,8.5207,8.5435,8.5551,8.6015,8.6089,8.6089,8.6089,8.6089,8.6089,8.6089,8.6089,8.6245,8.6592,8.7404,8.8096,8.8438,8.9977,9.1208,9.1708,9.2518,9.3489,9.4733,9.5731,9.6768,9.7881,9.76,9.7752,9.8598,9.9425,10.0284,10.1212,10.1991,10.2708,10.3197,10.3989,10.4395,10.4413,10.481,10.501,10.501,10.501,10.5208,10.5685,0.0,10.5882,10.6397,10.6397,10.6397,10.6397,10.6397,10.6397,10.6397,10.6397,10.6397,10.6397,0.0,0.0,0.0,0.0,0.0,0.0,0.0,0.0,0.0,0.0,0.0,0.0,0.0,0.0,0.0,0.0,0.0,0.0,0.0,0.0,6.8664,6.9666,7.036,7.0783,7.0898,7.0898,7.0898,7.0898,7.0898,7.0975,7.1052,7.1052,7.1935,7.3507,7.3507,7.4355,7.5822,7.5822,7.5899,7.6015,7.6015,7.6015,7.6015,0.0,0.0,7.7405,7.8328,7.971,8.1093,8.1093,8.1093,8.1131,8.1246,8.2249,8.333,8.2787,8.3706,8.4935,8.5012,8.5049,8.5243,8.5936,8.6089,8.6089,8.6089,8.6089,8.6089,8.6089,8.6089,8.6089,8.6089,8.6207,8.6517,8.7288,8.8214,8.9096,8.9816,9.14,9.2559,9.2635,9.3482,9.4686,9.6291,9.6678,9.7715,9.9947,9.9618,9.9642,10.0416,10.1089,10.1902,10.2888,10.3718,10.4112,10.4218,10.489,10.5287,10.5287,10.6003,10.6397,10.6397,10.6397,10.6397,10.6397,10.6397,10.6397,10.6397,10.6397,10.6397,10.6397,10.6397,10.6397,10.6397,10.6397,10.6397,10.6397,0.0,0.0,0.0,0.0,0.0,0.0,0.0,0.0,0.0,0.0,5.8316,5.8933,0.0,0.0,0.0,0.0,0.0,0.0,0.0,0.0,0.0,6.9627,6.9819,7.0204,7.0898,7.0898,7.0898,7.0898,7.0898,7.1285,7.1979,7.1979,7.2514,7.3507,7.3507,7.4046,7.4934,7.4934,7.5359,7.6015,7.6015,7.6015,7.6015,0.0,0.0,0.0,7.9015,8.0244,8.1093,8.1093,8.1093,8.1208,8.1864,8.2287,8.2787,8.4053,8.4666,8.5051,8.5705,8.5897,8.5936,8.6053,8.6089,8.6089,8.6089,8.6089,8.6089,8.6089,8.6089,8.6089,8.6089,8.6709,8.7211,8.7365,8.8707,8.9742,8.9893,9.14,9.2751,9.3407,9.4903,9.622,9.7205,9.8581,9.962,10.0101,10.1205,10.2011,10.2203,10.2282,10.3112,10.4603,10.48,10.519,10.6003,10.6082,10.62,10.62,10.6318,10.6397,10.6397,10.6397,10.6397,10.6397,10.6397,0.0,10.6397,10.6397,10.6397,10.6397,10.6397,10.6397,10.6397,10.6397,10.6397,10.6397,0.0,0.0,0.0,0.0,0.0,0.0,0.0,5.5707,5.6167,5.7437,5.801,5.8933,6.063,6.0784,6.1133,0.0,0.0,0.0,0.0,0.0,0.0,0.0,0.0,0.0,7.0898,7.0898,7.0898,7.0898,0.0,7.1092,7.1516,7.1516,7.1977,7.2822,7.2822,7.328,7.4086,7.4509,7.4934,7.5359,7.5822,7.6015,0.0,0.0,0.0,0.0,7.8825,7.9977,8.1093,8.1093,8.1093,8.1246,8.2056,8.2595,8.321,8.4514,8.5205,8.5628,8.6015,8.6089,8.6089,8.6089,8.6089,8.6089,8.6089,8.6089,8.6089,8.6089,8.6089,8.6245,8.6709,8.7132,8.7671,8.8553,8.9395,9.0203,9.1129,9.2326,9.3597,9.4903,9.6143,9.7424,9.8749,10.0004,10.0894,10.1407,10.2605,10.3105,10.259,10.3384,10.4486,10.5687,10.5803,10.6003,10.6397,10.6397,10.6397,10.6397,10.6397,10.6397,10.6397,10.6397,10.6397,10.6397,10.6397,10.6397,10.6397,10.6397,10.6397,10.6397,10.6397,10.6397,10.6397,10.6397,10.6397,10.6397,0.0,0.0,0.0,0.0,0.0,0.0,0.0,5.5707,5.6016,5.6904,5.7743,5.8856,6.0361,6.0707,6.1093,0.0,0.0,0.0,0.0,0.0,0.0,0.0,0.0,0.0,7.0629,0.0,0.0,7.0898,7.0898,0.0,0.0,0.0,0.0,0.0,7.1902,7.24,7.3241,7.3895,7.428,0.0,0.0,7.5705,0.0,0.0,0.0,0.0,0.0,7.9519,8.0862,8.1054,8.1208,8.1516,8.2326,8.3058,8.3828,8.4858,8.5589,8.6089,8.6089,8.6089,8.6089,8.6089,8.6089,8.6089,8.6089,8.6089,8.6089,8.6089,8.6089,8.6361,8.7248,8.7557,8.8173,8.9665,9.0203,9.0936,9.2328,9.352,9.4751,9.6132,9.734,9.8588,9.9985,10.0995,10.1917,10.2486,10.3588,10.3906,10.3191,10.4618,10.5691,10.64,10.6397,10.6397,10.6397,10.6397,10.6397,10.6397,10.6397,10.6397,10.6397,10.6397,10.6397,10.6397,10.6397,10.6397,10.6397,10.6397,10.6397,10.6397,10.6397,10.6397,10.6397,10.6397,10.6397,10.6397,0.0,0.0,0.0,0.0,0.0,0.0,0.0,5.5707,5.6016,5.6904,5.7743,5.8624,5.951,6.0321,6.0824,0.0,0.0,0.0,0.0,0.0,0.0,0.0,0.0,0.0,0.0,0.0,0.0,7.0898,7.0898,0.0,0.0,0.0,0.0,0.0,0.0,7.1516,7.2325,7.2404,0.0,0.0,0.0,0.0,0.0,0.0,0.0,0.0,0.0,7.9094,8.005,8.0821,8.1595,8.2326,8.3214,8.3522,8.3907,8.5514,8.6051,8.6089,8.6089,8.6089,8.6089,8.6089,8.6089,8.6089,8.6089,8.6089,8.6089,8.6089,8.6089,8.6361,8.7248,8.806,8.8868,8.9742,9.1246,9.2328,9.2482,9.4557,9.6129,9.6283,9.8408,9.9923,10.0098,10.1484,10.2481,10.2612,10.4111,10.4985,10.4905,10.5818,10.629,10.6397,10.6397,10.6397,10.6397,10.6397,10.6397,10.6397,10.6397,10.6397,10.6397,10.6397,10.6397,10.6397,10.6397,10.6397,0.0,10.6397,10.6397,10.6397,10.6397,10.6397,10.6397,10.6397,10.6397,10.6397,0.0,0.0,0.0,0.0,0.0,0.0,5.5746,5.5707,5.5822,5.617,5.7434,5.8432,5.8739,5.9975,6.0784,6.0784,0.0,0.0,0.0,0.0,0.0,0.0,0.0,0.0,0.0,0.0,7.0398,7.0898,7.0898,0.0,0.0,0.0,0.0,0.0,0.0,7.1092,7.144,7.1979,0.0,0.0,0.0,0.0,0.0,0.0,0.0,0.0,0.0,0.0,7.9935,8.0823,8.1631,8.2443,8.333,8.3943,8.4593,8.5743,8.6089,8.6089,8.6089,8.6089,8.6089,8.6089,8.6089,8.6089,8.6089,8.6089,8.6089,8.6089,8.6517,8.7134,8.8021,8.8865,8.9707,9.0552,9.1708,9.2866,9.3869,9.5344,9.6888,9.8408,9.9485,10.0505,10.1481,10.2684,10.3814,10.4782,10.5487,10.5882,10.5882,10.62,10.6397,10.6397,10.6397,10.6397,10.6397,10.6397,10.6397,10.6397,10.6397,10.6397,10.6397,10.6397,10.6397,10.6397,10.6397,10.6397,0.0,10.6397,10.6715,10.7193,10.7193,10.7508,10.7906,10.7906,10.7906,10.7906,0.0,0.0,0.0,0.0,0.0,5.5906,5.5746,5.5707,5.5707,5.5707,5.6974,5.8011,5.8278,5.9588,6.0513,6.0784,6.1362,0.0,0.0,0.0,0.0,0.0,0.0,0.0,0.0,0.0,6.9973,7.0552,7.0783,7.0898,0.0,0.0,7.0898,7.0898,0.0,0.0,0.0,0.0,0.0,0.0,0.0,0.0,0.0,0.0,0.0,0.0,0.0,0.0,0.0,0.0,0.0,8.2789,8.3407,8.4362,8.5359,8.5936,8.6089,8.6089,8.6089,8.6089,8.6089,8.6089,8.6089,8.6089,8.6089,8.6089,8.6089,8.6089,8.6784,8.7675,8.8523,8.9363,9.028,9.14,9.2287,9.3448,9.5152,9.6359,9.7785,9.9846,10.05,10.1284,10.2518,10.3593,10.4894,10.6285,10.6397,10.6397,10.6397,10.6397,10.6397,10.6397,10.6397,10.6397,10.6397,10.6397,10.6397,10.6397,10.6397,10.6397,10.6397,10.6715,10.6795,10.6795,10.6992,10.7113,0.0,10.7113,10.7508,10.8101,10.8108,10.8413,10.8891,10.8891,10.8891,10.8891,0.0,0.0,0.0,0.0,0.0,0.0,5.5747,5.5707,5.5707,5.5707,5.6479,5.7324,5.8201,5.9048,5.9856,6.0707,6.0824,0.0,0.0,0.0,0.0,0.0,0.0,0.0,0.0,0.0,6.9704,6.9704,7.0514,7.0898,7.0898,7.0898,7.0898,7.0898,0.0,0.0,0.0,0.0,0.0,0.0,0.0,0.0,7.4819,0.0,0.0,0.0,0.0,0.0,0.0,0.0,0.0,0.0,0.0,8.4749,8.6089,8.6089,8.6089,8.6089,8.6089,8.6089,8.6089,8.6089,8.6089,8.6089,8.6089,8.6089,8.6089,8.6089,8.6784,8.7675,8.8523,8.9363,9.0472,9.2212,9.3174,9.4301,9.6024,9.7705,9.9084,9.9983,10.1597,10.2593,10.259,10.4082,10.5487,10.6318,10.6397,10.6397,10.6397,10.6397,10.6397,10.6397,10.6397,10.6397,10.6397,10.6397,10.6397,10.6397,10.6397,10.6397,10.6397,10.7311,10.7708,10.7708,10.8501,10.8896,0.0,10.8896,10.8896,10.8886,10.8899,10.8898,10.8898,10.8898,10.8898,10.8898,0.0,0.0,0.0,0.0,0.0,0.0,0.0,5.5707,5.5707,5.5707,5.6479,5.7324,5.8201,5.9009,5.9858,6.0707,6.0784,0.0,0.0,0.0,0.0,0.0,0.0,0.0,0.0,0.0,0.0,6.9704,6.9975,7.036,7.0898,7.0898,7.0898,7.0898,7.0898,7.0898,0.0,0.0,0.0,0.0,0.0,7.3128,7.3969,0.0,0.0,0.0,0.0,0.0,0.0,0.0,0.0,0.0,0.0,0.0,0.0,8.6089,8.6089,8.6089,8.6089,8.6089,8.6089,8.6089,8.6089,8.6089,8.6089,8.6089,8.6089,8.6089,8.7288,8.837,8.8639,8.9825,9.1169,9.2328,9.3183,9.45,9.6784,9.8106,9.9331,10.0803,10.2418,10.3711,10.4305,10.5308,10.6082,10.6397,10.6397,10.6397,10.6397,10.6397,10.6397,10.6397,10.6397,10.6397,10.6397,10.6397,10.6397,10.6397,10.6992,10.7311,10.7311,10.8103,10.8501,10.8509,10.8789,10.8907,10.8907,10.8907,10.9302,10.9818,10.9784,11.0207,11.0682,11.0682,11.0682,11.0682,0.0,0.0,0.0,0.0,0.0,0.0,0.0,5.5707,5.5707,5.5707,5.617,5.6977,5.8162,5.8741,5.951,6.0708,6.0784,0.0,0.0,0.0,0.0,0.0,0.0,0.0,0.0,0.0,0.0,0.0,0.0,6.9975,7.0435,7.0744,7.0898,7.0898,7.0898,7.0898,0.0,0.0,0.0,0.0,7.1863,7.2706,7.3586,0.0,0.0,0.0,0.0,0.0,0.0,0.0,0.0,0.0,0.0,0.0,0.0,0.0,8.6089,8.6089,8.6089,8.6089,8.6089,8.6089,8.6089,8.6089,8.6089,8.6089,8.6207,8.6515,8.7711,8.8793,8.9096,9.0284,9.1595,9.2758,9.3654,9.5091,9.764,9.8743,10.0011,10.2008,10.349,10.4693,10.5487,10.6082,10.6397,10.6397,10.6397,10.6397,10.6397,10.6397,10.6397,10.6397,10.6397,10.6397,10.6397,10.6715,10.6913,10.6913,10.7708,10.8201,10.8203,10.8996,10.9398,10.9411,10.9691,10.9888,0.0,10.9888,11.0207,11.0682,11.0682,11.1,11.1513,11.1513,11.1513,11.1513,0.0,0.0,0.0,0.0,0.0,0.0,0.0,5.5707,5.5707,5.5707,5.5707,5.6358,5.8124,5.8316,5.8972,6.0668,0.0,0.0,0.0,0.0,0.0,0.0,0.0,0.0,0.0,6.6593,6.7056,6.7095,6.8783,6.9627,6.9704,0.0,7.0898,7.0898,7.0898,7.0898,0.0,0.0,0.0,0.0,7.1787,7.2668,0.0,0.0,0.0,0.0,0.0,0.0,0.0,0.0,0.0,0.0,0.0,0.0,0.0,0.0,0.0,0.0,0.0,8.6089,8.6089,8.6089,8.6089,8.6089,8.6089,8.6166,0.0,8.7211,8.8137,8.9019,8.9742,9.0667,9.183,9.3425,9.448,9.5958,9.8435,9.9647,10.119,10.3584,10.4595,10.5405,10.6318,10.6397,10.6397,10.6397,10.6397,10.6397,10.6397,10.6397,10.6397,10.6397,10.6518,10.6518,10.6518,10.7311,10.7703,10.7816,10.8609,10.8993,10.9016,10.9888,11.0286,0.0,11.1118,11.1513,11.1513,11.1513,11.1513,11.1513,11.1513,11.1513,11.1513,11.1513,11.1513,11.1513,0.0,0.0,0.0,0.0,0.0,0.0,0.0,0.0,0.0,0.0,5.5707,5.6358,5.8124,5.8316,5.8972,0.0,0.0,0.0,0.0,0.0,0.0,0.0,0.0,0.0,0.0,6.5745,6.6478,6.7095,6.8165,6.9047,6.9704,7.0512,0.0,0.0,7.0898,0.0,0.0,0.0,0.0,0.0,7.1131,7.2128,0.0,0.0,0.0,0.0,7.7905,7.8484,0.0,0.0,0.0,0.0,0.0,0.0,0.0,0.0,8.6089,0.0,8.6089,0.0,8.6089,8.6089,8.6089,8.6089,0.0,8.663,8.7134,8.7365,8.8592,8.9669,8.9868,9.1148,9.2513,9.3535,9.4999,9.6669,9.8558,10.0695,10.2508,10.3711,10.459,10.5405,10.6318,10.6397,10.6397,10.6397,10.6397,10.6397,10.6397,10.6397,10.6397,10.6397,10.6992,10.739,10.739,10.7588,10.7985,10.8617,10.9489,10.9912,10.9888,11.0802,11.1198,11.1198,11.1395,11.1513,11.1513,11.1513,11.1513,11.1513,11.1513,11.1513,11.1513,11.1513,11.1513,11.1513,0.0,0.0,0.0,0.0,0.0,0.0,0.0,0.0,0.0,0.0,0.0,0.0,0.0,0.0,0.0,0.0,0.0,0.0,0.0,0.0,0.0,0.0,0.0,0.0,0.0,6.5437,6.6093,6.6556,6.7398,6.8241,0.0,0.0,0.0,0.0,7.0898,0.0,0.0,0.0,0.0,7.0898,7.0898,0.0,0.0,0.0,0.0,0.0,7.7905,7.8484,0.0,8.0517,8.221,8.3599,0.0,0.0,0.0,0.0,8.6089,8.6089,8.6089,8.6089,8.6089,8.6089,8.6089,8.6089,8.6089,8.6754,8.7495,8.7914,8.8994,9.003,9.0406,9.1576,9.2754,9.3585,9.5489,9.772,10.0192,10.2112,10.3504,10.4388,10.5208,10.5882,10.6397,10.6397,10.6397,10.6397,10.6397,10.6397,10.6397,10.6397,10.6597,10.6992,10.7508,10.7708,10.7708,10.8493,10.9113,10.9493,11.0404,11.0802,11.0802,11.1316,11.1513,11.1513,11.1513,11.1513,11.1513,11.1513,11.1513,11.1513,11.1513,11.1513,11.1513,11.1513,11.1513,11.1513,0.0,0.0,0.0,0.0,0.0,0.0,0.0,0.0,0.0,0.0,0.0,0.0,0.0,0.0,0.0,0.0,0.0,0.0,0.0,0.0,0.0,0.0,0.0,6.3662,6.4394,6.5399,6.59,6.59,6.671,6.7553,6.843,6.9279,7.0129,7.0898,7.0898,0.0,0.0,0.0,7.0898,7.0898,7.0898,0.0,0.0,0.0,0.0,0.0,0.0,0.0,0.0,8.0517,8.221,8.3599,8.3599,0.0,0.0,0.0,0.0,0.0,8.6089,8.6089,8.6089,8.6089,8.6089,8.6128,8.6282,8.6957,8.7856,8.8694,8.9545,9.0355,9.1255,9.2119,9.2985,9.3922,9.6211,9.9004,10.2205,10.3408,10.4199,10.4982,10.5882,10.6397,10.6397,10.6397,10.6397,10.6397,10.6397,10.6397,10.6397,10.6518,10.6913,10.7708,10.789,10.8119,10.8119,10.9497,11.0286,11.0404,11.1118,11.1513,11.1513,11.1513,11.1513,11.1513,0.0,0.0,11.1513,11.1513,11.1513,11.1513,11.1513,11.1513,11.1513,11.1513,11.1513,11.1513,0.0,0.0,0.0,0.0,0.0,0.0,0.0,0.0,0.0,0.0,0.0,0.0,0.0,0.0,0.0,0.0,0.0,0.0,0.0,0.0,0.0,0.0,6.2472,6.3352,6.3506,6.5091,6.59,6.59,6.671,6.7553,6.843,6.9279,7.0129,7.0898,7.0898,7.0898,0.0,0.0,7.0898,7.0898,7.0898,0.0,0.0,0.0,0.0,0.0,0.0,0.0,0.0,8.0517,8.221,8.3599,8.3599,0.0,0.0,0.0,0.0,0.0,8.6089,8.6089,8.6089,8.6089,8.6089,8.6284,8.7017,8.7878,8.8733,8.953,9.0409,9.1257,9.2121,9.2951,9.4033,9.5648,9.8043,10.0389,10.2313,10.3387,10.4195,10.501,10.5882,10.6397,10.6397,10.6397,10.6397,10.6397,10.6397,10.6397,10.6397,10.7113,10.7588,10.7708,10.9087,10.9794,10.9794,11.0097,11.0602,11.1316,11.1395,11.1513,11.1513,11.1513,11.1513,11.1513,0.0,11.1513,11.1513,11.1513,11.1513,11.1513,11.1513,11.1513,11.1513,11.1513,11.1513,11.1513,0.0,0.0,0.0,0.0,0.0,0.0,0.0,0.0,0.0,0.0,0.0,0.0,0.0,0.0,0.0,0.0,0.0,0.0,0.0,0.0,0.0,6.0784,6.2394,6.3314,6.3314,6.5013,6.59,6.59,6.671,6.7553,6.843,6.9743,7.0552,7.0898,7.0898,7.0898,7.0898,0.0,7.0898,7.0937,0.0,0.0,0.0,0.0,0.0,0.0,0.0,0.0,0.0,0.0,8.221,8.3599,8.3599,0.0,0.0,0.0,0.0,0.0,8.6089,8.6089,8.6089,8.6089,8.6089,8.6324,8.7187,8.8053,8.8918,8.9733,9.0584,9.1484,9.2356,9.3142,9.4577,9.7207,9.9012,10.0805,10.2987,10.361,10.4413,10.5685,10.62,10.6397,10.6397,10.6397,10.6397,10.6397,10.6397,10.6397,10.6397,10.7193,10.7918,10.8297,10.9597,11.0404,11.0882,11.0882,11.1118,11.1513,11.1513,11.1513,11.1513,11.1513,11.1513,11.1513,0.0,11.1513,11.1513,11.1513,11.1513,11.1513,11.1513,11.1513,11.1513,11.1513,11.1513,11.1513,0.0,0.0,0.0,0.0,0.0,0.0,0.0,0.0,0.0,0.0,0.0,0.0,0.0,0.0,0.0,0.0,0.0,0.0,0.0,0.0,6.0901,6.1093,6.2509,6.3314,6.3314,6.5013,6.59,6.59,6.671,6.7669,6.8739,7.0204,7.0898,7.0898,7.0898,7.0898,7.0898,7.0898,7.0898,7.0977,0.0,0.0,0.0,0.0,0.0,0.0,0.0,0.0,0.0,0.0,0.0,0.0,0.0,0.0,0.0,8.6089,8.6089,8.6089,8.6089,8.6089,8.6089,8.6089,0.0,8.6645,8.7518,0.0,0.0,0.0,9.0905,9.1762,9.2635,9.3937,9.5811,9.8642,9.9973,10.1402,10.3582,10.4087,10.4693,10.62,10.6397,10.6397,10.6397,10.6397,10.6397,10.6397,10.6397,10.6518,10.6715,10.7508,10.8411,10.9216,11.0006,11.0802,11.1513,11.1513,11.1513,11.1513,11.1513,11.1513,11.1513,11.1513,11.1513,11.1513,11.1513,11.1513,11.1513,11.1513,11.1513,11.1513,11.1513,11.1513,11.1513,11.1513,11.1513,11.1513,0.0,0.0,0.0,0.0,0.0,0.0,0.0,0.0,0.0,0.0,0.0,0.0,0.0,0.0,0.0,0.0,0.0,0.0,0.0,0.0,6.117,6.1981,6.2857,6.3314,6.3314,6.5013,6.59,6.59,6.671,6.7976,6.9627,7.0475,7.0898,7.0898,7.0898,7.0898,7.0898,7.0898,7.0898,7.0977,7.1863,0.0,0.0,0.0,0.0,0.0,0.0,0.0,0.0,0.0,0.0,0.0,0.0,0.0,8.6089,8.6089,8.6089,8.6089,8.6089,8.6089,8.6089,8.6089,8.6724,0.0,8.8428,0.0,0.0,9.0922,0.0,0.0,9.3467,9.6236,9.8788,9.9832,10.1402,10.279,10.382,10.4482,10.5405,10.6318,10.6397,10.6397,10.6397,10.6397,10.6397,10.6397,10.6397,10.6795,10.7588,10.8383,10.9204,11.0091,11.1,11.1395,11.1513,11.1513,11.1513,11.1513,11.1513,11.1513,11.1513,11.1513,11.1513,11.1513,11.1513,11.1513,11.1513,11.1513,11.1513,11.1513,11.1513,11.1513,11.1513,11.1513,11.1513,11.1513,0.0,0.0,0.0,0.0,0.0,0.0,0.0,0.0,0.0,0.0,0.0,0.0,0.0,0.0,0.0,0.0,0.0,0.0,0.0,0.0,6.175,6.2098,6.3398,6.4125,6.4125,6.5282,6.6133,6.6633,6.8055,6.9321,7.0435,7.0744,7.0898,7.0898,7.0898,7.0898,7.0898,7.0898,7.1208,7.1787,7.2666,7.3511,0.0,0.0,0.0,0.0,0.0,0.0,0.0,0.0,8.2635,8.3676,8.4247,8.5207,8.6089,8.6089,8.6089,8.6089,8.6089,8.6089,8.6247,8.6764,0.0,0.0,0.0,0.0,0.0,0.0,9.2277,0.0,0.0,9.725,9.9108,9.9978,10.1481,10.2886,10.381,10.4598,10.5405,10.6318,10.6397,10.6397,10.6397,10.6397,10.6397,10.6397,10.6397,10.6795,10.7708,10.8516,10.9297,11.0207,11.1,11.1513,11.1513,11.1513,11.1513,11.1513,11.1513,11.1513,11.1513,11.1513,11.1513,11.1513,11.1513,11.1513,11.1513,11.1513,11.1513,11.1513,11.1513,11.1513,11.1513,11.1513,11.1513,11.1513,0.0,0.0,0.0,0.0,0.0,0.0,0.0,0.0,0.0,0.0,0.0,0.0,0.0,0.0,0.0,0.0,0.0,0.0,6.117,6.1789,6.2327,6.2864,6.3974,6.4742,6.5013,6.5824,6.6556,6.7095,6.8859,7.0127,7.0898,7.0898,7.0898,7.0898,7.0898,7.0898,7.0938,7.1206,0.0,0.0,7.3434,7.4201,0.0,0.0,0.0,0.0,0.0,0.0,0.0,0.0,8.2866,8.3751,8.463,8.5435,8.6089,8.6089,8.6089,8.6089,8.6089,8.6089,8.6329,0.0,0.0,0.0,0.0,0.0,0.0,9.2198,9.3124,0.0,9.6655,9.826,9.9577,10.0687,10.2114,10.3307,10.419,10.501,10.5685,10.6318,10.6397,10.6397,10.6397,10.6397,10.6397,10.6397,10.6715,10.7193,10.7985,10.8915,10.9691,11.0602,11.1198,11.1513,11.1513,11.1513,11.1513,11.1513,11.1513,11.1513,11.1513,11.1513,11.1513,11.1513,11.1513,11.1513,11.1513,11.1513,11.1513,11.1513,11.1513,11.1513,11.1513,11.1513,11.1513,11.1513,0.0,0.0,0.0,0.0,0.0,0.0,0.0,0.0,0.0,0.0,0.0,0.0,0.0,0.0,0.0,0.0,0.0,0.0,6.2059,6.2098,6.2864,6.4549,6.4626,6.5014,6.59,6.6708,6.7135,6.7135,6.8859,7.0127,7.0898,7.0898,7.0898,7.0898,7.0898,7.0898,7.0975,7.1827,0.0,0.0,0.0,7.4701,0.0,0.0,0.0,0.0,0.0,0.0,0.0,0.0,8.2905,8.3751,8.463,8.5474,8.6089,8.6089,8.6089,8.6089,8.6089,8.6089,8.6329,8.72,0.0,0.0,8.9739,9.0573,9.1445,9.2354,9.4534,9.6838,9.8503,9.9526,10.0608,10.2313,10.3305,10.4216,10.4985,10.5882,10.6397,10.6397,10.6397,10.6397,10.6397,10.6397,10.6397,10.6397,10.7193,10.8103,10.8896,10.9708,11.0602,11.1513,11.1513,11.1513,11.1513,11.1513,11.1513,11.1513,11.1513,11.1513,11.1513,11.1513,11.1513,11.1513,11.1513,11.1513,11.1513,11.1513,11.1513,11.1513,11.1513,11.1513,11.1513,11.1513,11.1513,11.1513,0.0,0.0,0.0,0.0,0.0,0.0,0.0,0.0,0.0,0.0,0.0,0.0,0.0,0.0,0.0,0.0,0.0,0.0,6.2059,6.263,6.3432,6.4549,6.5206,6.59,6.6748,6.8169,6.8936,6.8936,7.0012,7.0667,7.0898,7.0898,7.0898,7.0898,0.0,0.0,0.0,0.0,0.0,0.0,7.4511,7.5436,0.0,0.0,0.0,0.0,0.0,0.0,0.0,0.0,0.0,0.0,8.5476,8.5897,8.6089,8.6089,8.6089,8.6089,8.6089,8.6089,8.6448,8.7954,8.8511,8.9065,0.0,9.1484,0.0,0.0,9.579,9.749,9.8606,9.9517,10.0608,10.2313,10.3282,10.4213,10.5016,10.5882,10.6397,10.6397,10.6397,10.6397,10.6397,10.6397,10.6397,10.6397,10.7193,10.8111,10.8907,10.9707,11.0602,11.1513,11.1513,11.1513,11.1513,11.1513,11.1513,11.1513,11.1513,11.1513,11.1513,11.1513,11.1513,11.1513,11.1513,11.1513,11.1513,11.1513,11.1513,11.1513,11.1513,11.1513,11.1513,11.1513,11.1513,11.1513,0.0,0.0,0.0,0.0,0.0,0.0,0.0,0.0,0.0,0.0,0.0,0.0,0.0,0.0,0.0,0.0,0.0,0.0,0.0,6.3357,6.4202,6.5091,6.5939,6.6939,6.8093,6.9166,6.9858,7.0166,7.0667,7.0898,7.0898,7.0898,7.0898,7.0938,0.0,7.171,0.0,0.0,0.0,7.4778,7.5434,7.6361,7.7367,0.0,0.0,0.0,0.0,0.0,0.0,0.0,0.0,0.0,8.5859,8.6089,8.6089,8.6089,8.6089,8.6089,8.6089,8.6089,8.6527,8.827,8.8707,8.9303,9.1644,9.2601,9.3466,9.5185,9.684,9.8276,9.9159,10.0291,10.1481,10.2908,10.381,10.4693,10.5487,10.6082,10.6397,10.6397,10.6397,10.6397,10.6397,10.6397,10.6397,10.6397,10.7508,10.8416,10.89,11.0089,11.1,11.1513,11.1513,11.1513,11.1513,11.1513,11.1513,11.1513,11.1513,11.1513,11.1513,11.1513,11.1513,11.1513,11.1513,11.1513,11.1513,11.1513,11.1513,11.1513,11.1513,11.1513,11.1513,11.1513,11.1513,11.1513,0.0,0.0,0.0,0.0,0.0,0.0,0.0,0.0,0.0,0.0,0.0,0.0,0.0,0.0,0.0,0.0,0.0,0.0,0.0,0.0,6.5011,6.5977,6.6864,6.8092,6.9666,6.9781,7.0166,7.0898,7.0898,7.0898,7.0898,7.0898,7.0937,7.1054,0.0,7.2287,7.2517,7.4051,7.478,7.5088,7.6672,7.7403,7.7673,7.9206,0.0,0.0,0.0,0.0,0.0,0.0,0.0,0.0,8.5859,8.6089,8.6089,8.6089,8.6089,8.6089,8.6089,8.6168,8.6602,8.8272,8.8868,8.9858,9.2992,9.3821,9.4418,9.6086,9.7665,9.9057,9.9949,10.1481,10.2903,10.3808,10.4597,10.5405,10.6318,10.6397,10.6397,10.6397,10.6397,10.6397,10.6397,10.6397,10.6397,10.6397,10.7985,10.8891,10.89,11.0602,11.1513,11.1513,11.1513,11.1513,11.1513,11.1513,11.1513,11.1513,11.1513,11.1513,11.1513,11.1513,11.1513,11.1513,11.1513,11.1513,11.1513,11.1513,11.1513,11.1513,11.1513,11.1513,11.1513,11.1513,11.1513,11.1513,0.0,0.0,0.0,0.0,0.0,0.0,0.0,0.0,0.0,0.0,0.0,0.0,0.0,0.0,0.0,0.0,0.0,0.0,0.0,0.0,6.5282,6.6787,6.8323,6.9319,6.9704,7.0321,7.0744,7.0898,7.0898,7.0898,0.0,0.0,0.0,7.194,0.0,7.2939,7.4203,7.4549,7.5474,7.6788,7.7134,7.8094,7.9281,7.9665,0.0,0.0,0.0,0.0,0.0,0.0,0.0,0.0,8.6053,8.6089,8.6089,8.6089,8.6089,8.6089,8.6089,8.6585,8.7363,8.8424,9.0214,9.204,9.3388,9.4772,9.6045,9.7037,9.8082,9.9086,9.9937,10.1481,10.2919,10.3788,10.4587,10.5405,10.6318,10.6397,10.6397,10.6397,10.6397,10.6397,10.6397,10.6397,10.6397,10.6397,10.7985,10.8891,10.89,11.0602,11.1513,11.1513,11.1513,11.1513,11.1513,11.1513,11.1513,11.1513,11.1513,11.1513,11.1513,11.1513,11.1513,11.1513,11.1513,11.1513,11.1513,11.1513,11.1513,11.1513,11.1513,11.1513,11.1513,11.1513,11.1513,11.1513,0.0,0.0,0.0,0.0,0.0,0.0,0.0,0.0,0.0,0.0,0.0,0.0,0.0,0.0,0.0,0.0,0.0,0.0,0.0,0.0,6.6553,6.8284,6.9206,6.9896,7.0283,7.0706,7.0898,7.0898,7.0898,0.0,0.0,0.0,0.0,7.225,0.0,7.3897,7.474,7.559,7.6478,7.7367,7.8171,7.9013,7.9896,8.0706,0.0,0.0,0.0,0.0,0.0,0.0,0.0,0.0,0.0,0.0,8.6089,8.6089,8.6089,8.6089,8.6089,8.675,8.7681,8.8957,9.089,9.2701,9.3523,9.5055,9.6666,9.7885,9.8822,9.9694,10.0488,10.2114,10.3388,10.3798,10.489,10.5882,10.6318,10.6397,10.6397,10.6397,10.6397,10.6397,10.6397,10.6397,10.6597,10.6992,10.8183,10.9091,10.9496,11.0802,11.1513,11.1513,11.1513,11.1513,11.1513,11.1513,11.1513,11.1513,11.1513,11.1513,11.1513,11.1513,11.1513,11.1513,11.1513,11.1513,11.1513,11.1513,11.1513,11.1513,11.1513,11.1513,11.1513,11.1513,11.1513,11.1513,0.0,0.0,0.0,0.0,0.0,0.0,0.0,0.0,0.0,0.0,0.0,0.0,0.0,0.0,0.0,0.0,0.0,0.0,0.0,0.0,0.0,6.9627,6.9819,7.0204,7.0898,7.0898,7.0898,7.0898,0.0,0.0,0.0,0.0,0.0,7.2479,0.0,7.4855,7.5243,7.667,7.7482,7.7865,7.9398,8.0127,0.0,0.0,0.0,0.0,0.0,0.0,0.0,0.0,0.0,0.0,0.0,0.0,8.6089,8.6089,8.6089,8.6128,8.6284,8.7072,8.8196,8.9724,9.1445,9.2884,9.3531,9.5253,9.7127,9.8524,9.9495,10.0408,10.1281,10.279,10.3903,10.4113,10.5405,10.6397,10.6397,10.6397,10.6397,10.6397,10.6397,10.6397,10.6397,10.6397,10.6795,10.7588,10.8403,10.9309,11.0212,11.1,11.1513,11.1513,11.1513,11.1513,11.1513,11.1513,11.1513,11.1513,11.1513,11.1513,11.1513,11.1513,11.1513,11.1513,11.1513,11.1513,11.1513,11.1513,11.1513,11.1513,11.1513,11.1513,11.1513,11.1513,11.1513,11.1513,0.0,0.0,0.0,0.0,0.0,0.0,0.0,0.0,0.0,0.0,0.0,0.0,0.0,0.0,0.0,0.0,0.0,0.0,6.6904,0.0,0.0,6.9704,7.036,7.0783,7.0898,7.0898,7.0898,7.0898,0.0,0.0,0.0,0.0,0.0,7.3355,0.0,0.0,7.698,7.7213,7.8132,7.955,8.0514,8.1323,0.0,0.0,0.0,0.0,0.0,0.0,0.0,0.0,8.6089,0.0,0.0,0.0,8.6089,8.6089,8.6089,8.6243,8.7017,8.8384,8.978,9.0787,9.2277,9.3558,9.369,9.6165,9.8516,9.8764,9.9495,10.0608,10.2114,10.3185,10.4101,10.479,10.5803,10.6397,10.6397,10.6397,10.6397,10.6397,10.6397,10.6397,10.6397,10.6397,10.6795,10.7588,10.8415,10.9309,11.0207,11.1,11.1513,11.1513,11.1513,11.1513,11.1513,11.1513,11.1513,11.1513,11.1513,11.1513,11.1513,11.1513,11.1513,11.1513,11.1513,11.1513,11.1513,11.1513,11.1513,11.1513,11.1513,11.1513,11.1513,11.1513,11.1513,11.1513,0.0,0.0,0.0,0.0,0.0,0.0,0.0,0.0,0.0,0.0,0.0,0.0,0.0,0.0,0.0,6.5899,6.6362,6.7132,6.8476,6.9706,7.036,7.036,7.0706,7.0898,7.0898,7.0898,7.0898,0.0,0.0,0.0,0.0,7.317,7.382,0.0,0.0,0.0,0.0,0.0,0.0,0.0,0.0,0.0,0.0,0.0,0.0,0.0,0.0,0.0,0.0,0.0,0.0,8.6089,8.6089,0.0,0.0,0.0,8.6089,8.6391,8.775,8.8991,9.0128,9.0977,9.2476,9.3717,9.369,9.6362,9.8792,9.8803,9.9853,10.1084,10.2393,10.3294,10.4192,10.5016,10.5803,10.6397,10.6397,10.6397,10.6397,10.6397,10.6397,10.6397,10.6397,10.6397,10.6913,10.8301,10.8718,10.9493,11.0882,11.1316,11.1513,11.1513,11.1513,11.1513,11.1513,11.1513,11.1513,11.1513,11.1513,11.1513,11.1513,11.1513,11.1513,11.1513,11.1513,11.1513,11.1513,11.1513,11.1513,11.1513,11.1513,11.1513,11.1513,11.1513,11.1513,11.1513,0.0,0.0,0.0,0.0,0.0,0.0,0.0,0.0,0.0,0.0,0.0,0.0,0.0,0.0,0.0,0.0,6.7632,6.8399,6.9898,7.0552,7.0898,7.0898,7.0898,7.0898,7.0898,7.0898,0.0,0.0,0.0,0.0,7.2864,7.4359,7.5165,0.0,7.6711,0.0,0.0,0.0,0.0,0.0,0.0,0.0,0.0,0.0,0.0,0.0,0.0,0.0,0.0,0.0,0.0,0.0,8.6089,8.6089,0.0,0.0,0.0,8.7085,8.8594,8.9591,9.0453,9.1325,9.2635,9.3757,9.3968,9.6482,9.8792,9.8803,10.0091,10.1599,10.2708,10.3495,10.4216,10.5287,10.6003,10.6397,10.6397,10.6397,10.6397,10.6397,10.6397,10.6397,10.6397,10.6397,10.7113,10.8816,10.8918,10.9691,11.1395,11.1513,11.1513,11.1513,11.1513,11.1513,11.1513,11.1513,11.1513,11.1513,11.1513,11.1513,11.1513,11.1513,11.1513,11.1513,11.1513,11.1513,11.1513,11.1513,11.1513,11.1513,11.1513,11.1513,11.1513,11.1513,11.1513,11.1513,0.0,0.0,0.0,0.0,0.0,0.0,0.0,0.0,0.0,0.0,0.0,0.0,0.0,6.6518,6.7322,6.8237,6.9087,6.9935,7.0783,7.0898,7.0898,7.0898,7.0898,0.0,7.0898,7.0898,0.0,0.0,0.0,0.0,7.4586,7.5513,7.6363,7.7174,7.7251,7.8169,7.9742,0.0,0.0,0.0,0.0,0.0,0.0,0.0,0.0,0.0,0.0,0.0,0.0,0.0,0.0,0.0,0.0,0.0,8.6089,0.0,0.0,0.0,8.9624,9.0456,9.1325,9.2198,9.3071,9.3916,9.4722,9.6958,9.8792,9.8803,10.0091,10.1796,10.3502,10.3892,10.4413,10.6082,10.6397,10.6397,10.6397,10.6397,10.6397,10.6397,10.6397,10.6397,10.6397,10.6397,10.7113,10.8816,10.8918,10.9691,11.1395,11.1513,11.1513,11.1513,11.1513,11.1513,11.1513,11.1513,11.1513,11.1513,11.1513,11.1513,11.1513,11.1513,11.1513,11.1513,11.1513,11.1513,11.1513,11.1513,11.1513,11.1513,11.1513,11.1513,11.1513,11.1513,11.1513,11.1513,0.0,0.0,0.0,0.0,0.0,0.0,0.0,0.0,0.0,0.0,0.0,0.0,0.0,6.7436,6.8279,6.9164,6.9973,7.0591,7.0898,7.0898,7.0898,7.0898,7.0898,7.1169,7.171,7.1748,0.0,0.0,0.0,7.4397,7.5551,7.644,7.7555,7.8898,7.8898,7.9552,8.0706,8.1516,0.0,0.0,0.0,0.0,0.0,0.0,0.0,0.0,0.0,0.0,0.0,0.0,0.0,0.0,0.0,0.0,0.0,0.0,8.7788,8.8872,8.969,9.0526,9.1404,9.2277,9.3099,9.3912,9.4785,9.6958,9.8792,9.8803,10.0091,10.1796,10.3582,10.3892,10.4413,10.6082,10.6397,10.6397,10.6397,10.6397,10.6397,10.6397,10.6397,10.6397,10.6397,10.6397,10.6913,10.7985,10.86,10.9411,11.0602,11.1198,11.1513,11.1513,11.1513,11.1513,11.1513,11.1513,11.1513,11.1513,11.1513,11.1513,11.1513,11.1513,11.1513,11.1513,11.1513,11.1513,11.1513,11.1513,11.1513,11.1513,11.1513,11.1513,11.1513,11.1513,11.1513,11.1513,0.0,0.0,0.0,0.0,0.0,0.0,0.0,0.0,0.0,0.0,0.0,0.0,0.0,0.0,6.9164,7.0012,7.0591,7.0898,7.0898,7.0898,7.1014,7.1323,7.1323,7.1746,7.2629,7.2365,0.0,0.0,0.0,0.0,0.0,0.0,7.8744,7.9819,8.0398,0.0,0.0,0.0,0.0,8.4935,0.0,0.0,8.6089,0.0,0.0,0.0,0.0,0.0,0.0,0.0,0.0,0.0,0.0,0.0,0.0,0.0,0.0,8.9293,9.0099,9.0748,9.1484,9.2635,9.3308,9.3983,9.5174,9.7196,9.8792,9.8803,10.0091,10.1796,10.3582,10.3892,10.4413,10.6082,10.6397,10.6397,10.6397,10.6397,10.6397,10.6397,10.6397,10.6397,10.6397,10.6397,10.6795,10.7588,10.8395,10.9292,11.0207,11.1,11.1513,11.1513,11.1513,11.1513,11.1513,11.1513,11.1513,11.1513,11.1513,11.1513,11.1513,11.1513,11.1513,11.1513,11.1513,11.1513,11.1513,11.1513,11.1714,11.1912,11.1912,11.2109,11.2307,11.1991,11.1912,11.1912,0.0,0.0,0.0,0.0,0.0,0.0,0.0,0.0,0.0,0.0,0.0,0.0,0.0,0.0,0.0,7.0821,7.0938,7.0937,7.0937,7.0975,7.1362,7.2211,7.225,7.2631,7.3507,7.2708,7.3093,0.0,0.0,0.0,0.0,0.0,7.9819,0.0,8.1593,8.2364,8.2477,0.0,8.4897,8.501,0.0,8.6089,8.6089,0.0,0.0,0.0,8.6089,8.6089,0.0,0.0,0.0,0.0,0.0,0.0,0.0,0.0,0.0,0.0,0.0,0.0,0.0,9.327,9.3706,9.4142,9.5887,9.7592,9.8792,9.8803,10.0091,10.1796,10.3502,10.3892,10.4413,10.6082,10.6397,10.6397,10.6397,10.6397,10.6397,10.6397,10.6397,10.6397,10.6397,10.6397,10.6795,10.7588,10.8383,10.9288,11.0091,11.1,11.1513,11.1513,11.1513,11.1513,11.1513,11.1513,11.1513,11.1513,11.1513,11.1513,11.1513,11.1513,11.1513,11.1513,11.1513,11.1513,11.1513,11.1513,11.1991,11.2705,11.2703,11.3216,11.3812,11.3018,11.2703,11.2587,0.0,0.0,0.0,0.0,0.0,0.0,0.0,0.0,0.0,0.0,0.0,0.0,0.0,0.0,7.0667,7.0898,7.1477,7.1827,7.1827,7.2435,7.2893,7.3126,7.3126,7.3549,7.4355,7.4126,7.4861,7.6594,0.0,0.0,0.0,0.0,0.0,0.0,8.2751,8.3595,8.4205,8.4705,0.0,0.0,8.6012,8.6089,0.0,0.0,0.0,0.0,0.0,8.6089,0.0,0.0,8.6089,8.6205,0.0,0.0,0.0,0.0,0.0,0.0,9.0975,0.0,0.0,0.0,0.0,0.0,9.5887,9.7592,9.8792,9.8803,10.0091,10.1599,10.279,10.3495,10.4216,10.5287,10.6003,10.6397,10.6397,10.6397,10.6397,10.6397,10.6397,10.6397,10.6397,10.6397,10.6518,10.6715,10.8103,10.9009,10.9219,11.0682,11.1513,11.1513,11.1513,11.1513,11.1513,11.1513,11.1513,11.1513,11.1513,11.1513,11.1513,11.1513,11.1513,11.1513,11.1513,11.1513,11.1513,11.1513,11.1596,11.1904,11.2508,11.2484,11.2206,11.2602,11.2291,11.1793,0.0,0.0,0.0,0.0,0.0,0.0,0.0,0.0,0.0,0.0,0.0,0.0,0.0,0.0,0.0,7.144,7.2246,7.2745,7.2745,7.3203,7.3663,7.4009,7.4009,7.4549,7.5745,7.5436,7.6092,7.779,0.0,0.0,0.0,0.0,0.0,0.0,0.0,0.0,0.0,0.0,0.0,0.0,8.6089,0.0,0.0,8.6089,8.6089,0.0,0.0,0.0,8.6632,8.6632,8.6863,0.0,0.0,0.0,0.0,0.0,0.0,0.0,0.0,0.0,0.0,0.0,0.0,0.0,9.6324,9.783,9.891,9.9279,10.0408,10.1599,10.2393,10.3294,10.419,10.5016,10.5803,10.6397,10.6397,10.6397,10.6397,10.6397,10.6397,10.6397,10.6397,10.6397,10.6397,10.6397,10.7588,10.8693,10.9416,11.0802,11.1513,11.1513,11.1513,11.1513,11.1513,11.1513,11.1513,11.1513,11.1513,11.1513,11.1513,11.1513,11.1513,11.1513,11.1513,11.1513,11.1513,11.1513,11.1714,11.1986,11.2486,11.2599,11.2607,11.2687,11.2418,11.1991,0.0,0.0,0.0,0.0,0.0,0.0,0.0,0.0,0.0,0.0,0.0,0.0,0.0,0.0,0.0,0.0,7.3205,7.3778,7.3778,7.3932,7.4355,7.5088,7.5126,7.5859,7.7405,7.667,7.7055,7.8636,0.0,0.0,0.0,0.0,0.0,0.0,0.0,0.0,0.0,0.0,0.0,8.6089,8.6089,8.6089,0.0,0.0,8.6168,0.0,8.6245,8.6786,8.7557,8.7557,8.8135,0.0,0.0,0.0,0.0,0.0,9.0588,0.0,0.0,0.0,0.0,0.0,0.0,0.0,9.6958,9.8179,9.9055,9.9913,10.0687,10.1481,10.2313,10.3185,10.4101,10.4908,10.5803,10.6397,10.6397,10.6397,10.6397,10.6397,10.6397,10.6397,10.6397,10.6397,10.6397,10.6397,10.7311,10.8495,11.0012,11.1,11.1513,11.1513,11.1395,11.1395,11.1513,11.1395,11.1395,11.1513,11.1513,11.1513,11.1513,11.1513,11.1513,11.1513,11.1513,11.1513,11.1513,11.1513,11.1912,11.2587,11.2705,11.3091,11.3582,11.2991,11.2587,11.2508,0.0,0.0,0.0,0.0,0.0,0.0,0.0,0.0,0.0,0.0,0.0,0.0,0.0,0.0,0.0,0.0,7.4628,7.5513,7.5513,7.6788,7.7596,7.7751,7.7751,7.7905,7.8253,7.8098,7.8517,7.9552,0.0,0.0,0.0,0.0,0.0,0.0,0.0,0.0,0.0,0.0,0.0,8.6089,8.6089,0.0,8.6089,8.6089,8.6553,8.7134,8.7134,8.7711,8.8447,0.0,8.8979,8.9667,0.0,0.0,0.0,0.0,0.0,0.0,0.0,0.0,0.0,0.0,0.0,0.0,9.7078,9.8161,9.9046,9.9935,10.0687,10.1402,10.1481,10.279,10.3983,10.4113,10.5405,10.6397,10.6397,10.6397,10.6397,10.6397,10.6397,10.6397,10.6397,10.6397,10.6397,10.6397,10.7788,10.8811,10.9219,11.0682,11.1513,11.1513,11.0802,11.0802,11.1513,11.0802,11.0802,11.1513,11.1513,11.1513,11.1513,11.1513,11.1513,11.1513,11.1513,11.1513,11.1513,11.1513,11.1596,11.1793,11.2389,11.2417,11.2005,11.2499,11.2307,11.1714,0.0,0.0,0.0,0.0,0.0,0.0,0.0,0.0,0.0,0.0,0.0,0.0,0.0,0.0,0.0,0.0,0.0,7.7249,7.7249,7.8021,7.8484,7.8484,7.82,7.8414,7.9127,7.9266,7.9876,8.1052,0.0,0.0,0.0,0.0,0.0,0.0,0.0,0.0,0.0,0.0,8.6361,8.6709,8.6282,0.0,8.6748,8.6748,8.7288,8.806,8.806,8.8596,8.9363,8.9787,9.0208,0.0,0.0,9.1169,9.1864,0.0,9.211,9.2438,0.0,0.0,0.0,9.4156,0.0,0.0,0.0,9.8502,9.9178,10.0408,10.1005,10.1281,10.1281,10.2393,10.3388,10.3798,10.489,10.5882,10.6318,10.6397,10.6397,10.6397,10.6397,10.6397,10.6397,10.6397,10.62,10.5803,10.7016,10.7898,10.8287,10.9611,11.0404,11.0802,11.0404,11.0215,11.0204,10.9792,11.0006,11.0882,11.0882,11.1118,11.1513,11.1513,11.1513,11.1513,11.1513,11.1513,11.1513,11.1513,11.1513,11.1513,11.1912,11.1912,11.1513,11.1991,11.1793,11.1513,0.0,0.0,0.0,0.0,0.0,0.0,0.0,0.0,0.0,7.2325,0.0,0.0,0.0,0.0,0.0,0.0,0.0,7.8704,0.0,7.9023,7.9127,7.9277,7.8839,7.9069,8.0123,8.0321,8.1058,8.2349,0.0,0.0,0.0,0.0,0.0,0.0,0.0,0.0,0.0,0.0,0.0,8.7365,0.0,8.7017,8.7634,8.7634,8.8173,8.8983,8.9291,8.9863,9.0511,9.14,0.0,9.1669,9.1669,9.2172,0.0,0.0,0.0,0.0,0.0,0.0,0.0,0.0,0.0,9.6045,0.0,0.0,0.0,10.1005,10.1281,10.1281,10.1281,10.1996,10.2681,10.3109,10.4311,10.5208,10.5605,10.6082,10.6397,10.6397,10.6397,10.6397,10.6397,10.6397,10.6003,10.501,10.59,10.67,10.7419,10.8391,10.9411,11.0207,10.9993,10.9609,10.8909,10.8706,10.9207,11.0213,11.0189,11.0682,11.1513,11.1513,11.1513,11.1513,11.1513,11.1513,11.1513,11.1513,11.1513,11.1513,11.1513,11.1513,11.1513,11.1513,11.1513,11.1513,0.0,0.0,0.0,0.0,0.0,0.0,0.0,0.0,0.0,7.324,7.4047,0.0,0.0,0.0,0.0,0.0,0.0,0.0,8.0723,0.0,8.1394,8.21,8.2082,8.1843,8.14,8.1434,8.179,8.2561,8.2754,8.3194,0.0,0.0,0.0,0.0,8.5794,0.0,0.0,0.0,8.7325,0.0,8.8137,8.8447,0.0,8.8562,8.9056,8.9972,9.1518,9.2133,9.2326,0.0,9.3407,9.3407,0.0,9.3482,0.0,0.0,0.0,0.0,0.0,0.0,0.0,0.0,9.6125,0.0,0.0,0.0,10.0211,10.1084,0.0,10.1281,10.1281,0.0,0.0,10.0791,10.3088,10.4613,10.3183,10.501,10.6397,10.6397,10.6397,10.6397,10.6397,10.6397,10.5803,10.4295,10.5496,10.6512,10.6582,10.8105,10.9411,11.0207,10.95,10.9011,10.8914,10.8096,10.859,11.0197,11.0187,11.0682,11.1513,11.1513,11.1513,11.1513,11.1513,11.1513,11.1513,11.1513,11.1513,11.1513,11.1513,11.1513,11.1513,11.1513,11.1513,11.1513,0.0,0.0,0.0,0.0,0.0,0.0,0.0,0.0,7.4553,7.4897,7.6092,0.0,0.0,0.0,0.0,0.0,0.0,0.0,0.0,0.0,0.0,8.2571,8.1899,8.154,8.1588,8.1763,8.2134,8.2773,8.3359,8.3792,8.4092,0.0,0.0,0.0,8.5929,0.0,8.6901,0.0,8.8404,0.0,0.0,0.0,0.0,9.0327,9.0979,9.221,9.2941,9.3213,9.3253,0.0,9.3715,0.0,0.0,0.0,0.0,0.0,0.0,0.0,0.0,0.0,0.0,0.0,0.0,0.0,9.938,0.0,10.0291,0.0,0.0,0.0,0.0,0.0,0.0,0.0,10.3211,10.4306,10.4085,10.5405,10.6397,10.6397,10.6397,10.62,10.5685,10.6082,10.5487,10.3383,10.4312,10.4996,10.4996,10.6206,10.7189,10.7984,10.812,10.7915,10.7505,10.709,10.7505,10.8719,10.9183,10.9888,11.0802,11.1316,11.1513,11.1513,11.1513,11.1513,11.1513,11.1513,11.1513,11.1513,11.1513,11.1513,11.1513,11.1513,11.1513,11.1513,0.0,0.0,0.0,0.0,0.0,0.0,0.0,0.0,0.0,0.0,0.0,0.0,7.8923,8.0252,0.0,0.0,0.0,8.2003,0.0,0.0,8.2013,0.0,0.0,0.0,0.0,8.1951,8.2355,8.2984,8.3413,8.3767,8.3915,0.0,0.0,0.0,0.0,8.6983,8.7522,0.0,8.9515,9.028,9.0513,9.1785,9.3403,9.2326,9.2633,9.3753,9.4251,9.4405,9.4482,9.4946,9.5098,0.0,9.5098,0.0,0.0,0.0,0.0,0.0,9.8798,0.0,0.0,0.0,0.0,0.0,0.0,0.0,0.0,0.0,0.0,0.0,0.0,0.0,0.0,0.0,0.0,10.3913,10.4016,10.5405,10.6397,10.6397,10.6397,10.62,10.5605,10.6101,10.5583,10.3495,10.3788,10.4085,10.429,10.4905,10.5615,10.6383,10.7195,10.7211,10.6386,10.6386,10.6796,10.7589,10.8489,10.9388,11.0207,11.1118,11.1513,11.1513,11.1513,11.1513,11.1513,11.1513,11.1513,11.1513,11.1513,11.1513,11.1513,11.1513,11.1513,11.1513,0.0,7.3432,0.0,0.0,0.0,0.0,0.0,0.0,0.0,0.0,0.0,0.0,0.0,0.0,0.0,0.0,0.0,8.1363,8.2752,0.0,8.2352,0.0,0.0,0.0,0.0,0.0,8.2501,8.3198,8.2569,8.2589,8.3236,8.4034,8.4407,0.0,8.6612,8.7556,8.7685,8.9238,9.0357,9.1246,9.2095,9.3941,9.5978,0.0,9.3638,9.3907,9.5593,0.0,0.0,9.8098,9.8639,0.0,0.0,0.0,0.0,0.0,0.0,0.0,0.0,0.0,0.0,9.88,0.0,0.0,0.0,0.0,10.1281,0.0,0.0,0.0,0.0,0.0,0.0,0.0,0.0,0.0,0.0,10.4295,10.6397,10.6397,10.6397,10.6397,10.6397,10.6396,10.6019,10.5207,10.4396,10.429,10.5117,10.52,10.5583,10.6407,10.7206,10.7211,10.6386,10.6386,10.6796,10.7589,10.8482,10.9387,11.0207,11.1118,11.1513,11.1513,11.1513,11.1513,11.1513,11.1513,11.1513,11.1513,11.1513,11.1513,11.1513,11.1513,11.1513,11.1513,0.0,0.0,0.0,0.0,0.0,0.0,0.0,7.84,0.0,0.0,0.0,0.0,0.0,0.0,8.2475,0.0,0.0,8.2323,8.2318,8.2186,0.0,0.0,0.0,8.2418,0.0,0.0,0.0,0.0,0.0,8.3535,8.336,8.4595,8.5172,8.5231,8.6561,8.7937,0.0,0.0,0.0,0.0,0.0,9.5576,9.6314,0.0,0.0,9.7136,9.7752,9.7944,0.0,9.8598,9.8793,9.8793,9.8793,9.9216,9.9642,9.9642,9.9981,0.0,0.0,0.0,10.0512,10.0493,0.0,0.0,0.0,0.0,0.0,0.0,0.0,0.0,0.0,0.0,0.0,0.0,0.0,0.0,0.0,10.4098,10.481,10.481,10.5803,10.62,10.5685,10.5597,10.5002,10.3603,10.3297,10.2985,10.2787,10.3296,10.3888,10.4693,10.551,10.6093,10.6386,10.6386,10.6507,10.6796,10.7589,10.8497,10.9411,11.0207,11.1,11.1513,11.1513,11.1513,11.1513,11.1513,11.1513,11.1513,11.1513,11.1513,11.1513,11.1513,11.1513,11.1513,7.8484,0.0,0.0,0.0,0.0,0.0,0.0,0.0,0.0,0.0,8.2159,0.0,8.2369,0.0,8.2997,0.0,8.2204,8.2742,8.2508,8.2312,0.0,8.3635,8.2996,0.0,0.0,0.0,0.0,0.0,0.0,8.4255,8.3842,8.5095,8.5821,8.6166,8.7274,8.8671,9.0326,9.1722,9.3046,0.0,0.0,9.6797,0.0,0.0,9.7303,9.8035,0.0,9.8596,9.8887,9.9196,9.9478,9.975,10.0099,10.0483,10.0983,10.1411,10.1794,10.2214,10.2214,10.2186,0.0,10.2193,10.2193,0.0,10.2193,0.0,0.0,0.0,0.0,0.0,0.0,0.0,0.0,0.0,0.0,0.0,0.0,10.4012,10.4012,10.4012,10.5183,10.5685,10.489,10.501,10.4595,10.329,10.2888,10.2515,10.1993,10.2381,10.3086,10.3918,10.4714,10.551,10.6386,10.6386,10.6386,10.6386,10.7211,10.7893,10.8499,10.9298,11.0006,11.0602,11.0882,11.1,11.1118,11.1395,11.1513,11.1513,11.1513,11.1513,11.1513,11.1513,11.1513,11.1513,0.0,0.0,0.0,0.0,7.8677,0.0,0.0,0.0,8.0808,0.0,8.2808,8.2651,8.2032,8.2728,8.2995,8.2304,8.23,0.0,8.3422,8.2737,0.0,0.0,8.3862,8.383,8.4572,0.0,0.0,0.0,0.0,8.4678,8.4751,8.5531,8.6338,8.7168,8.8648,8.9796,9.0777,9.2951,9.4419,9.5444,9.7022,9.7716,9.7785,9.7823,9.7334,9.6737,9.7593,9.8396,9.9222,10.0106,10.0809,10.1592,10.2402,10.2712,10.2789,10.3717,10.3917,10.3886,10.3886,10.3911,10.3894,10.3899,0.0,0.0,0.0,0.0,10.3695,0.0,0.0,0.0,0.0,0.0,0.0,0.0,0.0,0.0,0.0,10.3913,10.3913,10.3913,10.461,10.4811,10.4088,10.4712,10.4796,10.4012,10.3086,10.259,10.259,10.259,10.3003,10.3792,10.4614,10.551,10.6297,10.6386,10.6386,10.6386,10.7211,10.7589,10.761,10.8493,10.8881,10.8881,10.9795,11.018,11.0286,11.1118,11.1513,11.1513,11.1513,11.1513,11.1513,11.1513,11.1513,11.1513,8.2291,8.2291,8.2291,0.0,8.125,8.1018,0.0,0.0,0.0,0.0,8.3195,8.2887,8.2854,8.3588,8.3826,8.3133,8.365,0.0,0.0,0.0,0.0,8.4572,8.4384,8.4384,8.4605,8.4605,0.0,8.4605,0.0,0.0,8.6399,8.7215,8.8018,8.8789,8.9209,9.0477,9.2411,9.299,9.4699,9.7151,9.8155,9.864,9.8813,0.0,9.913,9.8607,9.9957,10.0989,10.18,10.2706,10.3104,10.3292,10.3484,10.3599,10.3599,10.3792,10.3917,10.3886,10.3886,10.3886,10.3896,10.389,10.3899,10.3918,0.0,0.0,0.0,0.0,0.0,0.0,0.0,0.0,0.0,0.0,0.0,0.0,0.0,0.0,10.2094,10.2094,10.2918,10.3515,10.4012,10.4185,10.4016,10.3088,10.2297,10.1801,10.1801,10.1801,10.2214,10.3003,10.3787,10.4593,10.5385,10.6093,10.6386,10.6386,10.6591,10.7006,10.7589,10.7804,10.8317,10.8894,10.9095,10.9608,11.0207,11.0404,11.0882,11.1513,11.1513,11.1513,11.1513,11.1513,11.1513,11.1513,8.3599,0.0,0.0,8.4095,0.0,0.0,8.3605,0.0,0.0,8.4013,8.353,0.0,8.3752,8.4213,8.4354,8.3945,8.4348,0.0,0.0,0.0,0.0,8.5632,8.5632,8.5816,8.6183,8.6513,0.0,8.6688,0.0,0.0,8.8042,8.8523,8.9335,9.0436,9.0436,9.1626,9.3658,9.4648,9.6352,9.8373,9.919,9.9349,0.0,9.9612,9.9711,9.9795,10.1015,10.1516,10.1688,10.2203,10.2496,10.2888,10.3311,10.3582,10.3993,10.4418,10.4718,10.4992,10.4992,10.4987,10.4987,10.5012,10.4704,10.4489,10.4508,10.4216,10.3701,0.0,0.0,0.0,0.0,0.0,0.0,0.0,0.0,0.0,0.0,0.0,0.0,10.1509,10.2214,10.2811,10.2904,10.3204,10.3086,10.2214,10.1801,10.1509,10.1509,10.1509,10.1885,10.271,10.3512,10.429,10.5096,10.6009,10.6386,10.6386,10.6386,10.6591,10.709,10.709,10.7295,10.7794,10.8209,10.8596,10.911,10.989,11.0484,11.1,11.1395,11.1513,11.1513,11.1513,11.1513,11.1513,0.0,0.0,0.0,0.0,0.0,0.0,0.0,8.3581,0.0,8.4443,0.0,8.383,8.4531,8.4682,8.4792,8.4903,0.0,8.5416,8.6228,8.5632,8.5848,8.7239,8.7312,8.7647,8.8349,8.9037,0.0,0.0,0.0,0.0,8.9877,8.9877,9.0693,9.2138,9.2138,9.3056,9.4769,9.7003,9.8411,9.9159,9.9977,9.9885,9.9282,9.936,9.9842,10.0512,10.1212,10.1102,10.0583,10.0703,10.1205,10.1905,10.2603,10.3383,10.4083,10.4817,10.5495,10.6118,10.6095,10.6082,10.6082,10.6082,10.5605,10.5012,10.4989,10.4517,10.3799,10.2884,10.3314,10.3416,0.0,0.0,0.0,0.0,0.0,0.0,0.0,0.0,0.0,0.0,10.2094,0.0,10.1593,10.2214,10.2381,10.1593,10.1509,10.1509,10.1509,10.1509,10.1801,10.2506,10.3416,10.4207,10.4892,10.5883,10.6386,10.6386,10.6386,10.6386,10.6386,10.6386,10.6386,10.6386,10.709,10.7505,10.7687,10.9193,11.0005,11.0286,11.1,11.1395,11.1513,11.1513,11.1513,11.1513,0.0,0.0,0.0,0.0,0.0,8.678,8.6201,8.5001,8.4429,8.5264,8.4805,8.4458,8.4572,8.52,8.5861,8.6509,8.7178,0.0,0.0,0.0,0.0,8.8959,8.8996,8.9033,8.9184,8.9326,8.973,0.0,0.0,0.0,9.2459,9.2459,9.2978,9.3868,9.3868,9.4745,9.6401,9.8112,9.8956,9.9182,9.9965,10.0184,10.0214,10.0801,10.1215,10.1309,10.1414,10.18,10.241,10.3117,10.3401,10.3595,10.3708,10.389,10.3997,10.4194,10.4309,10.4405,10.4407,10.4413,10.4413,10.4413,10.4295,10.4188,10.4185,10.4086,10.3799,10.2894,10.282,10.2799,10.2506,0.0,0.0,0.0,0.0,0.0,0.0,0.0,0.0,0.0,0.0,10.1713,10.1509,10.2214,10.2381,10.1593,10.1509,10.1509,10.1509,10.1509,10.1593,10.1713,10.3086,10.3998,0.0,0.0,10.6386,10.6386,10.6386,10.6386,10.6386,10.6386,10.6386,10.6386,10.6507,10.7006,10.7605,10.7891,10.8893,11.0207,11.0404,11.0882,11.1513,11.1513,11.1513,11.1513,0.0,0.0,0.0,0.0,0.0,0.0,0.0,8.6437,0.0,8.5702,8.5782,8.5999,8.6407,8.7178,8.783,8.8193,8.8601,8.9147,8.9955,9.0028,9.0212,9.062,9.1097,0.0,9.1317,9.1721,9.2129,9.2501,0.0,0.0,0.0,9.3712,9.4377,9.5589,9.6428,9.7236,9.8002,9.9213,0.0,9.98,10.0618,10.0912,10.0995,10.1404,10.1509,10.1509,10.1509,10.1717,10.2101,10.2617,10.2695,10.2695,10.2695,10.2989,10.3285,10.3285,10.3593,10.4012,10.3995,10.3994,10.4003,10.3988,10.3696,10.3307,10.3305,10.3003,10.259,10.2214,10.2094,10.2094,10.2094,10.2381,0.0,0.0,0.0,0.0,0.0,0.0,0.0,0.0,0.0,0.0,10.1509,10.1885,10.1885,10.1509,10.1509,10.1509,10.1509,10.1509,10.1509,10.1509,10.3086,10.3914,10.3892,0.0,10.6386,10.6386,10.6386,10.6386,10.6386,10.6386,10.6386,10.6386,10.6386,10.6591,10.7006,10.7384,10.8611,11.0218,11.0192,11.0682,11.1513,11.1513,11.1513,11.1513,0.0,8.7252,0.0,0.0,8.7214,0.0,8.834,8.8088,8.7468,8.6664,8.7133,8.783,8.861,8.9294,8.9803,9.017,9.0207,9.0542,9.1322,9.1395,9.1657,9.2285,9.2978,9.334,9.334,9.3974,9.4377,0.0,0.0,0.0,0.0,9.5075,9.5988,9.7273,9.8699,9.9355,0.0,0.0,10.0586,10.0618,10.121,10.1509,10.1509,10.1509,10.1509,10.1509,10.1509,10.1509,10.1509,10.1509,10.1509,10.1509,10.1509,10.1881,10.2397,10.2397,10.2892,10.3505,10.3486,10.3496,10.3517,10.3502,10.3003,10.2381,10.2381,10.2005,10.1509,10.1509,10.1509,10.1509,10.1509,10.1509,0.0,0.0,0.0,0.0,0.0,0.0,0.0,0.0,0.0,0.0,10.1509,10.1509,10.1509,10.1509,10.1509,10.1509,10.1509,10.1509,10.1509,10.1509,10.3086,10.3914,10.3892,0.0,10.6386,10.6386,10.6386,10.6386,10.6386,10.6386,10.6386,10.6386,10.6386,10.6386,10.6386,10.709,10.8293,10.9602,10.96,11.0207,11.0882,11.0882,11.0882,11.1,0.0,0.0,0.0,0.0,0.0,0.0,9.0254,9.0276,8.9959,8.9184,8.9143,8.9473,9.0289,9.0436,9.1097,9.2606,9.2749,9.3088,9.39,9.3937,9.3974,9.4052,9.4157,9.4199,9.4199,9.4267,9.4666,0.0,0.0,0.0,0.0,0.0,9.8731,9.8915,0.0,0.0,0.0,10.0985,10.1399,10.1399,10.1509,10.1509,10.1509,10.1509,10.1509,10.1509,10.1509,10.1509,10.1509,10.1509,10.1509,10.1509,10.1509,10.1616,10.1617,10.1617,10.1692,10.1709,10.1687,10.1716,10.1685,10.1684,10.1713,10.1593,10.1593,10.1593,10.1509,10.1509,10.1509,10.1509,10.1509,10.1509,10.1509,0.0,0.0,0.0,0.0,0.0,0.0,0.0,0.0,0.0,10.1509,10.1509,10.1509,10.1509,10.1509,10.1509,10.1509,10.1509,10.1509,10.1509,10.3086,10.3914,10.3892,10.5594,10.6386,10.6386,10.6386,10.6386,10.6386,10.6386,10.6386,10.6386,10.6386,10.6386,10.6386,10.6507,10.7006,10.7788,10.7799,10.8382,10.9095,10.9095,10.9095,10.9293,0.0,0.0,0.0,0.0,0.0,0.0,0.0,9.1739,9.2166,9.2313,9.1904,9.1758,9.2056,9.2537,9.3088,9.3749,9.3827,9.4153,9.4955,9.5474,9.5956,9.6438,9.6906,9.7194,9.7194,9.7194,9.7341,0.0,0.0,0.0,0.0,0.0,0.0,0.0,0.0,10.0985,10.0985,10.1404,10.1509,10.1509,10.1509,10.1509,10.1509,10.1509,10.1509,10.1509,10.1509,10.1509,10.1509,10.1509,10.1509,10.1509,10.1509,10.1509,10.1509,10.1509,10.1509,10.1509,10.1509,10.1509,10.1509,10.1509,10.1509,10.1509,10.1509,10.1509,10.1509,10.1509,10.1509,10.1509,10.1509,10.1509,10.1509,0.0,0.0,0.0,0.0,0.0,0.0,0.0,0.0,0.0,10.1509,10.1509,10.1509,10.1509,10.1509,10.1509,10.1509,0.0,0.0,10.1509,10.3086,10.3914,10.3892,10.5594,10.6386,10.6386,10.6386,10.6386,10.6386,10.6386,10.6386,10.6386,10.6386,10.6386,10.6386,10.6386,10.6885,10.7604,10.7605,10.8116,10.8889,10.8889,10.8889,10.8889,9.044,0.0,9.0637,0.0,9.1487,9.1872,9.2469,9.3272,9.4074,9.4891,9.4703,9.4336,9.3854,9.452,9.5112,9.5332,9.5552,9.5951,9.6524,9.7084,9.7676,9.8232,9.8809,0.0,9.9098,9.9098,9.9098,9.9098,9.9355,0.0,0.0,0.0,0.0,0.0,10.1205,10.1509,10.1509,10.1509,10.1509,10.1509,10.1509,10.1509,10.1509,10.1509,10.1609,10.1908,10.1908,10.2018,10.2201,10.2201,10.2201,10.2091,10.1609,10.1509,10.1509,10.1509,10.1509,10.1509,10.1509,10.1509,10.1509,10.1509,10.1509,10.1509,10.1509,10.1509,10.1509,10.1509,10.1509,10.1509,10.1509,10.1509,10.1509,10.1509,0.0,0.0,0.0,0.0,0.0,0.0,10.1509,10.1509,10.1509,10.1509,10.1509,10.1509,10.1509,10.1509,0.0,0.0,0.0,0.0,0.0,0.0,10.3892,10.5594,10.6386,10.6386,10.6386,10.6386,10.6386,10.6386,10.6386,10.6386,10.6386,10.6386,10.6386,10.6386,10.6712,10.7211,10.7211,10.7589,10.8209,10.8209,10.8209,10.8209,9.0601,9.1913,9.3051,9.3061,9.3721,9.4267,9.4267,9.4955,9.5758,9.6575,9.7351,9.7241,9.5643,9.6203,9.6979,9.7796,9.8589,9.9061,9.9061,9.9061,9.9061,0.0,0.0,9.9098,9.9098,9.9098,9.9098,9.9098,0.0,0.0,9.7943,0.0,9.9952,10.1509,10.1509,10.1509,10.1509,10.1509,10.1509,10.1509,10.1509,10.1509,10.1509,10.1509,10.2013,10.27,10.27,10.3182,10.389,10.389,10.389,10.3591,10.1981,10.1509,10.1509,10.1509,10.1509,10.1509,10.1509,10.1509,10.1509,10.1509,10.1509,10.1509,10.1509,10.1509,10.1509,10.1509,10.1509,10.1509,10.1509,10.1509,10.1509,10.1509,0.0,0.0,0.0,0.0,0.0,0.0,10.1509,10.1509,10.1509,10.1509,10.1509,10.1509,10.1509,0.0,0.0,0.0,0.0,10.1509,10.3086,0.0,10.3892,10.5594,10.6386,10.6386,10.6386,10.6386,10.6386,10.6386,10.6386,10.6386,10.6386,10.6386,10.6386,10.6386,10.6386,10.6386,10.6386,10.6386,10.6386,10.6386,10.6386,10.6507,9.3125,9.3533,9.3937,9.3937,9.5038,9.5956,9.5956,9.7084,9.8034,9.8296,9.8552,9.8516,9.7997,9.8181,9.8442,0.0,9.8951,9.9098,0.0,9.9617,9.9916,9.9916,10.0393,10.0686,10.0686,10.0686,10.0686,10.0686,0.0,0.0,0.0,10.0618,10.0985,10.1509,10.1509,10.1509,10.1509,10.1509,10.1509,10.1499,10.2086,10.2301,10.2417,10.2894,10.3298,10.3513,10.3513,10.3701,10.3885,10.3885,10.3885,10.3812,10.3303,10.3114,10.3114,10.3114,10.3108,10.3002,10.2481,10.2297,10.2214,10.1593,10.1509,10.1509,10.1509,10.1509,10.1509,10.1509,10.1509,10.1509,10.1509,10.1509,10.1509,10.1509,10.1509,0.0,0.0,0.0,0.0,10.1509,10.1509,10.1509,10.1509,10.1509,10.1509,10.1509,10.1509,0.0,0.0,0.0,0.0,0.0,10.3296,0.0,10.4682,10.5799,10.6386,10.6386,10.6386,10.6386,10.6386,10.6386,10.6386,10.6386,10.6386,10.6386,10.6386,10.6386,10.6386,10.6386,10.6386,10.6386,10.6386,10.6386,10.6386,10.6386,9.5185,9.5699,9.6098,9.6098,9.6937,9.7598,9.7598,9.8437,9.9208,9.9507,9.9544,9.9654,9.9989,9.9989,0.0,9.958,9.9842,9.9989,9.9989,10.0508,10.0806,10.0806,10.121,10.1509,10.1509,10.1509,0.0,10.1509,10.1509,10.1509,10.1509,10.1509,10.1509,10.1509,10.1509,10.1509,10.1504,10.1793,10.1981,10.2013,10.281,10.3188,10.3214,10.3696,10.4105,10.4399,10.4399,10.4582,10.4798,10.4798,10.4798,10.4798,10.4798,10.4798,10.4693,10.4105,10.3895,10.3799,10.3316,10.3193,10.3003,10.2506,10.2381,10.2297,10.2005,10.2005,10.1885,10.1593,10.1509,10.1509,10.1509,10.1509,10.1509,10.1509,10.1509,10.1509,10.1509,0.0,10.1509,0.0,0.0,0.0,0.0,10.1509,10.1509,10.1509,10.1509,0.0,0.0,0.0,0.0,10.271,10.351,0.0,10.5096,10.6009,10.6386,10.6386,10.6386,10.6386,10.6386,10.6386,10.6386,10.6386,10.6386,10.6386,10.6386,10.6386,10.6386,10.6386,10.6386,10.6386,10.6386,10.6386,10.6386,10.6386,9.6869,9.8075,9.9098,0.0,9.9135,0.0,9.9172,9.9245,9.9544,10.0283,10.0398,10.0696,10.1394,10.1509,10.121,10.0393,0.0,0.0,0.0,10.1509,10.1509,10.1509,10.1509,10.1509,10.1509,10.1509,10.1509,10.1509,10.1509,10.1509,10.1509,10.1509,10.1504,10.1582,10.1582,10.1614,10.1688,10.2485,10.281,10.2889,10.3701,10.3995,10.3995,10.411,10.4493,10.5191,10.5191,10.571,10.6386,10.6386,10.6386,10.6386,10.6386,10.6386,10.6093,10.4504,10.4115,10.4114,10.4005,10.4008,10.3998,10.3914,10.3914,10.3705,10.3004,10.2815,10.259,10.1801,10.1593,10.1593,10.1593,10.1509,10.1509,10.1509,10.1509,10.1509,10.1509,0.0,10.1509,10.1509,0.0,0.0,0.0,10.1509,10.1509,0.0,0.0,0.0,0.0,0.0,10.2005,10.2799,10.3614,10.4389,10.5217,10.6009,10.6386,10.6386,10.6386,10.6386,10.6386,10.6386,10.6386,10.6386,10.6386,10.6386,10.6386,10.6386,10.6386,10.6386,10.6386,10.6386,10.6386,10.6386,10.6386,10.6386,0.0,0.0,9.9098,9.9098,9.9617,9.9984,9.9984,10.0503,10.099,10.121,10.121,10.1289,10.1509,10.1509,10.1394,10.121,10.1399,10.1509,10.1509,10.1509,10.1509,10.1509,10.1509,10.1509,10.1509,10.1509,10.1509,10.1509,10.1509,10.1509,10.1509,10.1509,10.1793,10.2406,10.2406,10.2784,10.3298,10.3513,10.3586,10.3701,10.4499,10.4787,10.4902,10.5616,10.5899,10.6082,10.6082,10.6192,10.6386,10.6386,10.6386,10.6386,10.6386,10.6386,10.6308,10.5904,10.581,10.5694,10.5007,10.4793,10.4709,10.4086,10.3918,10.3918,10.3709,10.3596,10.3588,10.3416,10.2799,10.2381,10.2381,10.1885,10.1509,10.1509,10.1509,10.1509,10.1509,10.1509,10.1509,0.0,10.1509,10.1509,10.1509,10.1509,10.1509,0.0,0.0,10.1801,10.2381,10.2381,10.2799,10.3588,10.441,10.5217,10.6093,10.6297,10.6386,10.6386,10.6386,10.6386,10.6386,10.6386,10.6386,10.6386,10.6386,10.6386,10.6386,10.6386,10.6386,10.6386,10.6386,10.6386,10.6386,10.6386,10.6386,10.6386,9.9654,9.9952,10.0209,10.0209,10.0586,10.0801,10.0801,10.121,10.1509,10.1509,10.1509,10.1509,10.1509,10.1509,10.1509,10.1509,10.1509,10.1509,10.1509,10.1509,10.1509,10.1509,10.1509,10.1509,10.1509,10.1509,10.1509,10.1509,10.1908,10.2008,10.2091,10.238,10.2815,10.3214,10.3214,10.3518,10.388,10.4284,10.4383,10.4493,10.5385,10.571,10.5705,10.6198,10.6386,10.6386,10.6386,10.6386,10.6386,10.6386,10.6386,10.6386,10.6386,10.6386,10.6386,10.6386,10.6386,10.6297,10.5799,10.5715,10.5594,10.5217,10.5007,10.4887,10.4509,10.4405,10.4288,10.3994,10.3581,10.3188,10.3213,10.259,10.2005,10.2005,10.1713,10.1509,10.1509,10.1509,10.1509,10.1509,10.1509,10.1509,10.1509,10.1509,10.1509,10.1509,10.1801,0.0,10.271,10.3396,10.3994,10.4408,10.4887,10.551,10.6386,10.6386,10.6386,10.6386,10.6386,10.6386,10.6386,10.6386,10.6386,10.6386,10.6386,10.6386,10.6386,10.6386,10.6386,10.6386,10.6386,10.6386,10.6386,10.6386,10.6386,10.6386,10.0508,10.0985,10.1509,10.1509,10.1509,10.1509,10.1509,10.1509,10.1509,10.1509,10.1509,10.1509,10.1509,10.1509,10.1509,10.1509,10.1614,10.1614,10.1509,10.1509,10.1509,10.1509,10.1614,10.1688,10.1688,10.1798,10.1913,10.1913,10.2517,10.2889,10.2884,10.3591,10.3995,10.4105,10.4105,10.4184,10.4289,10.5013,10.5301,10.5416,10.6082,10.6386,10.6386,10.6386,10.6386,10.6386,10.6386,10.6386,10.6386,10.6386,10.6386,10.6386,10.6386,10.6386,10.6386,10.6386,10.6386,10.6386,10.6386,10.6386,10.6386,10.6386,10.6386,10.6213,10.551,10.5301,10.5096,10.4389,10.4216,10.4086,10.4086,10.3404,10.289,10.2909,10.2297,10.1801,10.1713,0.0,10.1593,10.1509,10.1509,10.1509,10.1713,10.1713,10.1713,10.1885,10.2506,10.2894,10.3116,10.4384,10.5217,10.5301,10.5301,10.5715,10.6386,10.6386,10.6386,10.6386,10.6386,10.6386,10.6386,10.6386,10.6386,10.6386,10.6386,10.6386,10.6386,10.6386,10.6386,10.6386,10.6386,10.6386,10.6386,10.6386,10.6386,10.6386,10.1284,10.1394,10.1509,10.1509,10.1509,10.1509,10.1509,10.1509,10.1509,10.1509,10.1509,10.1509,10.1509,10.1509,10.1509,10.1509,10.2081,10.2191,10.1499,10.1509,10.1509,10.1509,10.2201,10.2517,10.2517,10.3188,10.3518,10.3518,10.3707,10.3696,10.3696,10.3806,10.4289,10.4897,10.4897,10.5306,10.6014,10.6119,10.6198,10.6198,10.6308,10.6386,10.6386,10.6386,10.6386,10.6386,10.6386,10.6386,10.6386,10.6386,10.6386,10.6386,10.6386,10.6386,10.6386,10.6386,10.6386,10.6386,10.6386,10.6386,10.6386,10.6386,10.6386,10.6386,10.6213,10.6213,10.6213,10.6009,10.5385,10.4908,10.4892,10.4285,10.3693,10.369,10.3588,10.3296,10.259,0.0,10.2297,10.1593,10.1509,10.1801,10.2381,10.2506,10.2799,10.35,10.3588,10.4002,10.4714,10.5002,10.5385,10.6213,10.6213,10.6297,10.6386,10.6386,10.6386,10.6386,10.6386,10.6386,10.6386,10.6386,10.6386,10.6386,10.6386,10.6386,10.6386,10.6386,10.6386,10.6386,10.6386,10.6386,10.6386,10.6386,10.6386,10.6386,10.1509,10.1509,10.1509,10.1509,10.1509,10.1509,10.1509,10.1509,10.1509,10.1509,10.1509,10.1509,10.1509,10.1908,10.2113,10.2113,10.2894,10.3188,10.2789,10.2789,10.2789,10.2789,10.3109,10.3287,10.3287,10.3696,10.3885,10.3885,10.4315,10.4493,10.4614,10.5018,10.5385,10.5783,10.5783,10.6009,10.6386,10.6386,10.6386,10.6386,10.6386,10.6386,10.6386,10.6386,10.6386,10.6386,10.6386,10.6386,10.6386,10.6386,10.6386,10.6386,10.6386,10.6386,10.6386,10.6386,10.6386,10.6386,10.6386,10.6386,10.6386,10.6386,10.6386,10.6386,10.6386,10.6386,10.6386,10.6386,10.6093,10.5799,10.5799,10.5096,10.4494,10.4493,10.4189,0.0,0.0,10.3311,10.3212,10.2799,10.2799,10.2882,10.3296,10.3292,10.3488,10.3901,10.4315,10.4687,10.5102,10.551,10.6009,10.6386,10.6386,10.6386,10.6386,10.6386,10.6386,10.6386,10.6386,10.6386,10.6386,10.6386,10.6386,10.6386,10.6386,10.6386,10.6386,10.6386,10.6386,10.6386,10.6386,10.6386,10.6386,10.6386,10.6386,10.6386,10.1509,10.1509,10.1509,10.1509,10.1509,10.1509,10.1509,10.1509,10.1582,10.1803,10.1798,10.1913,10.2018,10.2595,10.2999,10.2999,10.3696,10.421,10.421,10.4404,10.4289,10.388,10.4105,10.4289,10.4514,10.4514,10.4514,10.4514,10.5086,10.5411,10.5411,10.6088,10.6386,10.6386,10.6386,10.6386,10.6386,10.6386,10.6386,10.6386,10.6386,10.6386,10.6386,10.6386,10.6386,10.6386,10.6386,10.6386,10.6386,10.6386,10.6386,10.6386,10.6386,10.6386,10.6386,10.6386,10.6386,10.6386,10.6386,10.6386,10.6386,10.6386,10.6386,10.6386,10.6386,10.6386,10.6386,10.6386,10.6386,10.6386,10.6386,10.5883,10.5385,10.5385,0.0,0.0,0.0,10.4184,10.4096,10.3892,10.3892,10.4012,10.4185,10.4206,10.43,10.4509,10.5096,10.5385,10.5385,10.6009,10.6386,10.6386,10.6386,10.6386,10.6386,10.6386,10.6386,10.6386,10.6386,10.6386,10.6386,10.6386,10.6386,10.6386,10.6386,10.6386,10.6386,10.6386,10.6386,10.6386,10.6386,10.6386,10.6386,10.6386,10.6386,10.6386,10.1509,10.1509,10.1509,10.1509,10.1509,10.1509,10.1509,10.1509,10.1803,10.2517,10.259,10.2889,10.3586,10.3812,10.3812,10.3812,10.4493,10.5002,10.5002,10.5789,10.55,10.4,10.4604,10.5416,10.6198,10.6198,10.6198,10.6198,10.6313,10.6308,10.6308,10.6386,10.6386,10.6386,10.6386,10.6386,10.6386,10.6386,10.6386,10.6386,10.6386,10.6386,10.6386,10.6386,10.6386,10.6386,10.6386,10.6386,10.6386,10.6386,10.6386,10.6386,10.6386,10.6386,10.6386,10.6386,10.6386,10.6386,10.6386,10.6386,10.6386,10.6386,10.6386,10.6386,10.6386,10.6386,10.6386,10.6386,10.6386,10.6386,10.6386,10.6297,10.6297,10.6297,0.0,0.0,10.5096,10.4997,10.4683,10.4012,10.3892,10.4185,10.4892,10.4986,10.5301,10.6213,10.6297,10.6297,10.6297,10.6386,10.6386,10.6386,10.6386,10.6386,10.6386,10.6386,10.6386,10.6386,10.6386,10.6386,10.6386,10.6386,10.6386,10.6386,10.6386,10.6386,10.6386,10.6386,10.6386,10.6386,10.6386,10.6386,10.6386,10.6386,10.6386,10.6386,10.1509,10.1509,10.1509,10.1509,10.1509,10.1693,10.2196,10.2186,10.2517,10.3287,10.3398,10.3591,10.389,10.431,10.4604,10.4604,10.5416,10.5899,10.5899,10.6198,10.6088,10.5505,10.571,10.6088,10.6386,10.6386,10.6386,10.6386,10.6386,10.6386,10.6386,10.6386,10.6386,10.6386,10.6386,10.6386,10.6386,10.6386,10.6386,10.6386,10.6386,10.6386,10.6386,10.6386,10.6386,10.6386,10.6386,10.6386,10.6386,10.6386,10.6386,10.6386,10.6386,10.6386,10.6386,10.6386,10.6386,10.6386,10.6386,10.6386,10.6386,10.6386,10.6386,10.6386,10.6386,10.6386,10.6386,10.6386,10.6386,10.6386,10.6386,10.6386,10.6386,10.6386,0.0,10.6297,10.6009,10.5883,10.5799,10.551,10.551,10.5594,10.5883,10.5883,10.6009,10.6386,10.6386,10.6386,10.6386,10.6386,10.6386,10.6386,10.6386,10.6386,10.6386,10.6386,10.6386,10.6386,10.6386,10.6386,10.6386,10.6386,10.6386,10.6386,10.6386,10.6386,10.6386,10.6386,10.6386,10.6386,10.6386,10.6386,10.6386,10.6386,10.6386,10.6386,10.1509,10.1509,10.1582,10.1793,10.1908,10.2081,10.3004,10.3109,10.3403,10.421,10.4284,10.4399,10.4698,10.5201,10.5484,10.5484,10.6093,10.6386,10.6386,10.6386,10.6386,10.6386,10.6386,10.6386,10.6386,10.6386,10.6386,10.6386,10.6386,10.6386,10.6386,10.6386,10.6386,10.6386,10.6386,10.6386,10.6386,10.6386,10.6386,10.6386,10.6386,10.6386,10.6386,10.6386,10.6386,10.6386,10.6386,10.6386,10.6386,10.6386,10.6386,10.6386,10.6386,10.6386,10.6386,10.6386,10.6386,10.6386,10.6386,10.6386,10.6386,10.6386,10.6386,10.6386,10.6386,10.6386,10.6386,10.6386,10.6386,10.6386,10.6386,10.6386,10.6386,10.6386,10.6386,10.6386,10.6386,10.6386,10.6386,10.6386,10.6386,10.6386,10.6386,10.6386,10.6386,10.6386,10.6386,10.6386,10.6386,10.6386,10.6386,10.6386,10.6386,10.6386,10.6386,10.6386,10.6386,10.6386,10.6386,10.6386,10.6386,10.6386,10.6386,10.6386,10.6386,10.6386,10.6386,10.6386,10.6386,10.6386,10.6386,10.6386,10.6386,10.6386,10.6386,10.6386,10.1509,10.1504,10.1803,10.2595,10.27,10.2999,10.3812,10.3885,10.421,10.5002,10.5112,10.5411,10.6308,10.6386,10.6386,10.6386,10.6386,10.6386,10.6386,10.6386,10.6386,10.6386,10.6386,10.6386,10.6386,10.6386,10.6386,10.6386,10.6386,10.6386,10.6386,10.6386,10.6386,10.6386,10.6386,10.6386,10.6386,10.6386,10.6386,10.6386,10.6386,10.6386,10.6386,10.6386,10.6386,10.6386,10.6386,10.6386,10.6386,10.6386,10.6386,10.6386,10.6386,10.6386,10.6386,10.6386,10.6386,10.6386,10.6386,10.6386,10.6386,10.6386,10.6386,10.6386,10.6386,10.6386,10.6386,10.6386,10.6386,10.6386,10.6386,10.6386,10.6386,10.6386,10.6386,10.6386,10.6386,10.6386,10.6386,10.6386,10.6386,10.6386,10.6386,10.6386,10.6386,10.6386,10.6386,10.6386,10.6386,10.6386,10.6386,10.6386,10.6386,10.6386,10.6386,10.6386,10.6386,10.6386,10.6386,10.6386,10.6386,10.6386,10.6386,10.6386,10.6386,10.6386,10.6386,10.6386,10.6386,10.6386,10.6386,10.6386,10.6386,10.6386,10.6386,10.6386,10.2296,10.2784,10.3303,10.3518,10.3508,10.3801,10.4604,10.4708,10.5007,10.5899,10.6009,10.6082,10.6386,10.6386,10.6386,10.6386,10.6386,10.6386,10.6386,10.6386,10.6386,10.6386,10.6386,10.6386,10.6386,10.6386,10.6386,10.6386,10.6386,10.6386,10.6386,10.6386,10.6386,10.6386,10.6386,10.6386,10.6386,10.6386,10.6386,10.6386,10.6386,10.6386,10.6386,10.6386,10.6386,10.6386,10.6386,10.6386,10.6386,10.6386,10.6386,10.6386,10.6386,10.6386,10.6386,10.6386,10.6386,10.6386,10.6386,10.6386,10.6386,10.6386,10.6386,10.6386,10.6386,10.6386,10.6386,10.6386,10.6386,10.6386,10.6386,10.6386,10.6386,10.6386,10.6386,10.6386,10.6386,10.6386,10.6386,10.6386,10.6386,10.6386,10.6386,10.6386,10.6386,10.6386,10.6386,10.6386,10.6386,10.6386,10.6386,10.6386,10.6386,10.6386,10.6386,10.6386,10.6386,10.6386,10.6386,10.6386,10.6386,10.6386,10.6386,10.6386,10.6386,10.6386,10.6386,10.6386,10.6386,10.6386,10.6386,10.6386,10.6386,10.6386,10.6386,10.6386,10.3182,10.3591,10.3995,10.432,10.4394,10.4687,10.549,10.5595,10.5783,10.6308,10.6386,10.6386,10.6386,10.6386,10.6386,10.6386,10.6386,10.6386,10.6386,10.6386,10.6386,10.6386,10.6386,10.6386,10.6386,10.6386,10.6386,10.6386,10.6386,10.6386,10.6386,10.6386,10.6386,10.6386,10.6386,10.6386,10.6386,10.6386,10.6386,10.6386,10.6386,10.6386,10.6386,10.6386,10.6386,10.6386,10.6386,10.6386,10.6386,10.6386,10.6386,10.6386,10.6386,10.6386,10.6386,10.6386,10.6386,10.6386,10.6386,10.6386,10.6386,10.6386,10.6386,10.6386,10.6386,10.6386,10.6386,10.6386,10.6386,10.6386,10.6386,10.6386,10.6386,10.6386,10.6386,10.6386,10.6386,10.6386,10.6386,10.6386,10.6386,10.6386,10.6386,10.6386,10.6386,10.6386,10.6386,10.6386,10.6386,10.6386,10.6386,10.6386,10.6386,10.6386,10.6386,10.6386,10.6386,10.6386,10.6386,10.6386,10.6386,10.6386,10.6386,10.6386,10.6386,10.6386,10.6386,10.6386,10.6386,10.6386,10.6386,10.6386,10.6386,10.6386,10.6386,10.6386,10.3995,10.411,10.4399,10.5081,10.5186,10.549,10.6313,10.6386,10.6386,10.6386,10.6386,10.6386,10.6386,10.6386,10.6386,10.6386,10.6386,10.6386,10.6386,10.6386,10.6386,10.6386,10.6386,10.6386,10.6386,10.6386,10.6386,10.6386,10.6386,10.6386,10.6386,10.6386,10.6386,10.6386,10.6386,10.6386,10.6386,10.6386,10.6386,10.6386,10.6386,10.6386,10.6386,10.6386,10.6386,10.6386,10.6386,10.6386,10.6386,10.6386,10.6386,10.6386,10.6386,10.6386,10.6386,10.6386,10.6386,10.6386,10.6386,10.6386,10.6386,10.6386,10.6386,10.6386,10.6386,10.6386,10.6386,10.6386,10.6386,10.6386,10.6386,10.6386,10.6386,10.6386,10.6386,10.6386,10.6386,10.6386,10.6386,10.6386,10.6386,10.6386,10.6386,10.6386,10.6386,10.6386,10.6386,10.6386,10.6386,10.6386,10.6386,10.6386,10.6386,10.6386,10.6386,10.6386,10.6386,10.6386,10.6386,10.6386,10.6386,10.6386,10.6386,10.6386,10.6386,10.6386,10.6386,10.6386,10.6386,10.6386,10.6386,10.6386,10.6386,10.6386,10.6386,10.6386,10.4782,10.5385,10.5904,10.6088,10.6082,10.6198,10.6386,10.6386,10.6386,10.6386,10.6386,10.6386,10.6386,10.6386,10.6386,10.6386,10.6386,10.6386,10.6386,10.6386,10.6386,10.6386,10.6386,10.6386,10.6386,10.6386,10.6386,10.6386,10.6386,10.6386,10.6386,10.6386,10.6386,10.6386,10.6386,10.6386,10.6386,10.6386,10.6386,10.6386,10.6386,10.6386,10.6386,10.6386,10.6386,10.6386,10.6386,10.6386,10.6386,10.6386,10.6386,10.6386,10.6386,10.6386,10.6386,10.6386,10.6386,10.6386,10.6386,10.6386,10.6386,10.6386,10.6386,10.6386,10.6386,10.6386,10.6386,10.6386,10.6386,10.6386,10.6386,10.6386,10.6386,10.6386,10.6386,10.6386,10.6386,10.6386,10.6386,10.6386,10.6386,10.6386,10.6386,10.6386,10.6386,10.6386,10.6386,10.6386,10.6386,10.6386,10.6386,10.6386,10.6386,10.6386,10.6386,10.6386,10.6386,10.6386,10.6386,10.6386,10.6386,10.6386,10.6386,10.6386,10.6386,10.6386,10.6386,10.6386,10.6386,10.6386,10.6386,10.6386,10.6386,10.6386,10.6386,10.6386,10.571,10.6088,10.6386,10.6386,10.6386,10.6386,10.6386,10.6386,10.6386,10.6386,10.6386,10.6386,10.6386,10.6386,10.6386,10.6386,10.6386,10.6386,10.6386,10.6386,10.6386,10.6386,10.6386,10.6386,10.6386,10.6386,10.6386,10.6386,10.6386,10.6386,10.6386,10.6386,10.6386,10.6386,10.6386,10.6386,10.6386,10.6386,10.6386,10.6386,10.6386,10.6386,10.6386,10.6386,10.6386,10.6386,10.6386,10.6386,10.6386,10.6386,10.6386,10.6386,10.6386,10.6386,10.6386,10.6386,10.6386,10.6386,10.6386,10.6386,10.6386,10.6386,10.6386,10.6386,10.6386,10.6386,10.6386,10.6386,10.6386,10.6386,10.6386,10.6386,10.6386,10.6386,10.6386,10.6386,10.6386,10.6386,10.6386,10.6386,10.6386,10.6386,10.6386,10.6386,10.6386,10.6386,10.6386,10.6386,10.6386,10.6386,10.6386,10.6386,10.6386,10.6386,10.6386,10.6386,10.6386,10.6386,10.6386,10.6386,10.6386,10.6386,10.6386,10.6386,10.6386,10.6386,10.6386,10.6386,10.6386,10.6386,10.6386,10.6386,10.6386,10.6386,10.6386,10.6386,10.6386,10.6386,10.6386,10.6386,10.6386,10.6386,10.6386,10.6386,10.6386,10.6386,10.6386,10.6386,10.6386,10.6386,10.6386,10.6386,10.6386,10.6386,10.6386,10.6386,10.6386,10.6386,10.6386,10.6386,10.6386,10.6386,10.6386,10.6386,10.6386,10.6386,10.6386,10.6386,10.6386,10.6386,10.6386,10.6386,10.6386,10.6386,10.6386,10.6386,10.6386,10.6386,10.6386,10.6386,10.6386,10.6386,10.6386,10.6386,10.6386,10.6386,10.6386,10.6386,10.6386,10.6386,10.6386,10.6386,10.6386,10.6386,10.6386,10.6386,10.6386,10.6386,10.6386,10.6386,10.6386,10.6386,10.6386,10.6386,10.6386,10.6386,10.6386,10.6386,10.6386,10.6386,10.6386,10.6386,10.6386,10.6386,10.6386,10.6386,10.6386,10.6386,10.6386,10.6386,10.6386,10.6386,10.6386,10.6386,10.6386,10.6386,10.6386,10.6386,10.6386,10.6386,10.6386,10.6386,10.6386,10.6386,10.6386,10.6386,10.6386,10.6386,10.6386,10.6386,10.6386,10.6386,10.6386,10.6386,10.6386,10.6386,10.6386,10.6386,10.6386,10.6386,10.6386,10.6386,10.6386,10.6386,10.6386,10.6386,10.6386,10.6386,10.6386,10.6386,10.6386,10.6386,10.6386,10.6386,10.6386,10.6386,10.6386,10.6386,10.6386,10.6386,10.6386,10.6386,10.6386,10.6386,10.6386,10.6386,10.6386,10.6386,10.6386,10.6386,10.6386,10.6386,10.6386,10.6386,10.6386,10.6386,10.6386,10.6386,10.6386,10.6386,10.6386,10.6386,10.6386,10.6386,10.6386,10.6386,10.6386,10.6386,10.6386,10.6386,10.6386,10.6386,10.6386,10.6386,10.6386,10.6386,10.6386,10.6386,10.6386,10.6386,10.6386,10.6386,10.6386,10.6386,10.6386,10.6386,10.6386,10.6386,10.6386,10.6386,10.6386,10.6386,10.6386,10.6386,10.6386,10.6386,10.6386,10.6386,10.6386,10.6386,10.6386,10.6386,10.6386,10.6386,10.6386,10.6386,10.6386,10.6386,10.6386,10.6386,10.6386,10.6386,10.6386,10.6386,10.6386,10.6386,10.6386,10.6386,10.6386,10.6386,10.6386,10.6386,10.6386,10.6386,10.6386,10.6386,10.6386,10.6386,10.6386,10.6386,10.6386,10.6386,10.6386,10.6386,10.6386,10.6386,10.6386,10.6386,10.6386,10.6386,10.6386,10.6386,10.6386,10.6386,10.6386,10.6386,10.6386,10.6386,10.6386,10.6386,10.6386,10.6386,10.6386,10.6386,10.6386,10.6386,10.6386,10.6386,10.6386,10.6386,10.6386,10.6386,10.6386,10.6386,10.6386,10.6386,10.6386,10.6386,10.6386,10.6386,10.6386,10.6386,10.6386,10.6386,10.6386,10.6386,10.6386,10.6386,10.6386,10.6386,10.6386,10.6386,10.6386,10.6386,10.6386,10.6386,10.6386,10.6386,10.6386,10.6386,10.6386,10.6386,10.6386,10.6386,10.6386,10.6386,10.6386,10.6386,10.6386,10.6386,10.6386,10.6386,10.6386,10.6386,10.6386,10.6386,10.6386,10.6386,10.6386,10.6386,10.6386,10.6386,10.6386,10.6386,10.6386,10.6386,10.6386,10.6386,10.6386,10.6386,10.6386,10.6386,10.6386,10.6386,10.6386,10.6386,10.6386,10.6386,10.6386,10.6386,10.6386,10.6386,10.6386,10.6386,10.6386,10.6386,10.6386,10.6386,10.6386,10.6386,10.6386,10.6386,10.6386,10.6386,10.6386,10.6386,10.6386,10.6386,10.6386,10.6386,10.6386,10.6386,10.6386,10.6386]},{"header":{"parameterUnit":"m.s-1","parameterCategory":1,"la1":30.6,"la2":28.766,"lo1":-90.7593,"lo2":-88.6598,"dy":0.0162,"dx":0.0183,"nx":116,"ny":114,"refTime":"2023-03-14T06:00:00:Z","depth":0,"parameterNumber":3,"parameterNumberName":"V-component_of_WINDS"},"data":[0.0,0.0,0.0,0.0,0.0,0.0,0.0,0.0,0.0,0.0,0.0,0.0,0.0,0.0,0.0,0.0,0.0,0.0,0.0,0.0,0.0,0.0,0.0,0.0,0.0,0.0,0.0,0.0,0.0,0.0,0.0,0.0,0.0,0.0,0.0,0.0,0.0,0.0,0.0,0.0,0.0,0.0,0.0,0.0,0.0,0.0,0.0,0.0,0.0,0.0,0.0,0.0,0.0,0.0,0.0,0.0,0.0,0.0,0.0,0.0,0.0,0.0,0.0,0.0,0.0,0.0,0.0,0.0,0.0,0.0,0.0,0.0,0.0,0.0,0.0,0.0,0.0,0.0,0.0,0.0,0.0,0.0,0.0,0.0,0.0,0.0,0.0,0.0,0.0,0.0,0.0,0.0,0.0,0.0,0.0,0.0,0.0,0.0,0.0,0.0,0.0,0.0,0.0,0.0,0.0,0.0,0.0,0.0,0.0,0.0,0.0,0.0,0.0,0.0,0.0,0.0,0.0,0.0,0.0,0.0,0.0,0.0,0.0,0.0,0.0,0.0,0.0,0.0,0.0,0.0,0.0,0.0,0.0,0.0,0.0,0.0,0.0,0.0,0.0,0.0,0.0,0.0,0.0,0.0,0.0,0.0,0.0,0.0,0.0,0.0,0.0,0.0,0.0,0.0,0.0,0.0,0.0,0.0,0.0,0.0,0.0,0.0,0.0,0.0,0.0,0.0,0.0,0.0,0.0,0.0,0.0,0.0,0.0,0.0,0.0,0.0,0.0,0.0,0.0,0.0,0.0,0.0,0.0,0.0,0.0,0.0,0.0,0.0,0.0,0.0,0.0,0.0,0.0,0.0,0.0,0.0,0.0,0.0,0.0,0.0,0.0,0.0,0.0,0.0,0.0,0.0,0.0,0.0,0.0,0.0,0.0,0.0,0.0,0.0,0.0,0.0,0.0,0.0,0.0,0.0,0.0,0.0,0.0,0.0,0.0,0.0,0.0,0.0,0.0,0.0,0.0,0.0,0.0,0.0,0.0,0.0,0.0,0.0,0.0,0.0,0.0,0.0,0.0,0.0,0.0,0.0,0.0,0.0,0.0,0.0,0.0,0.0,0.0,0.0,0.0,0.0,0.0,0.0,0.0,0.0,0.0,0.0,0.0,0.0,0.0,0.0,0.0,0.0,0.0,0.0,0.0,0.0,0.0,0.0,0.0,0.0,0.0,0.0,0.0,0.0,0.0,0.0,0.0,0.0,0.0,0.0,0.0,0.0,0.0,0.0,0.0,0.0,0.0,0.0,0.0,0.0,0.0,0.0,0.0,0.0,0.0,0.0,0.0,0.0,0.0,0.0,0.0,0.0,0.0,0.0,0.0,0.0,0.0,0.0,0.0,0.0,0.0,0.0,0.0,0.0,0.0,0.0,0.0,0.0,0.0,0.0,0.0,0.0,0.0,0.0,0.0,0.0,0.0,0.0,0.0,0.0,0.0,0.0,0.0,0.0,0.0,0.0,0.0,0.0,0.0,0.0,0.0,0.0,0.0,0.0,0.0,0.0,0.0,0.0,0.0,0.0,0.0,0.0,0.0,0.0,0.0,0.0,0.0,0.0,0.0,0.0,0.0,0.0,0.0,0.0,0.0,0.0,0.0,0.0,0.0,0.0,0.0,0.0,0.0,0.0,0.0,0.0,0.0,0.0,0.0,0.0,0.0,0.0,0.0,0.0,0.0,0.0,0.0,0.0,0.0,0.0,0.0,0.0,0.0,0.0,0.0,0.0,0.0,0.0,0.0,0.0,0.0,0.0,0.0,0.0,0.0,0.0,0.0,0.0,0.0,0.0,0.0,0.0,0.0,0.0,0.0,0.0,0.0,0.0,0.0,0.0,0.0,0.0,0.0,0.0,0.0,0.0,0.0,0.0,0.0,0.0,0.0,0.0,0.0,0.0,0.0,0.0,0.0,0.0,0.0,0.0,0.0,0.0,0.0,0.0,0.0,0.0,0.0,0.0,0.0,0.0,0.0,0.0,0.0,0.0,0.0,0.0,0.0,0.0,0.0,0.0,0.0,0.0,0.0,0.0,0.0,0.0,0.0,0.0,0.0,0.0,0.0,0.0,0.0,0.0,0.0,0.0,0.0,0.0,0.0,0.0,0.0,0.0,0.0,0.0,0.0,0.0,0.0,0.0,0.0,0.0,0.0,0.0,0.0,0.0,0.0,0.0,0.0,0.0,0.0,0.0,0.0,0.0,0.0,0.0,0.0,0.0,0.0,0.0,0.0,0.0,0.0,0.0,0.0,0.0,0.0,0.0,0.0,0.0,0.0,0.0,0.0,0.0,0.0,0.0,0.0,0.0,0.0,0.0,0.0,0.0,0.0,0.0,0.0,0.0,0.0,0.0,0.0,0.0,0.0,0.0,0.0,0.0,0.0,0.0,0.0,0.0,0.0,0.0,0.0,0.0,0.0,0.0,0.0,0.0,0.0,0.0,0.0,0.0,0.0,0.0,0.0,0.0,0.0,0.0,0.0,0.0,0.0,0.0,0.0,0.0,0.0,0.0,0.0,0.0,0.0,0.0,0.0,0.0,0.0,0.0,0.0,0.0,0.0,0.0,0.0,0.0,0.0,0.0,0.0,0.0,0.0,0.0,0.0,0.0,0.0,0.0,0.0,0.0,0.0,0.0,0.0,0.0,0.0,0.0,0.0,0.0,0.0,0.0,0.0,0.0,0.0,0.0,0.0,0.0,0.0,0.0,0.0,0.0,0.0,0.0,0.0,0.0,0.0,0.0,0.0,0.0,0.0,0.0,0.0,0.0,0.0,0.0,0.0,0.0,0.0,0.0,0.0,0.0,0.0,0.0,0.0,0.0,0.0,0.0,0.0,0.0,0.0,0.0,0.0,0.0,0.0,0.0,0.0,0.0,0.0,0.0,0.0,0.0,0.0,0.0,0.0,0.0,0.0,0.0,0.0,0.0,0.0,0.0,0.0,0.0,0.0,0.0,0.0,0.0,0.0,0.0,0.0,0.0,0.0,0.0,0.0,0.0,0.0,0.0,0.0,0.0,0.0,0.0,0.0,0.0,0.0,0.0,0.0,0.0,0.0,0.0,0.0,0.0,0.0,0.0,0.0,0.0,0.0,0.0,0.0,0.0,0.0,0.0,0.0,0.0,0.0,0.0,0.0,0.0,0.0,0.0,0.0,0.0,0.0,0.0,0.0,0.0,0.0,0.0,0.0,0.0,0.0,0.0,0.0,0.0,0.0,0.0,0.0,0.0,0.0,0.0,0.0,0.0,0.0,0.0,0.0,0.0,0.0,0.0,0.0,0.0,0.0,0.0,0.0,0.0,0.0,0.0,0.0,0.0,0.0,0.0,0.0,0.0,0.0,0.0,0.0,0.0,0.0,0.0,0.0,0.0,0.0,0.0,0.0,0.0,0.0,0.0,0.0,0.0,0.0,0.0,0.0,0.0,0.0,0.0,0.0,0.0,0.0,0.0,0.0,0.0,0.0,0.0,0.0,0.0,0.0,0.0,0.0,0.0,0.0,0.0,0.0,0.0,0.0,0.0,0.0,0.0,0.0,0.0,0.0,0.0,0.0,0.0,0.0,0.0,0.0,0.0,0.0,0.0,0.0,0.0,0.0,0.0,0.0,0.0,0.0,0.0,0.0,0.0,0.0,0.0,0.0,0.0,0.0,0.0,0.0,0.0,0.0,0.0,0.0,0.0,0.0,0.0,0.0,0.0,0.0,0.0,0.0,0.0,0.0,0.0,0.0,0.0,0.0,0.0,0.0,0.0,0.0,0.0,0.0,0.0,0.0,0.0,0.0,0.0,0.0,0.0,0.0,0.0,0.0,0.0,0.0,0.0,0.0,0.0,0.0,0.0,0.0,0.0,0.0,0.0,0.0,0.0,0.0,0.0,0.0,0.0,0.0,0.0,0.0,0.0,0.0,0.0,0.0,0.0,0.0,0.0,0.0,0.0,0.0,0.0,0.0,0.0,0.0,0.0,0.0,0.0,0.0,0.0,0.0,0.0,0.0,0.0,0.0,0.0,0.0,0.0,0.0,0.0,0.0,0.0,0.0,0.0,0.0,0.0,0.0,0.0,0.0,0.0,0.0,0.0,0.0,0.0,0.0,0.0,0.0,0.0,0.0,0.0,0.0,0.0,0.0,0.0,0.0,0.0,0.0,0.0,0.0,0.0,0.0,0.0,0.0,0.0,0.0,0.0,0.0,0.0,0.0,0.0,0.0,0.0,0.0,0.0,0.0,0.0,0.0,0.0,0.0,0.0,0.0,0.0,0.0,0.0,0.0,0.0,0.0,0.0,0.0,0.0,0.0,0.0,0.0,0.0,0.0,0.0,0.0,0.0,0.0,0.0,0.0,0.0,0.0,0.0,0.0,0.0,0.0,0.0,0.0,0.0,0.0,0.0,0.0,0.0,0.0,0.0,0.0,0.0,0.0,0.0,0.0,0.0,0.0,0.0,0.0,0.0,0.0,0.0,0.0,0.0,0.0,0.0,0.0,0.0,0.0,0.0,0.0,0.0,0.0,0.0,0.0,0.0,0.0,0.0,0.0,0.0,0.0,0.0,0.0,0.0,0.0,0.0,0.0,0.0,0.0,0.0,0.0,0.0,0.0,0.0,0.0,0.0,0.0,0.0,0.0,0.0,0.0,0.0,0.0,0.0,0.0,0.0,0.0,0.0,0.0,0.0,0.0,0.0,0.0,0.0,0.0,0.0,0.0,0.0,0.0,0.0,0.0,0.0,0.0,0.0,0.0,0.0,0.0,0.0,0.0,0.0,0.0,0.0,0.0,0.0,0.0,0.0,0.0,0.0,0.0,0.0,0.0,0.0,0.0,0.0,0.0,0.0,0.0,0.0,0.0,0.0,0.0,0.0,0.0,0.0,0.0,0.0,0.0,0.0,0.0,0.0,0.0,0.0,0.0,0.0,0.0,0.0,0.0,0.0,0.0,0.0,0.0,0.0,0.0,0.0,0.0,0.0,0.0,0.0,0.0,0.0,0.0,0.0,0.0,0.0,0.0,0.0,0.0,0.0,0.0,0.0,0.0,0.0,0.0,0.0,0.0,0.0,0.0,0.0,0.0,0.0,0.0,0.0,0.0,0.0,0.0,0.0,0.0,0.0,0.0,0.0,0.0,0.0,0.0,0.0,0.0,0.0,0.0,0.0,0.0,0.0,0.0,0.0,0.0,0.0,0.0,0.0,0.0,0.0,0.0,0.0,0.0,0.0,0.0,0.0,0.0,0.0,0.0,0.0,0.0,0.0,0.0,0.0,0.0,0.0,0.0,0.0,0.0,0.0,0.0,0.0,0.0,0.0,0.0,0.0,0.0,0.0,0.0,0.0,0.0,0.0,0.0,0.0,0.0,0.0,0.0,0.0,0.0,0.0,0.0,0.0,0.0,0.0,0.0,0.0,0.0,0.0,0.0,0.0,0.0,0.0,0.0,0.0,0.0,0.0,0.0,0.0,0.0,0.0,0.0,0.0,0.0,0.0,0.0,0.0,0.0,0.0,0.0,0.0,0.0,0.0,0.0,0.0,0.0,0.0,0.0,0.0,0.0,0.0,0.0,0.0,0.0,0.0,0.0,0.0,0.0,0.0,0.0,0.0,0.0,0.0,0.0,0.0,0.0,0.0,0.0,0.0,0.0,0.0,0.0,0.0,0.0,0.0,0.0,0.0,0.0,0.0,0.0,0.0,0.0,0.0,0.0,0.0,0.0,0.0,0.0,0.0,0.0,0.0,0.0,0.0,0.0,0.0,0.0,0.0,0.0,0.0,0.0,0.0,0.0,0.0,0.0,0.0,0.0,0.0,0.0,0.0,0.0,0.0,0.0,0.0,0.0,0.0,0.0,0.0,0.0,0.0,0.0,0.0,0.0,0.0,0.0,0.0,0.0,0.0,0.0,0.0,0.0,0.0,0.0,0.0,0.0,0.0,0.0,0.0,0.0,0.0,0.0,0.0,0.0,0.0,0.0,0.0,0.0,0.0,0.0,0.0,0.0,0.0,0.0,0.0,0.0,0.0,0.0,0.0,0.0,0.0,0.0,0.0,0.0,0.0,0.0,0.0,0.0,0.0,1.1182,0.0,0.0,0.0,0.0,0.0,0.0,0.0,0.0,0.0,0.0,0.0,0.0,0.0,0.0,0.0,0.0,0.0,0.0,0.0,0.0,0.0,0.0,0.0,0.0,0.0,0.0,0.0,0.0,0.0,0.0,0.0,0.0,0.0,0.0,0.0,0.0,0.0,0.0,0.0,0.0,0.0,0.0,0.0,0.0,0.0,0.0,0.0,0.0,0.0,0.0,0.0,0.0,0.0,0.0,0.0,0.0,0.0,0.0,0.0,0.0,0.0,0.0,0.0,0.0,0.0,0.0,0.0,0.0,0.0,0.0,0.0,0.0,0.0,0.0,0.0,0.0,0.0,0.0,0.0,0.0,0.0,0.0,0.0,0.0,0.0,0.0,0.0,0.0,0.0,0.0,0.0,0.0,0.0,0.0,0.0,0.0,0.0,0.0,0.0,0.0,0.0,0.0,0.0,0.0,0.0,0.0,0.0,0.0,0.0,0.0,0.0,0.0,0.0,0.0,0.0,0.0,1.2506,0.0,0.0,0.0,0.0,0.0,0.0,0.0,0.0,0.0,0.0,0.0,0.0,0.0,0.0,0.0,0.0,0.0,0.0,0.0,0.0,0.0,0.0,0.0,0.0,0.0,0.0,0.0,0.0,0.0,0.0,0.0,0.0,0.0,0.0,0.0,0.0,0.0,0.0,0.0,0.0,0.0,0.0,0.0,0.0,0.0,0.0,0.0,0.0,0.0,0.0,0.0,0.0,0.0,0.0,0.0,0.0,0.0,0.0,0.0,0.0,0.0,0.0,0.0,0.0,0.0,0.0,0.0,0.0,0.0,0.0,0.0,0.0,0.0,0.0,0.0,0.0,0.0,0.0,0.0,0.0,0.0,0.0,0.0,0.0,0.0,0.0,0.0,0.0,0.0,0.0,0.0,0.0,0.0,0.0,0.0,0.0,0.0,0.0,0.0,0.0,0.0,0.0,0.0,0.0,0.0,0.0,0.0,0.0,1.2592,1.2592,1.2592,1.2592,1.2651,1.2756,1.2637,1.2592,1.2592,1.2592,0.0,0.0,0.0,0.0,0.0,0.0,0.0,0.0,0.0,0.0,0.0,0.0,0.0,0.0,0.0,0.0,0.0,0.0,0.0,0.0,0.0,0.0,0.0,0.0,0.0,0.0,0.0,0.0,0.0,0.0,0.0,0.0,0.0,0.0,0.0,0.0,0.0,0.0,1.1128,1.115,1.1152,1.1126,1.1126,0.0,0.0,0.0,0.0,0.0,0.0,0.0,0.0,0.0,0.0,0.0,0.0,0.0,0.0,0.0,0.0,0.0,0.0,0.0,0.0,0.0,0.0,0.0,0.0,0.0,0.0,0.0,0.0,0.0,0.0,0.0,0.0,0.0,0.0,0.0,0.0,0.0,0.0,0.0,0.0,0.0,0.0,0.0,1.1157,1.0869,0.0,0.0,0.0,0.0,0.0,0.0,0.0,0.0,0.0,0.0,0.0,0.0,0.0,1.2651,1.2651,1.2847,1.2931,1.2931,1.2931,1.2931,1.2931,1.2931,1.2938,1.2959,1.2938,0.0,1.2931,1.2931,0.0,0.0,0.0,0.0,0.0,0.0,0.0,0.0,0.0,0.0,0.0,0.0,0.0,0.0,0.0,0.0,0.0,0.0,0.0,0.0,0.0,0.0,0.0,0.0,0.0,0.0,0.0,0.0,0.0,0.0,0.0,0.0,0.0,0.0,0.0,0.0,1.1072,1.1137,1.12,1.135,1.1416,1.1423,1.1619,1.1513,1.12,1.12,0.0,0.0,0.0,0.0,0.0,0.0,0.0,0.0,0.0,0.0,0.0,0.0,0.0,0.0,0.0,0.0,0.0,0.0,0.0,0.0,0.0,0.0,0.0,0.0,0.0,0.0,0.0,0.0,0.0,0.0,0.0,0.0,0.0,0.0,0.0,0.0,0.0,0.0,0.0,1.1916,1.2092,1.1894,1.2076,1.2259,0.0,0.0,0.0,0.0,0.0,0.0,0.0,0.0,0.0,1.2779,1.2847,1.2871,1.2871,1.2959,1.3003,1.3003,1.3003,1.3003,1.3003,1.3084,1.3146,1.3234,1.3302,1.3383,1.3431,1.3118,1.3003,1.3003,0.0,0.0,0.0,0.0,1.0547,0.7535,0.0,0.0,0.0,0.0,0.0,0.0,0.0,0.0,0.0,0.0,0.0,0.0,0.0,0.0,0.0,0.9847,0.0,0.0,0.0,0.0,0.0,0.0,0.0,0.0,0.0,0.0,0.0,1.1298,1.1298,1.1356,1.1431,1.1635,1.1735,1.1742,1.1993,1.1853,1.1424,1.1424,1.1424,0.0,0.0,0.0,0.0,0.0,0.0,0.0,0.0,0.0,0.0,0.0,0.0,0.0,0.0,0.0,0.0,0.0,0.0,0.0,0.0,0.0,0.0,0.0,0.0,0.0,0.0,0.0,0.0,0.0,0.0,0.0,0.0,0.0,0.0,0.0,0.0,0.0,0.0,1.2058,1.2217,1.22,1.2296,1.2355,0.0,0.0,0.0,0.0,0.0,0.0,1.2776,1.2776,1.285,1.2996,1.3067,1.3101,1.3101,1.3173,1.3197,1.3197,1.3197,1.3197,1.3214,1.3305,1.3403,1.3508,1.3613,1.3711,1.3772,1.337,1.3197,1.3197,1.3197,1.3186,1.3166,1.3118,1.3234,1.3404,0.0,0.0,0.0,0.0,0.0,0.0,0.0,0.0,0.0,0.0,0.0,0.0,0.0,0.0,0.6532,0.9979,1.0138,1.0075,0.0,0.0,0.0,0.0,0.0,0.0,0.0,0.0,0.0,1.1581,1.1581,1.1742,1.2066,1.207,1.2068,1.2077,1.2091,1.2084,1.205,1.205,1.205,1.205,0.0,0.0,0.0,0.0,0.0,0.0,0.0,0.0,0.0,0.0,0.0,0.0,0.0,0.0,0.0,0.0,0.0,0.0,0.0,0.0,0.0,0.0,0.0,0.0,0.0,0.0,0.0,0.0,0.0,0.0,0.0,0.0,0.0,0.0,0.0,0.0,0.0,0.0,0.0,1.247,1.2488,0.0,0.0,0.0,0.0,1.2689,1.2874,1.2982,1.2979,1.2979,1.2989,1.3003,1.3254,1.3376,1.3376,1.3633,1.3765,1.3765,1.3765,1.3765,1.3765,1.3772,1.3768,1.3774,1.3792,1.3788,1.3795,1.3768,1.3765,1.3765,1.3765,1.3609,1.3378,1.3385,1.3395,1.3406,0.0,0.0,0.0,0.0,0.0,0.0,0.0,0.0,0.0,0.0,0.0,0.0,0.0,0.8873,0.8764,1.0055,1.0334,1.0434,1.0458,0.0,0.0,0.0,0.0,0.0,0.0,0.0,1.1703,1.1923,1.1923,1.1977,1.2098,1.219,1.2228,1.2228,1.2324,1.2364,1.2351,1.217,1.2098,1.2098,1.2098,1.2098,0.0,0.0,0.0,0.0,0.0,0.0,0.0,0.0,0.0,0.0,0.0,0.0,0.0,0.0,0.0,0.0,0.0,0.0,0.0,0.0,0.0,0.0,0.0,0.0,0.0,0.0,0.0,0.0,0.0,0.0,0.0,0.0,0.0,0.0,0.0,0.0,0.0,1.2485,1.258,0.0,1.2631,1.2786,1.2891,1.2891,1.2959,1.3084,1.3254,1.3268,1.3339,1.3508,1.3606,1.366,1.366,1.3747,1.3795,1.3795,1.3795,1.3795,1.3802,1.4026,1.4125,1.4132,1.4299,1.4387,1.4387,1.4325,1.4113,1.3795,1.3795,1.372,1.3602,1.3645,1.3553,1.3456,0.0,0.0,0.0,0.0,0.0,0.0,0.0,0.0,0.0,0.0,0.0,0.9796,0.9801,0.9953,1.0085,1.0163,1.0366,1.0542,1.0628,0.0,0.0,0.0,1.1278,0.0,0.0,1.1818,1.1995,1.217,1.217,1.219,1.2245,1.233,1.2368,1.2366,1.2461,1.2501,1.2488,1.231,1.2228,1.2228,1.2228,1.2228,1.2228,0.0,0.0,0.0,0.0,0.0,0.0,0.0,0.0,0.0,0.0,0.0,0.0,0.0,0.0,0.0,0.0,0.0,0.0,0.0,0.0,0.0,0.0,0.0,0.0,0.0,0.0,0.0,0.0,0.0,0.0,0.0,0.0,0.0,0.0,1.2512,1.2587,1.266,1.2745,1.2797,1.2797,1.3,1.3132,1.3132,1.322,1.3353,1.3529,1.3525,1.362,1.3788,1.3907,1.3972,1.3972,1.4063,1.4099,1.4099,1.4099,1.4099,1.4106,1.4331,1.4426,1.4439,1.4624,1.4694,1.466,1.4626,1.4401,1.4088,1.4001,1.3939,1.3906,1.395,1.3863,1.3764,0.0,0.0,0.0,0.0,0.0,0.0,0.0,0.0,0.0,0.0,0.9738,0.9802,0.9803,0.9924,1.0089,1.0292,1.0435,1.0621,1.0877,1.0912,0.0,0.0,0.0,0.0,1.1816,1.2011,1.217,1.2307,1.2307,1.2366,1.2501,1.2501,1.2501,1.2501,1.2501,1.2501,1.2501,1.2501,1.2501,1.2501,1.2501,1.2501,1.2501,0.0,0.0,0.0,0.0,0.0,0.0,0.0,0.0,0.0,0.0,0.0,0.0,0.0,0.0,0.0,0.0,0.0,0.0,0.0,0.0,0.0,0.0,0.0,0.0,0.0,0.0,0.0,0.0,0.0,0.0,0.0,0.0,0.0,1.2709,1.2709,1.2783,1.2982,1.3009,1.3006,1.3006,1.3261,1.3417,1.3417,1.365,1.3802,1.3826,1.3826,1.3815,1.3829,1.4134,1.4312,1.4312,1.4575,1.4706,1.4706,1.4706,1.4706,1.4706,1.4712,1.4712,1.4712,1.4708,1.4685,1.4628,1.4628,1.4662,1.4696,1.4414,1.4305,1.4293,1.4293,1.4305,1.4327,0.0,0.0,0.0,0.0,0.0,0.0,0.0,0.0,0.0,0.0,0.8318,0.9833,0.9938,1.0112,1.0284,1.0427,1.0568,1.0721,1.0892,0.0,0.0,0.0,0.0,0.0,1.2162,1.2222,1.2307,1.245,1.245,1.2461,1.2501,1.2501,1.2501,1.2501,1.2501,1.2501,1.2501,1.2501,1.2501,1.2501,1.2501,1.2501,1.2501,0.0,0.0,0.0,0.0,0.0,0.0,0.0,0.0,0.0,0.0,0.0,0.0,0.0,0.0,0.0,0.0,0.0,0.0,0.0,0.0,0.0,0.0,0.0,0.0,0.0,0.0,0.0,0.0,0.0,0.0,0.0,1.2915,1.2915,1.2915,1.2915,1.2945,1.2986,1.3173,1.3292,1.3292,1.3525,1.369,1.369,1.3765,1.3907,1.4152,1.4166,1.425,1.4455,1.4543,1.4584,1.4584,1.4665,1.4706,1.4706,1.4706,1.4706,1.4694,1.4855,1.4898,1.4852,1.5006,1.5047,1.5035,1.5035,1.5047,1.5027,1.4706,1.4471,1.4293,1.4293,1.4573,1.4952,0.0,0.0,0.0,0.0,0.0,0.0,0.0,0.0,0.0,0.0,0.8692,0.9947,0.9992,1.0235,1.0421,1.0495,1.0674,1.0855,1.1021,0.0,0.0,0.0,1.1924,1.2098,1.2294,1.2355,1.242,1.2501,1.2501,1.2501,1.2501,1.2501,1.2501,1.2501,1.2501,1.2501,1.2501,1.2501,1.2501,1.2501,1.2501,1.2501,1.2501,1.2501,1.2501,1.2501,1.2501,1.2501,1.2501,1.2501,0.0,0.0,0.0,0.0,0.0,0.0,0.0,0.0,0.0,0.0,0.0,0.0,0.0,0.0,0.0,0.0,0.0,0.0,0.0,0.0,0.0,0.0,0.0,0.0,1.3166,1.3207,1.3326,1.3241,1.3186,1.3244,1.3444,1.3576,1.3576,1.3836,1.4013,1.4013,1.4117,1.4266,1.4464,1.4471,1.4541,1.4699,1.4778,1.4823,1.4823,1.4884,1.4911,1.4911,1.4911,1.4911,1.4918,1.5029,1.5059,1.503,1.5147,1.5204,1.5204,1.5204,1.5204,0.0,0.0,0.0,0.0,0.0,1.49,1.5202,0.0,0.0,0.0,0.0,0.0,0.0,0.0,0.0,0.0,0.0,0.0,1.0072,1.0034,1.0308,1.0508,1.0514,1.0745,1.099,0.0,0.0,1.1809,1.1829,1.2135,1.2307,1.2321,1.2433,1.2501,1.2501,1.2501,1.2501,1.2501,1.2501,1.2501,1.2501,1.2501,1.2501,1.2501,1.2501,1.2501,1.2501,1.2501,1.2501,1.2501,1.2501,1.2501,1.2501,1.2501,1.2501,1.2501,1.2501,0.0,0.0,0.0,0.0,0.0,0.0,0.0,0.0,0.0,0.0,0.0,0.0,0.0,0.0,0.0,0.0,0.0,0.0,0.0,0.0,0.0,0.0,0.0,0.0,1.3451,1.3529,1.3772,1.3637,1.3529,1.3609,1.3765,1.386,1.386,1.4148,1.4346,1.4346,1.4568,1.4712,1.4733,0.0,0.0,0.0,0.0,1.5021,1.5021,1.5163,1.522,1.522,1.524,1.5247,1.5235,1.5235,1.5223,1.52,1.52,1.52,1.52,1.52,1.52,1.5205,1.5194,1.5204,1.5204,1.5204,1.5204,1.5204,0.0,0.0,0.0,0.0,0.0,0.0,0.0,0.0,0.0,0.9454,0.9927,1.0077,1.023,1.04,1.0541,1.0647,1.0813,1.1029,0.0,1.1644,1.1866,1.2031,1.2215,1.2355,1.2461,1.2488,1.2501,1.2501,1.2501,1.2501,1.2501,1.2501,1.2501,1.2501,1.2501,1.2501,1.2501,1.2501,1.2501,1.2501,1.2501,1.2501,1.2501,1.2501,1.2501,1.2501,1.2501,1.2501,1.2501,1.2501,1.2501,1.2501,1.2501,1.2498,0.0,0.0,0.0,0.0,0.0,0.0,0.0,0.0,0.0,0.0,0.0,0.0,0.0,0.0,0.0,0.0,0.0,0.0,0.0,1.3677,1.3724,1.3745,1.3788,1.3996,1.4041,1.3792,1.4019,1.42,1.42,1.446,1.4624,1.4624,1.4672,1.4771,1.4928,1.4941,1.4989,1.5104,1.5138,1.5163,1.5163,1.5289,1.5352,1.5359,0.0,0.0,1.5439,1.5439,1.5355,1.5204,1.5204,1.5204,1.5204,1.5204,1.5204,1.5208,1.5205,1.5204,1.5204,1.5204,1.5204,1.5204,0.0,0.0,0.0,0.0,0.0,0.0,0.0,0.0,0.0,0.0,1.0071,1.0214,1.0379,1.0521,1.0653,1.0786,1.1009,0.0,1.1583,1.1823,1.2022,1.2188,1.2328,1.2427,1.2501,1.2501,1.2501,1.2501,1.2501,1.2501,1.2501,1.2501,1.2542,1.2597,1.2597,1.2657,1.2752,1.2752,1.2752,1.2752,1.2752,1.2752,1.2728,1.2562,1.2501,1.2515,1.258,1.2597,1.262,1.2724,1.2752,1.2752,1.2752,1.2752,1.2752,0.0,0.0,0.0,0.0,0.0,0.0,0.0,0.0,0.0,0.0,0.0,0.0,0.0,0.0,1.3434,1.3583,0.0,1.3685,1.3908,1.401,1.4074,1.4148,1.4351,1.4385,1.4098,1.4328,1.45,1.45,1.4715,1.4855,1.4855,1.4911,1.4997,1.5084,1.5102,1.5158,1.5301,1.5296,1.5337,1.5399,1.5474,1.5503,1.5503,1.5565,1.5563,1.5502,1.5526,1.5417,1.5217,1.5514,1.5654,1.5654,1.5654,1.5654,1.5652,1.5659,1.5471,1.5202,1.5202,1.5202,1.5202,0.0,0.0,0.0,0.0,0.0,0.0,0.0,0.0,0.0,0.0,1.0211,1.0353,1.0489,1.0621,1.0767,0.0,0.0,1.1509,1.1782,1.1988,1.2156,1.2294,1.2427,1.2501,1.2501,1.2501,1.2501,1.2501,1.2501,1.2501,1.2501,1.2528,1.26,1.2702,1.2739,1.285,1.3003,1.3003,1.3003,1.3003,1.3003,1.3003,1.2975,1.2694,1.2599,1.261,1.2722,1.2763,1.2783,1.2952,1.3003,1.3003,1.3003,1.3003,1.3003,1.3003,1.3003,0.0,0.0,0.0,0.0,0.0,0.0,0.0,0.0,1.3315,1.3474,1.3474,1.3654,1.3808,1.3846,1.388,1.3958,1.4158,1.4285,1.4428,1.4514,1.4663,1.4688,1.4462,1.4627,1.4764,1.4764,1.4934,1.5034,1.5034,1.5143,1.5206,1.5233,1.524,1.5296,1.5428,1.544,1.5489,1.5599,1.5645,1.5648,1.5638,1.5684,1.5674,1.5621,1.567,1.5585,1.5395,1.5885,1.6099,1.6099,1.6099,1.6099,1.6099,1.6099,1.5799,1.5369,1.5373,1.5369,1.5369,0.0,0.0,0.0,0.0,0.0,0.0,0.0,0.0,0.0,0.0,0.0,0.0,0.0,0.0,0.0,0.0,1.1311,1.1509,1.1782,1.1988,1.2156,1.2294,1.2427,1.2501,1.2501,1.2501,1.2501,1.2501,1.2501,1.2501,1.2498,1.2617,1.2692,1.2702,1.2894,1.2972,1.3003,1.3003,1.3003,1.3003,1.3003,1.3003,1.2996,1.2962,1.2938,1.2955,1.2959,1.2975,1.2965,1.2986,1.3003,1.3003,1.3003,1.3003,1.3003,1.3003,1.3003,1.303,1.3142,1.3258,1.3417,1.3643,1.3616,1.3555,0.0,1.3727,1.3758,1.3758,1.3774,1.3853,1.4032,1.4156,1.4292,1.443,1.4568,1.4665,1.4678,1.4837,1.4953,1.4937,1.4946,1.4966,1.4966,1.5084,1.5184,1.5184,1.5186,1.5253,1.5365,1.5384,1.544,1.5572,1.5579,1.5585,1.5606,1.5776,1.5844,1.5781,1.5964,1.6041,1.6028,1.604,1.6028,1.6002,1.6072,1.6098,1.6098,1.6098,1.6098,1.6098,1.6098,1.606,1.5993,1.5998,1.5999,1.5999,0.0,0.0,0.0,0.0,0.0,0.0,0.0,0.0,0.0,0.0,0.0,0.0,0.0,0.0,0.0,1.1186,1.1391,1.1647,1.1945,1.2054,1.2188,1.2416,1.2467,1.2501,1.2501,1.2501,1.2501,1.2501,1.2501,1.2501,1.2498,1.2638,1.276,1.2878,1.3037,1.3163,1.3224,1.3224,1.3224,1.3224,1.3224,1.3224,1.3224,1.3224,1.3224,1.3217,1.3139,1.3125,0.0,0.0,1.3224,1.3224,1.3224,1.3285,1.3349,1.3349,1.34,1.3474,1.3535,1.3586,1.3667,1.3768,1.3765,1.3727,1.3792,1.3891,1.3962,1.3962,1.4098,1.4229,1.4319,1.4444,1.4554,1.4609,1.4762,1.4875,1.4875,1.5009,1.5116,1.5116,1.5116,1.5116,1.5116,1.517,1.5233,1.5309,1.5316,1.5372,1.5509,1.5523,1.5603,1.5769,1.5852,1.5891,1.5892,1.6096,1.6115,1.5973,1.6217,1.6252,1.6101,1.6097,1.6293,1.6613,1.6613,1.6613,1.6613,1.6613,1.6613,1.6613,1.6613,1.6613,1.6579,1.6231,1.6101,1.6101,0.0,0.0,0.0,0.0,0.0,0.0,0.0,0.0,0.0,0.0,0.0,0.0,0.0,0.0,1.12,1.12,1.1477,1.178,1.2084,1.2129,1.2256,1.2488,1.2501,1.2501,1.2501,1.2501,1.2501,1.2501,1.2501,1.2501,1.2498,1.2695,1.2864,1.3009,1.3183,1.3305,1.3403,1.3403,1.3403,1.3403,1.3403,1.3403,1.3403,1.3403,1.3403,1.339,1.3285,1.3254,0.0,0.0,1.3464,1.3461,1.3502,1.3579,1.3657,1.3657,1.3714,1.3808,1.387,1.3839,1.3822,1.3914,1.3918,1.3904,1.3985,1.4116,1.4215,1.4256,1.4428,1.4566,1.4566,1.4676,1.4778,1.4778,1.4941,1.5066,1.5066,1.5143,1.5213,1.5253,1.526,1.5274,1.5315,1.5281,1.5309,1.5447,1.546,1.5516,1.5665,1.5712,1.582,1.5999,1.6136,1.6202,1.6184,1.6331,1.6303,1.6105,1.6299,1.6384,1.6346,1.6524,1.6834,1.7253,1.7253,1.7253,1.7253,1.7253,1.7253,1.7253,1.7253,1.7253,1.7199,1.6758,1.6494,1.6343,0.0,0.0,0.0,0.0,0.0,0.0,0.0,0.0,0.0,0.0,0.0,0.0,0.0,0.0,1.12,1.12,1.1556,1.1882,1.2091,1.2222,1.2355,1.2494,1.2501,1.2501,1.2501,1.2501,1.2501,1.2501,1.2501,1.2501,1.2508,1.2843,1.2986,1.3016,1.3282,1.3397,1.3403,1.3403,1.3403,1.3403,1.3403,1.3403,1.3403,1.3403,1.3403,1.3403,1.3397,0.0,0.0,1.3552,1.3589,1.3616,1.3751,1.3788,1.3788,1.3788,1.3805,1.3839,1.4032,1.3953,1.388,1.42,1.4188,1.4165,1.4428,1.4484,1.4514,1.4651,1.4692,1.4687,1.4687,1.4862,1.4987,1.4987,1.5109,1.5186,1.5186,1.5204,1.5247,1.5372,1.5393,1.5447,1.5572,1.5469,1.5454,1.5585,1.5599,1.5684,1.5875,1.6013,1.615,1.628,1.6423,1.6459,1.6395,1.6402,1.6295,1.6105,1.6108,1.6409,1.6995,1.758,1.7863,1.7863,1.7863,1.7863,1.7863,1.7863,1.7863,1.7863,1.7863,1.7863,1.7863,1.7856,1.7475,1.6965,0.0,0.0,0.0,0.0,0.0,0.0,0.0,0.0,0.0,0.0,0.0,0.0,0.0,0.0,0.0,0.0,1.1484,1.1787,1.2084,1.2136,1.2262,1.2488,1.2501,1.2501,1.2501,1.2501,1.2501,1.2501,1.2501,1.2501,1.2508,1.2833,1.3003,1.3016,1.3278,1.3403,1.3403,1.3403,1.3403,1.3403,1.3403,1.3403,1.3403,1.3403,1.3464,1.3532,0.0,0.0,0.0,1.369,1.3727,1.3745,1.3792,1.3891,1.4014,1.4105,1.4132,1.4145,1.4211,1.4183,1.4179,1.4383,1.4401,1.4403,1.4595,1.4631,1.4656,1.4692,1.481,1.4907,1.4907,1.5023,1.5136,1.5136,1.5177,1.5204,1.5204,1.5281,1.535,1.5393,1.5475,1.5597,1.5783,1.5637,1.5609,1.5795,1.5872,1.6001,1.6163,1.6293,1.6366,1.6373,1.6534,1.6498,1.6197,1.6604,1.6976,1.729,1.7291,1.7399,1.7602,1.7813,1.7896,1.7901,1.7901,1.79,1.7904,1.7904,1.7904,1.7904,1.7904,1.7904,1.7904,1.7904,1.7761,1.7599,0.0,0.0,0.0,0.0,0.0,0.0,0.0,0.0,0.0,0.0,0.0,0.0,0.0,0.0,0.0,0.0,0.0,1.1732,1.2077,1.2143,1.2269,1.2488,1.2501,1.2501,1.2501,1.2501,1.2501,1.2501,1.2501,1.2501,1.2508,1.2769,1.2928,1.3009,1.3234,1.3359,1.3403,1.3403,1.3403,1.3403,1.3403,1.3403,1.3403,1.3403,1.3488,0.0,0.0,0.0,1.3793,1.3881,1.3915,1.3922,1.3954,1.4098,1.4249,1.4285,1.4333,1.4362,1.4362,1.4362,1.4403,1.4534,1.4568,1.4609,1.4764,1.481,1.4812,1.4877,1.4977,1.5068,1.5068,1.5143,1.5204,1.5204,1.524,1.5274,1.5274,1.5398,1.5501,1.5573,1.5655,1.5798,1.6019,1.5934,1.5901,1.6033,1.6163,1.6307,1.6437,1.6592,1.6664,1.6622,1.6815,1.6756,1.6422,1.6813,1.7304,1.7895,1.7902,1.7902,1.7894,1.7894,1.7899,1.7905,1.8137,1.8219,1.8215,1.8215,1.8215,1.8215,1.8215,1.8215,1.8215,1.8215,1.8215,1.8196,0.0,0.0,0.0,0.0,0.0,0.0,0.0,0.0,0.0,0.0,0.0,0.0,0.0,0.0,0.0,0.0,0.0,0.0,1.2077,1.2215,1.2355,1.2494,1.2501,1.2501,1.2501,1.2501,1.2501,1.2501,1.2501,1.2498,1.2505,1.2651,1.2827,1.3016,1.3149,1.3278,1.3403,1.3403,1.3403,1.3403,1.3403,1.3403,1.3403,1.3403,1.3488,1.3623,1.3747,1.3935,1.4104,1.4104,1.4104,1.4131,1.4262,1.4394,1.4464,1.4346,1.4396,1.4505,1.4511,1.4511,1.4541,1.4678,1.4719,1.4771,1.4966,1.5007,1.5053,1.5165,1.5204,1.5204,1.5204,1.5204,1.5204,1.5204,1.5309,1.5399,1.5399,1.5523,1.5691,1.5882,1.5922,1.6019,1.628,1.6334,1.6341,1.6341,1.6457,1.6586,1.6722,1.6904,1.7014,1.7022,1.7183,1.721,1.7048,1.7044,1.7344,1.795,1.7944,1.7954,1.7954,1.7954,1.7954,1.7988,1.854,1.8809,1.8809,1.8809,1.8809,1.8809,1.8809,1.8809,1.8809,1.8809,1.8809,1.8717,0.0,0.0,0.0,0.0,0.0,0.0,0.0,0.0,0.0,0.0,0.0,0.0,0.0,0.0,0.0,0.0,0.0,0.0,1.207,1.2129,1.2265,1.2488,1.2501,1.2501,1.2501,1.2501,1.2501,1.2501,1.2501,1.2553,1.2648,1.2837,1.3003,1.3146,1.3285,1.3373,1.3403,1.3403,1.3403,1.3403,1.3403,1.3403,1.3403,1.3403,1.3549,1.3747,1.3788,1.3992,1.4256,1.4256,1.4256,1.4251,1.4285,1.4326,1.4356,1.4423,1.4471,1.4525,1.4618,1.4645,1.4685,1.4887,1.4921,1.4962,1.5104,1.515,1.5163,1.5186,1.5204,1.5204,1.5204,1.5204,1.5204,1.5204,1.5309,1.5399,1.5399,1.5635,1.5877,1.6033,1.6136,1.6266,1.6436,1.6673,1.6822,1.6822,1.6856,1.6931,1.7073,1.7169,1.7251,1.7304,1.7144,1.7269,1.7672,1.7672,1.7975,1.857,1.8562,1.8569,1.8569,1.8569,1.8567,1.8584,1.8727,1.8803,1.8805,1.8805,1.8805,1.8805,1.8805,1.8805,1.8805,1.8805,1.8805,1.8776,0.0,0.0,0.0,0.0,0.0,0.0,0.0,0.0,0.0,0.0,0.0,0.0,0.0,0.0,0.0,0.0,0.0,0.0,0.0,1.2054,1.2197,1.24,1.2467,1.2501,1.2501,1.2501,1.2501,1.2501,1.2501,1.2539,1.2611,1.2728,1.2904,1.3125,1.3186,1.3292,1.3403,1.3403,1.3403,0.0,0.0,1.3403,1.3403,1.3403,1.3535,1.3724,1.3774,1.4019,1.4299,1.4299,1.4299,1.4299,1.4299,1.4376,1.4484,1.4498,1.4593,1.4744,1.481,1.483,1.4864,1.5036,1.5089,1.5109,1.5179,1.5204,1.5204,1.5204,1.5204,1.5204,1.5204,1.5204,1.522,1.5281,1.5399,1.5521,1.5606,1.5878,1.6095,1.6183,1.6313,1.6432,1.6571,1.6759,1.6954,1.7163,1.7182,1.7223,1.7372,1.7406,1.7485,1.7619,1.7468,1.7677,1.8284,1.8292,1.8466,1.8807,1.8805,1.8797,1.8797,1.8797,1.8803,1.8799,0.0,1.8804,1.8806,1.8806,1.8806,1.8806,1.8806,1.8806,1.8806,1.8806,1.8806,1.8806,0.0,0.0,0.0,0.0,0.0,0.0,0.0,0.0,0.0,0.0,0.0,0.0,0.0,0.0,0.0,0.0,0.0,0.0,0.0,0.0,1.2127,1.2294,1.2406,1.2481,1.2501,1.2501,1.2501,1.2501,1.2501,1.2515,1.2528,1.2528,1.2694,1.3003,1.3003,1.3142,1.337,1.337,1.3383,1.3403,1.3403,1.3403,1.3403,0.0,0.0,1.3616,1.3778,1.4044,1.4299,1.4299,1.4299,1.4306,1.4326,1.4491,1.4658,1.4586,1.4771,1.5,1.5014,1.5032,1.5055,1.5177,1.5204,1.5204,1.5204,1.5204,1.5204,1.5204,1.5204,1.5204,1.5204,1.5213,1.5255,1.5379,1.553,1.5698,1.5888,1.6129,1.6308,1.6321,1.647,1.6616,1.6735,1.6789,1.6983,1.737,1.7439,1.7528,1.7635,1.764,1.7753,1.8012,1.8026,1.827,1.8787,1.8805,1.8802,1.8802,1.8795,1.8806,1.8806,1.8806,1.8806,1.8806,1.8806,1.8806,1.8806,1.8806,1.8806,1.8806,1.8806,1.8806,1.8806,1.8806,1.8806,1.8806,0.0,0.0,0.0,0.0,0.0,0.0,0.0,0.0,0.0,0.0,1.0299,1.04,0.0,0.0,0.0,0.0,0.0,0.0,0.0,0.0,0.0,1.2287,1.2321,1.2389,1.2501,1.2501,1.2501,1.2501,1.2501,1.2559,1.2672,1.2672,1.2786,1.3003,1.3003,1.3098,1.3234,1.3234,1.3298,1.3403,1.3403,1.3403,1.3403,0.0,0.0,0.0,1.3933,1.4161,1.4299,1.4299,1.4299,1.4319,1.4423,1.4498,1.4586,1.4833,1.4953,1.5021,1.5136,1.517,1.5177,1.5186,1.5204,1.5204,1.5204,1.5204,1.5204,1.5204,1.5204,1.5204,1.5204,1.5289,1.5365,1.5393,1.5654,1.5862,1.5901,1.6129,1.6341,1.6444,1.6734,1.6912,1.6949,1.7244,1.7426,1.7397,1.766,1.7815,1.7849,1.7848,1.8094,1.8636,1.8641,1.8681,1.8795,1.8795,1.8801,1.8801,1.8807,1.8806,1.8806,1.8806,1.8806,1.8806,1.8806,0.0,1.8806,1.8806,1.8806,1.8806,1.8806,1.8806,1.8806,1.8806,1.8806,1.8806,0.0,0.0,0.0,0.0,0.0,0.0,0.0,0.9799,0.9888,1.0112,1.0237,1.04,1.0674,1.0701,1.0745,0.0,0.0,0.0,0.0,0.0,0.0,0.0,0.0,0.0,1.2501,1.2501,1.2501,1.2501,0.0,1.2526,1.26,1.26,1.2681,1.284,1.284,1.2942,1.3095,1.3169,1.3234,1.3298,1.337,1.3403,0.0,0.0,0.0,0.0,1.3888,1.4102,1.4299,1.4299,1.4299,1.4326,1.4457,1.4552,1.4661,1.4914,1.5048,1.5123,1.5179,1.5204,1.5204,1.5204,1.5204,1.5204,1.5204,1.5204,1.5204,1.5204,1.5204,1.522,1.5289,1.5364,1.5459,1.5627,1.5801,1.5943,1.6094,1.6279,1.6491,1.6734,1.6899,1.7055,1.719,1.7268,1.7393,1.7638,1.7818,1.7905,1.7902,1.7895,1.8174,1.8784,1.8805,1.8795,1.8806,1.8806,1.8806,1.8806,1.8806,1.8806,1.8806,1.8806,1.8806,1.8806,1.8806,1.8806,1.8806,1.8806,1.8806,1.8806,1.8806,1.8806,1.8806,1.8806,1.8806,1.8806,0.0,0.0,0.0,0.0,0.0,0.0,0.0,0.9799,0.9846,0.9986,1.0174,1.0386,1.0626,1.0687,1.0747,0.0,0.0,0.0,0.0,0.0,0.0,0.0,0.0,0.0,1.2454,0.0,0.0,1.2501,1.2501,0.0,0.0,0.0,0.0,0.0,1.2658,1.2756,1.2935,1.3051,1.3118,0.0,0.0,1.3359,0.0,0.0,0.0,0.0,0.0,1.3999,1.4258,1.4292,1.4319,1.4373,1.4505,1.4622,1.4758,1.4987,1.5116,1.5204,1.5204,1.5204,1.5204,1.5204,1.5204,1.5204,1.5204,1.5204,1.5204,1.5204,1.5204,1.524,1.5384,1.5426,1.5535,1.5848,1.5943,1.606,1.6267,1.6477,1.6694,1.6964,1.7082,1.7204,1.7377,1.7269,1.7441,1.8042,1.8091,1.8088,1.8094,1.8094,1.8309,1.8791,1.8806,1.8806,1.8806,1.8806,1.8806,1.8806,1.8806,1.8806,1.8806,1.8806,1.8806,1.8806,1.8806,1.8806,1.8806,1.8806,1.8806,1.8806,1.8806,1.8806,1.8806,1.8806,1.8806,1.8806,0.0,0.0,0.0,0.0,0.0,0.0,0.0,0.9799,0.9846,0.9986,1.0174,1.0353,1.0502,1.0628,1.0699,0.0,0.0,0.0,0.0,0.0,0.0,0.0,0.0,0.0,0.0,0.0,0.0,1.2501,1.2501,0.0,0.0,0.0,0.0,0.0,0.0,1.26,1.2733,1.2736,0.0,0.0,0.0,0.0,0.0,0.0,0.0,0.0,0.0,1.3935,1.4137,1.4262,1.4376,1.4505,1.4638,1.4692,1.476,1.5091,1.5197,1.5204,1.5204,1.5204,1.5204,1.5204,1.5204,1.5204,1.5204,1.5204,1.5204,1.5204,1.5204,1.524,1.5384,1.5503,1.5645,1.5862,1.6102,1.6267,1.6294,1.6673,1.6977,1.7004,1.7324,1.7507,1.7411,1.7652,1.807,1.8671,1.8724,1.8718,1.8719,1.8718,1.8742,1.8806,1.8806,1.8806,1.8806,1.8806,1.8806,1.8806,1.8806,1.8806,1.8806,1.8806,1.8806,1.8806,1.8806,1.8806,0.0,1.8806,1.8806,1.8806,1.8806,1.8806,1.8806,1.8806,1.8806,1.8806,0.0,0.0,0.0,0.0,0.0,0.0,0.9806,0.9799,0.9819,0.9873,1.0127,1.0319,1.0374,1.0567,1.0701,1.0701,0.0,0.0,0.0,0.0,0.0,0.0,0.0,0.0,0.0,0.0,1.2413,1.2501,1.2501,0.0,0.0,0.0,0.0,0.0,0.0,1.2526,1.2577,1.2672,0.0,0.0,0.0,0.0,0.0,0.0,0.0,0.0,0.0,0.0,1.4117,1.4251,1.4394,1.4514,1.4658,1.4778,1.4916,1.5143,1.5204,1.5204,1.5204,1.5204,1.5204,1.5204,1.5204,1.5204,1.5204,1.5204,1.5204,1.5204,1.5255,1.5352,1.5496,1.5657,1.583,1.5992,1.6183,1.6362,1.6525,1.6705,1.6948,1.7324,1.729,1.7355,1.7666,1.7817,1.8159,1.8741,1.8793,1.8804,1.8804,1.8801,1.8806,1.8806,1.8806,1.8806,1.8806,1.8806,1.8806,1.8806,1.8806,1.8806,1.8806,1.8806,1.8806,1.8806,1.8806,1.8806,0.0,1.8806,1.8802,1.8795,1.8795,1.8805,1.8799,1.8799,1.8799,1.8799,0.0,0.0,0.0,0.0,0.0,0.9795,0.9806,0.9799,0.9799,0.9799,1.0038,1.0229,1.0292,1.0507,1.0662,1.0701,1.0794,0.0,0.0,0.0,0.0,0.0,0.0,0.0,0.0,0.0,1.2348,1.244,1.2481,1.2501,0.0,0.0,1.2501,1.2501,0.0,0.0,0.0,0.0,0.0,0.0,0.0,0.0,0.0,0.0,0.0,0.0,0.0,0.0,0.0,0.0,0.0,1.4575,1.4672,1.4875,1.5075,1.5177,1.5204,1.5204,1.5204,1.5204,1.5204,1.5204,1.5204,1.5204,1.5204,1.5204,1.5204,1.5204,1.5315,1.5435,1.5572,1.5757,1.5957,1.6129,1.6273,1.6438,1.6671,1.6801,1.7036,1.7493,1.7382,1.7432,1.7861,1.8062,1.8333,1.8771,1.8806,1.8806,1.8806,1.8806,1.8806,1.8806,1.8806,1.8806,1.8806,1.8806,1.8806,1.8806,1.8806,1.8806,1.8806,1.8802,1.8801,1.8801,1.8805,1.8797,0.0,1.8797,1.8805,1.8818,1.9002,1.907,1.9063,1.9063,1.9063,1.9063,0.0,0.0,0.0,0.0,0.0,0.0,0.9798,0.9799,0.9799,0.9799,0.9919,1.0076,1.0279,1.042,1.0563,1.0687,1.0699,0.0,0.0,0.0,0.0,0.0,0.0,0.0,0.0,0.0,1.2301,1.2301,1.2433,1.2501,1.2501,1.2501,1.2501,1.2501,0.0,0.0,0.0,0.0,0.0,0.0,0.0,0.0,1.3214,0.0,0.0,0.0,0.0,0.0,0.0,0.0,0.0,0.0,0.0,1.4932,1.5204,1.5204,1.5204,1.5204,1.5204,1.5204,1.5204,1.5204,1.5204,1.5204,1.5204,1.5204,1.5204,1.5204,1.5315,1.5435,1.5572,1.5757,1.5991,1.6247,1.6416,1.6548,1.6675,1.7036,1.7318,1.7391,1.7686,1.7888,1.7902,1.844,1.8793,1.8807,1.8806,1.8806,1.8806,1.8806,1.8806,1.8806,1.8806,1.8806,1.8806,1.8806,1.8806,1.8806,1.8806,1.8806,1.8806,1.8801,1.8795,1.8795,1.8796,1.8803,0.0,1.8803,1.8803,1.8863,1.9462,1.9692,1.9692,1.9692,1.9692,1.9692,0.0,0.0,0.0,0.0,0.0,0.0,0.0,0.9799,0.9799,0.9799,0.9919,1.0076,1.0279,1.0421,1.0555,1.0687,1.0701,0.0,0.0,0.0,0.0,0.0,0.0,0.0,0.0,0.0,0.0,1.2301,1.2338,1.2406,1.2501,1.2501,1.2501,1.2501,1.2501,1.2501,0.0,0.0,0.0,0.0,0.0,1.2905,1.3084,0.0,0.0,0.0,0.0,0.0,0.0,0.0,0.0,0.0,0.0,0.0,0.0,1.5204,1.5204,1.5204,1.5204,1.5204,1.5204,1.5204,1.5204,1.5204,1.5204,1.5204,1.5204,1.5204,1.5379,1.5545,1.5592,1.5839,1.6088,1.6267,1.6365,1.6543,1.6862,1.7009,1.7263,1.7689,1.8203,1.852,1.8524,1.8687,1.8795,1.8806,1.8806,1.8806,1.8806,1.8806,1.8806,1.8806,1.8806,1.8806,1.8806,1.8806,1.8806,1.8806,1.8805,1.8801,1.8801,1.8803,1.9025,1.9423,1.9412,1.9418,1.9418,1.9418,1.9427,1.9426,1.962,1.9696,1.9703,1.9703,1.9703,1.9703,0.0,0.0,0.0,0.0,0.0,0.0,0.0,0.9799,0.9799,0.9799,0.9873,1.0022,1.0272,1.0366,1.0502,1.0679,1.0701,0.0,0.0,0.0,0.0,0.0,0.0,0.0,0.0,0.0,0.0,0.0,0.0,1.2338,1.2429,1.2474,1.2501,1.2501,1.2501,1.2501,0.0,0.0,0.0,0.0,1.2651,1.282,1.3006,0.0,0.0,0.0,0.0,0.0,0.0,0.0,0.0,0.0,0.0,0.0,0.0,0.0,1.5204,1.5204,1.5204,1.5204,1.5204,1.5204,1.5204,1.5204,1.5204,1.5204,1.5213,1.5267,1.5454,1.5619,1.5698,1.5932,1.6151,1.6304,1.6395,1.6567,1.6956,1.6995,1.7227,1.7829,1.8423,1.8799,1.8793,1.8795,1.8806,1.8806,1.8806,1.8806,1.8806,1.8806,1.8806,1.8806,1.8806,1.8806,1.8806,1.8802,1.8807,1.8807,1.8795,1.8927,1.914,1.9142,1.9336,1.9708,1.9696,1.9701,0.0,1.9701,1.9696,1.9703,1.9703,1.9697,1.971,1.971,1.971,1.971,0.0,0.0,0.0,0.0,0.0,0.0,0.0,0.9799,0.9799,0.9799,0.9799,0.993,1.0265,1.0299,1.0407,1.068,0.0,0.0,0.0,0.0,0.0,0.0,0.0,0.0,0.0,1.1723,1.1796,1.1802,1.2128,1.2287,1.2301,0.0,1.2501,1.2501,1.2501,1.2501,0.0,0.0,0.0,0.0,1.2638,1.2813,0.0,0.0,0.0,0.0,0.0,0.0,0.0,0.0,0.0,0.0,0.0,0.0,0.0,0.0,0.0,0.0,0.0,1.5204,1.5204,1.5204,1.5204,1.5204,1.5204,1.5218,0.0,1.5365,1.5516,1.5684,1.5862,1.6013,1.6166,1.6342,1.6434,1.6596,1.6942,1.7039,1.7288,1.7886,1.8458,1.8808,1.8807,1.8806,1.8806,1.8806,1.8806,1.8806,1.8806,1.8806,1.8806,1.8806,1.8797,1.8797,1.8797,1.8801,1.8824,1.8859,1.8861,1.9157,1.9698,1.9701,1.9695,0.0,1.9702,1.971,1.971,1.971,1.971,1.971,1.971,1.971,1.971,1.971,1.971,1.971,0.0,0.0,0.0,0.0,0.0,0.0,0.0,0.0,0.0,0.0,0.9799,0.993,1.0265,1.0299,1.0407,0.0,0.0,0.0,0.0,0.0,0.0,0.0,0.0,0.0,0.0,1.1583,1.1703,1.1802,1.2029,1.2204,1.2301,1.2443,0.0,0.0,1.2501,0.0,0.0,0.0,0.0,0.0,1.2532,1.2728,0.0,0.0,0.0,0.0,1.3704,1.3795,0.0,0.0,0.0,0.0,0.0,0.0,0.0,0.0,1.5204,0.0,1.5204,0.0,1.5204,1.5204,1.5204,1.5204,0.0,1.5287,1.5352,1.5393,1.5634,1.5824,1.5821,1.5982,1.6117,1.6164,1.6177,1.638,1.6921,1.7401,1.7916,1.852,1.8707,1.8808,1.8807,1.8806,1.8806,1.8806,1.8806,1.8806,1.8806,1.8806,1.8806,1.8806,1.8805,1.88,1.88,1.8804,1.9025,1.9488,1.9491,1.9566,1.9701,1.9693,1.9701,1.9701,1.9705,1.971,1.971,1.971,1.971,1.971,1.971,1.971,1.971,1.971,1.971,1.971,0.0,0.0,0.0,0.0,0.0,0.0,0.0,0.0,0.0,0.0,0.0,0.0,0.0,0.0,0.0,0.0,0.0,0.0,0.0,0.0,0.0,0.0,0.0,0.0,0.0,1.1529,1.1635,1.1708,1.1884,1.2052,0.0,0.0,0.0,0.0,1.2501,0.0,0.0,0.0,0.0,1.2501,1.2501,0.0,0.0,0.0,0.0,0.0,1.3704,1.3795,0.0,1.4186,1.4484,1.4706,0.0,0.0,0.0,0.0,1.5204,1.5204,1.5204,1.5204,1.5204,1.5204,1.5204,1.5204,1.5204,1.526,1.5329,1.5428,1.5604,1.5799,1.5916,1.6031,1.6094,1.6107,1.6328,1.6723,1.7329,1.7689,1.812,1.8729,1.8803,1.8804,1.8806,1.8806,1.8806,1.8806,1.8806,1.8806,1.8806,1.8806,1.8796,1.8805,1.8805,1.8795,1.8795,1.9069,1.9378,1.9692,1.97,1.9693,1.9693,1.9706,1.971,1.971,1.971,1.971,1.971,1.971,1.971,1.971,1.971,1.971,1.971,1.971,1.971,1.971,0.0,0.0,0.0,0.0,0.0,0.0,0.0,0.0,0.0,0.0,0.0,0.0,0.0,0.0,0.0,0.0,0.0,0.0,0.0,0.0,0.0,0.0,0.0,1.1252,1.1372,1.1522,1.1602,1.1602,1.1735,1.1902,1.2104,1.2235,1.2366,1.2501,1.2501,0.0,0.0,0.0,1.2501,1.2501,1.2501,0.0,0.0,0.0,0.0,0.0,0.0,0.0,0.0,1.4186,1.4484,1.4706,1.4706,0.0,0.0,0.0,0.0,0.0,1.5204,1.5204,1.5204,1.5204,1.5204,1.5211,1.5238,1.5235,1.5306,1.5502,1.5626,1.5754,1.6052,1.6101,1.6134,1.6218,1.6735,1.7318,1.7835,1.7987,1.8227,1.8733,1.8804,1.8806,1.8806,1.8806,1.8806,1.8806,1.8806,1.8806,1.8806,1.8797,1.8807,1.8795,1.8887,1.8943,1.8943,1.9446,1.9695,1.97,1.9702,1.971,1.971,1.971,1.971,1.971,0.0,0.0,1.971,1.971,1.971,1.971,1.971,1.971,1.971,1.971,1.971,1.971,0.0,0.0,0.0,0.0,0.0,0.0,0.0,0.0,0.0,0.0,0.0,0.0,0.0,0.0,0.0,0.0,0.0,0.0,0.0,0.0,0.0,0.0,1.1024,1.1206,1.1234,1.1468,1.1602,1.1602,1.1735,1.1902,1.2104,1.2235,1.2366,1.2501,1.2501,1.2501,0.0,0.0,1.2501,1.2501,1.2501,0.0,0.0,0.0,0.0,0.0,0.0,0.0,0.0,1.4186,1.4484,1.4706,1.4706,0.0,0.0,0.0,0.0,0.0,1.5204,1.5204,1.5204,1.5204,1.5204,1.5226,1.5343,1.5409,1.5509,1.5711,1.5903,1.604,1.6088,1.6102,1.6264,1.6785,1.737,1.7786,1.7897,1.8332,1.8695,1.8797,1.8804,1.8806,1.8806,1.8806,1.8806,1.8806,1.8806,1.8806,1.8806,1.8797,1.8804,1.8795,1.9296,1.956,1.956,1.9645,1.9704,1.9706,1.9705,1.971,1.971,1.971,1.971,1.971,0.0,1.971,1.971,1.971,1.971,1.971,1.971,1.971,1.971,1.971,1.971,1.971,0.0,0.0,0.0,0.0,0.0,0.0,0.0,0.0,0.0,0.0,0.0,0.0,0.0,0.0,0.0,0.0,0.0,0.0,0.0,0.0,0.0,1.0701,1.1019,1.12,1.12,1.1463,1.1602,1.1602,1.1735,1.1902,1.2104,1.2307,1.244,1.2501,1.2501,1.2501,1.2501,0.0,1.2501,1.2508,0.0,0.0,0.0,0.0,0.0,0.0,0.0,0.0,0.0,0.0,1.4484,1.4706,1.4706,0.0,0.0,0.0,0.0,0.0,1.5204,1.5204,1.5204,1.5204,1.5204,1.5221,1.5275,1.5316,1.5354,1.5457,1.5807,1.6105,1.6103,1.6371,1.6783,1.7386,1.7723,1.7902,1.7899,1.8415,1.8807,1.8799,1.8801,1.8806,1.8806,1.8806,1.8806,1.8806,1.8806,1.8806,1.8806,1.8795,1.8953,1.9278,1.9556,1.97,1.9692,1.9692,1.9702,1.971,1.971,1.971,1.971,1.971,1.971,1.971,0.0,1.971,1.971,1.971,1.971,1.971,1.971,1.971,1.971,1.971,1.971,1.971,0.0,0.0,0.0,0.0,0.0,0.0,0.0,0.0,0.0,0.0,0.0,0.0,0.0,0.0,0.0,0.0,0.0,0.0,0.0,0.0,1.0713,1.0747,1.104,1.12,1.12,1.1463,1.1602,1.1602,1.1735,1.1922,1.215,1.2389,1.2501,1.2501,1.2501,1.2501,1.2501,1.2501,1.2501,1.2505,0.0,0.0,0.0,0.0,0.0,0.0,0.0,0.0,0.0,0.0,0.0,0.0,0.0,0.0,0.0,1.5204,1.5204,1.5204,1.5204,1.5204,1.5204,1.5204,0.0,1.5205,1.5198,0.0,0.0,0.0,1.5786,1.6103,1.61,1.659,1.7204,1.7796,1.7895,1.7894,1.79,1.8412,1.8799,1.8801,1.8806,1.8806,1.8806,1.8806,1.8806,1.8806,1.8806,1.8797,1.8802,1.8805,1.9085,1.9688,1.9707,1.9693,1.971,1.971,1.971,1.971,1.971,1.971,1.971,1.971,1.971,1.971,1.971,1.971,1.971,1.971,1.971,1.971,1.971,1.971,1.971,1.971,1.971,1.971,0.0,0.0,0.0,0.0,0.0,0.0,0.0,0.0,0.0,0.0,0.0,0.0,0.0,0.0,0.0,0.0,0.0,0.0,0.0,0.0,1.076,1.0885,1.1092,1.12,1.12,1.1463,1.1602,1.1602,1.1735,1.1976,1.2287,1.2427,1.2501,1.2501,1.2501,1.2501,1.2501,1.2501,1.2501,1.2505,1.2651,0.0,0.0,0.0,0.0,0.0,0.0,0.0,0.0,0.0,0.0,0.0,0.0,0.0,1.5204,1.5204,1.5204,1.5204,1.5204,1.5204,1.5204,1.5204,1.5206,0.0,1.5207,0.0,0.0,1.5917,0.0,0.0,1.61,1.659,1.7197,1.78,1.7894,1.7893,1.7898,1.8423,1.8808,1.8807,1.8806,1.8806,1.8806,1.8806,1.8806,1.8806,1.8806,1.8801,1.8804,1.8791,1.9087,1.9675,1.9697,1.9705,1.971,1.971,1.971,1.971,1.971,1.971,1.971,1.971,1.971,1.971,1.971,1.971,1.971,1.971,1.971,1.971,1.971,1.971,1.971,1.971,1.971,1.971,0.0,0.0,0.0,0.0,0.0,0.0,0.0,0.0,0.0,0.0,0.0,0.0,0.0,0.0,0.0,0.0,0.0,0.0,0.0,0.0,1.0845,1.0897,1.117,1.1325,1.1325,1.1511,1.1633,1.1721,1.1981,1.2223,1.2429,1.2474,1.2501,1.2501,1.2501,1.2501,1.2501,1.2501,1.2546,1.2638,1.2823,1.2983,0.0,0.0,0.0,0.0,0.0,0.0,0.0,0.0,1.4548,1.4719,1.4855,1.5036,1.5204,1.5204,1.5204,1.5204,1.5204,1.5204,1.5208,1.5201,0.0,0.0,0.0,0.0,0.0,0.0,1.6102,0.0,0.0,1.7148,1.7629,1.7868,1.7894,1.8026,1.8407,1.8664,1.8808,1.8807,1.8806,1.8806,1.8806,1.8806,1.8806,1.8806,1.8806,1.8801,1.8795,1.9165,1.9456,1.9696,1.9697,1.971,1.971,1.971,1.971,1.971,1.971,1.971,1.971,1.971,1.971,1.971,1.971,1.971,1.971,1.971,1.971,1.971,1.971,1.971,1.971,1.971,1.971,1.971,0.0,0.0,0.0,0.0,0.0,0.0,0.0,0.0,0.0,0.0,0.0,0.0,0.0,0.0,0.0,0.0,0.0,0.0,1.076,1.0852,1.0946,1.1049,1.128,1.1425,1.1463,1.1588,1.1708,1.1802,1.2142,1.2375,1.2501,1.2501,1.2501,1.2501,1.2501,1.2501,1.2498,1.2556,0.0,0.0,1.2969,1.3115,0.0,0.0,0.0,0.0,0.0,0.0,0.0,0.0,1.4588,1.4744,1.4934,1.5089,1.5204,1.5204,1.5204,1.5204,1.5204,1.5204,1.5198,0.0,0.0,0.0,0.0,0.0,0.0,1.6102,1.625,0.0,1.6921,1.7492,1.7894,1.7896,1.7905,1.8114,1.8723,1.8797,1.8799,1.8807,1.8806,1.8806,1.8806,1.8806,1.8806,1.8806,1.8802,1.8795,1.8798,1.9373,1.9696,1.9704,1.9701,1.971,1.971,1.971,1.971,1.971,1.971,1.971,1.971,1.971,1.971,1.971,1.971,1.971,1.971,1.971,1.971,1.971,1.971,1.971,1.971,1.971,1.971,1.971,0.0,0.0,0.0,0.0,0.0,0.0,0.0,0.0,0.0,0.0,0.0,0.0,0.0,0.0,0.0,0.0,0.0,0.0,1.089,1.0897,1.1049,1.1391,1.1404,1.1455,1.1602,1.1744,1.18,1.18,1.2142,1.2375,1.2501,1.2501,1.2501,1.2501,1.2501,1.2501,1.2515,1.2635,0.0,0.0,0.0,1.3203,0.0,0.0,0.0,0.0,0.0,0.0,0.0,0.0,1.4595,1.4744,1.4934,1.5095,1.5204,1.5204,1.5204,1.5204,1.5204,1.5204,1.5198,1.5204,0.0,0.0,1.6101,1.6098,1.6099,1.6116,1.6576,1.7007,1.7009,1.7507,1.7896,1.7897,1.7896,1.8127,1.8718,1.8804,1.8806,1.8806,1.8806,1.8806,1.8806,1.8806,1.8806,1.8806,1.8795,1.8803,1.8803,1.9375,1.9704,1.971,1.971,1.971,1.971,1.971,1.971,1.971,1.971,1.971,1.971,1.971,1.971,1.971,1.971,1.971,1.971,1.971,1.971,1.971,1.971,1.971,1.971,1.971,1.971,1.971,0.0,0.0,0.0,0.0,0.0,0.0,0.0,0.0,0.0,0.0,0.0,0.0,0.0,0.0,0.0,0.0,0.0,0.0,1.089,1.1026,1.1203,1.1391,1.1488,1.1602,1.1741,1.201,1.2155,1.2155,1.2355,1.2461,1.2501,1.2501,1.2501,1.2501,0.0,0.0,0.0,0.0,0.0,0.0,1.3159,1.3312,0.0,0.0,0.0,0.0,0.0,0.0,0.0,0.0,0.0,0.0,1.5084,1.517,1.5204,1.5204,1.5204,1.5204,1.5204,1.5204,1.5195,1.52,1.5644,1.6093,0.0,1.6105,0.0,0.0,1.6877,1.7135,1.7553,1.7785,1.7896,1.7897,1.8255,1.8595,1.8768,1.8804,1.8806,1.8806,1.8806,1.8806,1.8806,1.8806,1.8806,1.8806,1.8795,1.8987,1.9418,1.9607,1.9704,1.971,1.971,1.971,1.971,1.971,1.971,1.971,1.971,1.971,1.971,1.971,1.971,1.971,1.971,1.971,1.971,1.971,1.971,1.971,1.971,1.971,1.971,1.971,1.971,1.971,0.0,0.0,0.0,0.0,0.0,0.0,0.0,0.0,0.0,0.0,0.0,0.0,0.0,0.0,0.0,0.0,0.0,0.0,0.0,1.118,1.1339,1.1468,1.1608,1.1784,1.1988,1.2205,1.2328,1.2382,1.2461,1.2501,1.2501,1.2501,1.2501,1.2498,0.0,1.2624,0.0,0.0,0.0,1.3217,1.3322,1.3464,1.3609,0.0,0.0,0.0,0.0,0.0,0.0,0.0,0.0,0.0,1.5163,1.5204,1.5204,1.5204,1.5204,1.5204,1.5204,1.5204,1.5196,1.5205,1.5654,1.6098,1.6095,1.6289,1.6559,1.6931,1.6994,1.7177,1.7791,1.7896,1.7894,1.79,1.8407,1.8799,1.8793,1.8795,1.8806,1.8806,1.8806,1.8806,1.8806,1.8806,1.8806,1.8806,1.8805,1.9056,1.9677,1.969,1.9697,1.971,1.971,1.971,1.971,1.971,1.971,1.971,1.971,1.971,1.971,1.971,1.971,1.971,1.971,1.971,1.971,1.971,1.971,1.971,1.971,1.971,1.971,1.971,1.971,1.971,0.0,0.0,0.0,0.0,0.0,0.0,0.0,0.0,0.0,0.0,0.0,0.0,0.0,0.0,0.0,0.0,0.0,0.0,0.0,0.0,1.1472,1.1615,1.1762,1.1997,1.2294,1.2314,1.2382,1.2501,1.2501,1.2501,1.2501,1.2501,1.2508,1.2519,0.0,1.2726,1.2766,1.3068,1.3207,1.3261,1.3498,1.3627,1.3674,1.3977,0.0,0.0,0.0,0.0,0.0,0.0,0.0,0.0,1.5163,1.5204,1.5204,1.5204,1.5204,1.5204,1.5204,1.5206,1.5222,1.5193,1.5645,1.6097,1.6096,1.657,1.7007,1.6997,1.7042,1.7244,1.7807,1.7894,1.7928,1.7969,1.8443,1.8808,1.8807,1.8806,1.8806,1.8806,1.8806,1.8806,1.8806,1.8806,1.8806,1.8806,1.8798,1.9063,1.9677,1.9704,1.971,1.971,1.971,1.971,1.971,1.971,1.971,1.971,1.971,1.971,1.971,1.971,1.971,1.971,1.971,1.971,1.971,1.971,1.971,1.971,1.971,1.971,1.971,1.971,1.971,1.971,0.0,0.0,0.0,0.0,0.0,0.0,0.0,0.0,0.0,0.0,0.0,0.0,0.0,0.0,0.0,0.0,0.0,0.0,0.0,0.0,1.1511,1.1748,1.2037,1.2233,1.2301,1.24,1.2474,1.2501,1.2501,1.2501,0.0,0.0,0.0,1.2665,0.0,1.2851,1.3105,1.3166,1.3319,1.3518,1.3579,1.3759,1.4002,1.407,0.0,0.0,0.0,0.0,0.0,0.0,0.0,0.0,1.5186,1.5204,1.5204,1.5204,1.5204,1.5204,1.5204,1.5316,1.5404,1.5231,1.5654,1.61,1.6099,1.6578,1.7003,1.7001,1.7377,1.775,1.7875,1.7894,1.8061,1.8534,1.8721,1.8808,1.8807,1.8806,1.8806,1.8806,1.8806,1.8806,1.8806,1.8806,1.8806,1.8806,1.8798,1.9063,1.9677,1.9704,1.971,1.971,1.971,1.971,1.971,1.971,1.971,1.971,1.971,1.971,1.971,1.971,1.971,1.971,1.971,1.971,1.971,1.971,1.971,1.971,1.971,1.971,1.971,1.971,1.971,1.971,0.0,0.0,0.0,0.0,0.0,0.0,0.0,0.0,0.0,0.0,0.0,0.0,0.0,0.0,0.0,0.0,0.0,0.0,0.0,0.0,1.1726,1.2031,1.2203,1.2334,1.2393,1.2467,1.2501,1.2501,1.2501,0.0,0.0,0.0,0.0,1.2709,0.0,1.304,1.321,1.3339,1.3474,1.3609,1.3773,1.3943,1.411,1.4242,0.0,0.0,0.0,0.0,0.0,0.0,0.0,0.0,0.0,0.0,1.5204,1.5204,1.5204,1.5204,1.5204,1.5284,1.5399,1.5586,1.5873,1.6176,1.6464,1.6774,1.7086,1.737,1.7675,1.7901,1.7902,1.7905,1.8099,1.8697,1.8805,1.8804,1.8807,1.8806,1.8806,1.8806,1.8806,1.8806,1.8806,1.8806,1.8796,1.8805,1.8802,1.9052,1.9677,1.9693,1.971,1.971,1.971,1.971,1.971,1.971,1.971,1.971,1.971,1.971,1.971,1.971,1.971,1.971,1.971,1.971,1.971,1.971,1.971,1.971,1.971,1.971,1.971,1.971,1.971,1.971,0.0,0.0,0.0,0.0,0.0,0.0,0.0,0.0,0.0,0.0,0.0,0.0,0.0,0.0,0.0,0.0,0.0,0.0,0.0,0.0,0.0,1.2287,1.2321,1.2389,1.2501,1.2501,1.2501,1.2501,0.0,0.0,0.0,0.0,0.0,1.276,0.0,1.3231,1.3278,1.3508,1.363,1.3708,1.4011,1.4151,0.0,0.0,0.0,0.0,0.0,0.0,0.0,0.0,0.0,0.0,0.0,0.0,1.5204,1.5204,1.5204,1.5211,1.5226,1.5255,1.5403,1.596,1.6099,1.626,1.6861,1.6997,1.7167,1.7788,1.7908,1.7902,1.7901,1.7893,1.8102,1.8709,1.8808,1.8806,1.8806,1.8806,1.8806,1.8806,1.8806,1.8806,1.8806,1.8806,1.8801,1.8804,1.8901,1.9167,1.9666,1.9697,1.971,1.971,1.971,1.971,1.971,1.971,1.971,1.971,1.971,1.971,1.971,1.971,1.971,1.971,1.971,1.971,1.971,1.971,1.971,1.971,1.971,1.971,1.971,1.971,1.971,1.971,0.0,0.0,0.0,0.0,0.0,0.0,0.0,0.0,0.0,0.0,0.0,0.0,0.0,0.0,0.0,0.0,0.0,0.0,1.1759,0.0,0.0,1.2301,1.2406,1.2481,1.2501,1.2501,1.2501,1.2501,0.0,0.0,0.0,0.0,0.0,1.2965,0.0,0.0,1.3552,1.3582,1.3766,1.4049,1.4208,1.434,0.0,0.0,0.0,0.0,0.0,0.0,0.0,0.0,1.5204,0.0,0.0,0.0,1.5204,1.5204,1.5204,1.5231,1.5343,1.546,1.5641,1.6008,1.6102,1.626,1.6863,1.6997,1.7163,1.7776,1.7908,1.7896,1.7905,1.7904,1.8107,1.8698,1.8805,1.8806,1.8806,1.8806,1.8806,1.8806,1.8806,1.8806,1.8806,1.8806,1.8801,1.8804,1.9284,1.9612,1.9696,1.9697,1.971,1.971,1.971,1.971,1.971,1.971,1.971,1.971,1.971,1.971,1.971,1.971,1.971,1.971,1.971,1.971,1.971,1.971,1.971,1.971,1.971,1.971,1.971,1.971,1.971,1.971,0.0,0.0,0.0,0.0,0.0,0.0,0.0,0.0,0.0,0.0,0.0,0.0,0.0,0.0,0.0,1.161,1.1683,1.1818,1.2065,1.2291,1.2406,1.2406,1.2467,1.2501,1.2501,1.2501,1.2501,0.0,0.0,0.0,0.0,1.2892,1.3027,0.0,0.0,0.0,0.0,0.0,0.0,0.0,0.0,0.0,0.0,0.0,0.0,0.0,0.0,0.0,0.0,0.0,0.0,1.5204,1.5204,0.0,0.0,0.0,1.5204,1.5294,1.5683,1.5842,1.5917,1.6054,1.6098,1.6261,1.6863,1.7005,1.717,1.7783,1.7902,1.7895,1.7896,1.8184,1.8489,1.8768,1.8805,1.8806,1.8806,1.8806,1.8806,1.8806,1.8806,1.8806,1.8806,1.8806,1.8807,1.8807,1.9369,1.9692,1.9692,1.9706,1.971,1.971,1.971,1.971,1.971,1.971,1.971,1.971,1.971,1.971,1.971,1.971,1.971,1.971,1.971,1.971,1.971,1.971,1.971,1.971,1.971,1.971,1.971,1.971,1.971,1.971,0.0,0.0,0.0,0.0,0.0,0.0,0.0,0.0,0.0,0.0,0.0,0.0,0.0,0.0,0.0,0.0,1.1906,1.2051,1.2325,1.244,1.2501,1.2501,1.2501,1.2501,1.2501,1.2501,0.0,0.0,0.0,0.0,1.2827,1.3122,1.3275,0.0,1.3505,0.0,0.0,0.0,0.0,0.0,0.0,0.0,0.0,0.0,0.0,0.0,0.0,0.0,0.0,0.0,0.0,0.0,1.5204,1.5204,0.0,0.0,0.0,1.5404,1.5846,1.6037,1.6102,1.6103,1.61,1.6255,1.686,1.6999,1.717,1.7783,1.7902,1.79,1.7908,1.8395,1.8801,1.8802,1.8795,1.8806,1.8806,1.8806,1.8806,1.8806,1.8806,1.8806,1.8806,1.8806,1.8797,1.8805,1.9358,1.9696,1.9705,1.971,1.971,1.971,1.971,1.971,1.971,1.971,1.971,1.971,1.971,1.971,1.971,1.971,1.971,1.971,1.971,1.971,1.971,1.971,1.971,1.971,1.971,1.971,1.971,1.971,1.971,1.971,0.0,0.0,0.0,0.0,0.0,0.0,0.0,0.0,0.0,0.0,0.0,0.0,0.0,1.1701,1.1861,1.207,1.2201,1.2341,1.2481,1.2501,1.2501,1.2501,1.2501,0.0,1.2501,1.2501,0.0,0.0,0.0,0.0,1.3183,1.3326,1.3454,1.3575,1.3589,1.3783,1.4083,0.0,0.0,0.0,0.0,0.0,0.0,0.0,0.0,0.0,0.0,0.0,0.0,0.0,0.0,0.0,0.0,0.0,1.5204,0.0,0.0,0.0,1.5627,1.5861,1.6103,1.6102,1.6097,1.6256,1.6862,1.7001,1.717,1.7783,1.7902,1.7906,1.7901,1.8392,1.8807,1.8795,1.8806,1.8806,1.8806,1.8806,1.8806,1.8806,1.8806,1.8806,1.8806,1.8806,1.8797,1.8805,1.9358,1.9696,1.9705,1.971,1.971,1.971,1.971,1.971,1.971,1.971,1.971,1.971,1.971,1.971,1.971,1.971,1.971,1.971,1.971,1.971,1.971,1.971,1.971,1.971,1.971,1.971,1.971,1.971,1.971,1.971,0.0,0.0,0.0,0.0,0.0,0.0,0.0,0.0,0.0,0.0,0.0,0.0,0.0,1.1891,1.2059,1.2215,1.2348,1.2447,1.2501,1.2501,1.2501,1.2501,1.2501,1.2539,1.2624,1.2631,0.0,0.0,0.0,1.3129,1.3332,1.3468,1.3664,1.3923,1.3923,1.4038,1.4242,1.4373,0.0,0.0,0.0,0.0,0.0,0.0,0.0,0.0,0.0,0.0,0.0,0.0,0.0,0.0,0.0,0.0,0.0,0.0,1.5467,1.5621,1.5701,1.5911,1.6104,1.6102,1.639,1.6731,1.6953,1.7001,1.717,1.7783,1.7902,1.7906,1.79,1.8392,1.8807,1.8795,1.8806,1.8806,1.8806,1.8806,1.8806,1.8806,1.8806,1.8806,1.8806,1.8806,1.8807,1.8798,1.9363,1.9708,1.9704,1.9701,1.971,1.971,1.971,1.971,1.971,1.971,1.971,1.971,1.971,1.971,1.971,1.971,1.971,1.971,1.971,1.971,1.971,1.971,1.971,1.971,1.971,1.971,1.971,1.971,1.971,1.971,0.0,0.0,0.0,0.0,0.0,0.0,0.0,0.0,0.0,0.0,0.0,0.0,0.0,0.0,1.2215,1.2355,1.2447,1.2501,1.2501,1.2501,1.2522,1.2566,1.2566,1.2641,1.2807,1.2729,0.0,0.0,0.0,0.0,0.0,0.0,1.3896,1.4097,1.4188,0.0,0.0,0.0,0.0,1.5,0.0,0.0,1.5204,0.0,0.0,0.0,0.0,0.0,0.0,0.0,0.0,0.0,0.0,0.0,0.0,0.0,0.0,1.5707,1.5861,1.6001,1.6105,1.61,1.6558,1.6995,1.6996,1.7002,1.717,1.7783,1.7902,1.7906,1.79,1.8392,1.8807,1.8795,1.8806,1.8806,1.8806,1.8806,1.8806,1.8806,1.8806,1.8806,1.8806,1.8806,1.8801,1.8804,1.9174,1.9486,1.9696,1.9697,1.971,1.971,1.971,1.971,1.971,1.971,1.971,1.971,1.971,1.971,1.971,1.971,1.971,1.971,1.971,1.971,1.971,1.971,1.9698,1.9702,1.9702,1.9705,1.9708,1.97,1.9702,1.9702,0.0,0.0,0.0,0.0,0.0,0.0,0.0,0.0,0.0,0.0,0.0,0.0,0.0,0.0,0.0,1.2488,1.2498,1.2508,1.2508,1.2515,1.2573,1.2702,1.2709,1.2797,1.3003,1.281,1.2878,0.0,0.0,0.0,0.0,0.0,1.4097,0.0,1.4387,1.4511,1.4543,0.0,1.4993,1.5025,0.0,1.5204,1.5204,0.0,0.0,0.0,1.5204,1.5204,0.0,0.0,0.0,0.0,0.0,0.0,0.0,0.0,0.0,0.0,0.0,0.0,0.0,1.6092,1.6549,1.6997,1.7002,1.7002,1.717,1.7783,1.7902,1.7906,1.7901,1.8392,1.8807,1.8795,1.8806,1.8806,1.8806,1.8806,1.8806,1.8806,1.8806,1.8806,1.8806,1.8806,1.8801,1.8804,1.8791,1.9055,1.9675,1.9697,1.971,1.971,1.971,1.971,1.971,1.971,1.971,1.971,1.971,1.971,1.971,1.971,1.971,1.971,1.971,1.971,1.971,1.971,1.97,1.9699,1.9714,1.9724,1.9716,1.9722,1.9714,1.9694,0.0,0.0,0.0,0.0,0.0,0.0,0.0,0.0,0.0,0.0,0.0,0.0,0.0,0.0,1.2461,1.2501,1.2593,1.2635,1.2635,1.2782,1.2884,1.2915,1.2915,1.2989,1.3142,1.3091,1.32,1.3495,0.0,0.0,0.0,0.0,0.0,0.0,1.4568,1.4728,1.4871,1.496,0.0,0.0,1.5191,1.5204,0.0,0.0,0.0,0.0,0.0,1.5204,0.0,0.0,1.5204,1.5224,0.0,0.0,0.0,0.0,0.0,0.0,1.6067,0.0,0.0,0.0,0.0,0.0,1.7002,1.7002,1.717,1.7783,1.7902,1.79,1.7893,1.8395,1.8801,1.8802,1.8795,1.8806,1.8806,1.8806,1.8806,1.8806,1.8806,1.8806,1.8806,1.8806,1.8797,1.8802,1.8803,1.9068,1.9673,1.9703,1.971,1.971,1.971,1.971,1.971,1.971,1.971,1.971,1.971,1.971,1.971,1.971,1.971,1.971,1.971,1.971,1.971,1.971,1.9693,1.9747,2.0139,2.0277,2.0274,2.0282,2.0021,1.9696,0.0,0.0,0.0,0.0,0.0,0.0,0.0,0.0,0.0,0.0,0.0,0.0,0.0,0.0,0.0,1.2577,1.2729,1.2827,1.2827,1.2928,1.302,1.3081,1.3081,1.3166,1.3356,1.3312,1.3417,1.3684,0.0,0.0,0.0,0.0,0.0,0.0,0.0,0.0,0.0,0.0,0.0,0.0,1.5204,0.0,0.0,1.5204,1.5204,0.0,0.0,0.0,1.5276,1.5276,1.5316,0.0,0.0,0.0,0.0,0.0,0.0,0.0,0.0,0.0,0.0,0.0,0.0,0.0,1.6998,1.7003,1.7176,1.7785,1.7902,1.79,1.7896,1.8184,1.8503,1.8768,1.8805,1.8806,1.8806,1.8806,1.8806,1.8806,1.8806,1.8806,1.8806,1.8806,1.8806,1.8806,1.8804,1.9059,1.9678,1.9693,1.971,1.971,1.971,1.971,1.971,1.971,1.971,1.971,1.971,1.971,1.971,1.971,1.971,1.971,1.971,1.971,1.971,1.971,1.9698,1.973,2.004,2.0298,2.0474,2.025,1.998,1.97,0.0,0.0,0.0,0.0,0.0,0.0,0.0,0.0,0.0,0.0,0.0,0.0,0.0,0.0,0.0,0.0,1.2918,1.304,1.304,1.3067,1.3142,1.3261,1.3268,1.3387,1.3616,1.3508,1.3576,1.3833,0.0,0.0,0.0,0.0,0.0,0.0,0.0,0.0,0.0,0.0,0.0,1.5204,1.5204,1.5204,0.0,0.0,1.5206,0.0,1.522,1.5303,1.5426,1.5426,1.5528,0.0,0.0,0.0,0.0,0.0,1.6011,0.0,0.0,0.0,0.0,0.0,0.0,0.0,1.7001,1.7049,1.7257,1.7786,1.7896,1.7894,1.7897,1.7904,1.8107,1.8705,1.8805,1.8806,1.8806,1.8806,1.8806,1.8806,1.8806,1.8806,1.8806,1.8806,1.8806,1.8806,1.8801,1.9054,1.9677,1.9697,1.971,1.971,1.9705,1.9705,1.971,1.9705,1.9705,1.971,1.971,1.971,1.971,1.971,1.971,1.971,1.971,1.971,1.971,1.971,1.9702,1.9694,1.9699,1.9989,2.0347,1.9876,1.9694,1.9696,0.0,0.0,0.0,0.0,0.0,0.0,0.0,0.0,0.0,0.0,0.0,0.0,0.0,0.0,0.0,0.0,1.3169,1.3326,1.3326,1.3518,1.366,1.3677,1.3677,1.3704,1.3754,1.3738,1.3834,1.4038,0.0,0.0,0.0,0.0,0.0,0.0,0.0,0.0,0.0,0.0,0.0,1.5204,1.5204,0.0,1.5204,1.5204,1.5274,1.5352,1.5352,1.5454,1.5558,0.0,1.5689,1.5836,0.0,0.0,0.0,0.0,0.0,0.0,0.0,0.0,0.0,0.0,0.0,0.0,1.6995,1.7377,1.7757,1.7888,1.7896,1.7894,1.7894,1.7893,1.8101,1.8709,1.8808,1.8806,1.8806,1.8806,1.8806,1.8806,1.8806,1.8806,1.8806,1.8806,1.8806,1.8806,1.8794,1.9064,1.9673,1.9703,1.971,1.971,1.9693,1.9693,1.971,1.9693,1.9693,1.971,1.971,1.971,1.971,1.971,1.971,1.971,1.971,1.971,1.971,1.971,1.9693,1.9696,1.9691,1.9759,1.9844,1.9742,1.9708,1.9698,0.0,0.0,0.0,0.0,0.0,0.0,0.0,0.0,0.0,0.0,0.0,0.0,0.0,0.0,0.0,0.0,0.0,1.3599,1.3599,1.3724,1.3795,1.3795,1.4913,1.5042,1.3974,1.5161,1.53,1.4303,0.0,0.0,0.0,0.0,0.0,0.0,0.0,0.0,0.0,0.0,1.524,1.5289,1.5238,0.0,1.5296,1.5296,1.5379,1.5503,1.5503,1.5609,1.5757,1.5832,1.5919,0.0,0.0,1.6088,1.6198,0.0,1.6151,1.6091,0.0,0.0,0.0,1.647,0.0,0.0,0.0,1.7466,1.7906,1.7902,1.7895,1.7901,1.7901,1.7896,1.8099,1.8697,1.8805,1.8804,1.8807,1.8806,1.8806,1.8806,1.8806,1.8806,1.8806,1.8806,1.8801,1.8805,2.4415,2.5453,1.9993,1.9697,1.97,1.9693,1.97,2.2752,2.9111,2.2868,1.9707,1.9692,1.9692,1.9702,1.971,1.971,1.971,1.971,1.971,1.971,1.971,1.971,1.971,1.971,1.9702,1.9702,1.971,1.97,1.9696,1.971,0.0,0.0,0.0,0.0,0.0,0.0,0.0,0.0,0.0,1.2733,0.0,0.0,0.0,0.0,0.0,0.0,0.0,1.4343,0.0,1.4334,1.4632,1.4682,1.6499,1.6919,1.5665,1.76,1.7518,1.5251,0.0,0.0,0.0,0.0,0.0,0.0,0.0,0.0,0.0,0.0,0.0,1.5393,0.0,1.5343,1.544,1.544,1.5535,1.5665,1.5719,1.5845,1.5998,1.6129,0.0,1.6177,1.6177,1.6252,0.0,0.0,0.0,0.0,0.0,0.0,0.0,0.0,0.0,1.7003,0.0,0.0,0.0,1.7895,1.7901,1.7901,1.7901,1.7899,1.8062,1.8558,1.8716,1.8803,1.8799,1.8795,1.8806,1.8806,1.8806,1.8806,1.8806,1.8806,1.8795,1.8797,3.0038,3.2844,2.3507,2.0916,1.9708,1.9696,2.2082,2.8299,3.86,2.8509,2.3368,2.3332,2.0873,1.9703,1.971,1.971,1.971,1.971,1.971,1.971,1.971,1.971,1.971,1.971,1.971,1.971,1.971,1.971,1.971,1.971,0.0,0.0,0.0,0.0,0.0,0.0,0.0,0.0,0.0,1.2945,1.3088,0.0,0.0,0.0,0.0,0.0,0.0,0.0,1.437,0.0,1.7626,1.7873,1.8138,1.9189,2.1146,2.1476,2.0404,1.7961,2.0573,2.0586,0.0,0.0,0.0,0.0,1.6167,0.0,0.0,0.0,1.5398,0.0,1.5516,1.5558,0.0,1.5579,1.5703,1.5903,1.6137,1.6246,1.6279,0.0,1.6444,1.6444,0.0,1.647,0.0,0.0,0.0,0.0,0.0,0.0,0.0,0.0,1.7003,0.0,0.0,0.0,1.7895,1.7895,0.0,1.7901,1.7901,0.0,0.0,1.7985,1.8453,1.8799,1.8804,1.8797,1.8806,1.8806,1.8806,1.8806,1.8806,1.8806,1.8805,1.8801,3.0033,3.6334,3.5017,2.5253,1.9708,1.9696,3.0657,3.7236,3.8702,3.7254,3.6531,3.6404,2.5091,1.9703,1.971,1.971,1.971,1.971,1.971,1.971,1.971,1.971,1.971,1.971,1.971,1.971,1.971,1.971,1.971,1.971,0.0,0.0,0.0,0.0,0.0,0.0,0.0,0.0,1.3146,1.3217,1.3417,0.0,0.0,0.0,0.0,0.0,0.0,0.0,0.0,0.0,0.0,1.8459,2.1085,2.2434,2.2112,2.3518,2.3068,2.0661,2.1837,2.1878,2.0857,0.0,0.0,0.0,1.7898,0.0,1.5323,0.0,1.5576,0.0,0.0,0.0,0.0,1.5914,1.6042,1.6259,1.6388,1.6423,1.6417,0.0,1.6498,0.0,0.0,0.0,0.0,0.0,0.0,0.0,0.0,0.0,0.0,0.0,0.0,0.0,1.7439,0.0,1.7896,0.0,0.0,0.0,0.0,0.0,0.0,0.0,1.7518,1.7601,1.8646,1.8808,1.8806,1.8806,1.8806,1.8801,1.8799,1.8795,1.8793,1.8797,3.005,3.6891,3.6891,2.5973,1.97,1.9694,3.2059,3.8712,3.8698,3.8697,3.8698,3.855,2.5788,1.9701,1.9693,1.9706,1.971,1.971,1.971,1.971,1.971,1.971,1.971,1.971,1.971,1.971,1.971,1.971,1.971,1.971,0.0,0.0,0.0,0.0,0.0,0.0,0.0,0.0,0.0,0.0,0.0,0.0,1.4873,1.5202,0.0,0.0,0.0,2.003,0.0,0.0,2.2335,0.0,0.0,0.0,0.0,2.5999,2.5757,2.3367,2.414,2.4181,2.3518,0.0,0.0,0.0,0.0,1.8204,1.6493,0.0,1.5797,1.5957,1.5985,1.6197,1.6469,1.6279,1.6334,1.6505,1.6606,1.6633,1.6646,1.6715,1.6755,0.0,1.6755,0.0,0.0,0.0,0.0,0.0,1.7365,0.0,0.0,0.0,0.0,0.0,0.0,0.0,0.0,0.0,0.0,0.0,0.0,0.0,0.0,0.0,0.0,1.7112,1.8589,1.8808,1.8806,1.8806,1.8806,1.8801,1.8799,2.1813,2.2382,1.905,3.0037,3.689,3.6899,2.8954,2.458,2.4897,3.3879,3.8707,3.8689,3.8689,3.8706,3.8579,2.9324,2.308,1.9696,1.9702,1.971,1.971,1.971,1.971,1.971,1.971,1.971,1.971,1.971,1.971,1.971,1.971,1.971,1.971,0.0,1.2979,0.0,0.0,0.0,0.0,0.0,0.0,0.0,0.0,0.0,0.0,0.0,0.0,0.0,0.0,0.0,2.4463,2.2294,0.0,2.5768,0.0,0.0,0.0,0.0,0.0,2.8559,2.607,2.8481,2.8425,2.6082,2.6408,2.6525,0.0,2.157,1.9436,1.9214,1.6879,1.5971,1.6102,1.6239,1.6564,1.6937,0.0,1.6485,1.6532,1.6869,0.0,0.0,1.7284,1.7365,0.0,0.0,0.0,0.0,0.0,0.0,0.0,0.0,0.0,0.0,1.7796,0.0,0.0,0.0,0.0,1.7901,0.0,0.0,0.0,0.0,0.0,0.0,0.0,0.0,0.0,0.0,1.8801,1.8806,1.8806,1.8806,1.8806,1.8806,2.9428,3.1451,1.9677,3.0043,3.6899,3.6902,3.6545,3.6871,3.8057,3.8491,3.8707,3.8689,3.8689,3.8706,3.8695,3.8282,3.1625,1.9696,1.9702,1.971,1.971,1.971,1.971,1.971,1.971,1.971,1.971,1.971,1.971,1.971,1.971,1.971,1.971,0.0,0.0,0.0,0.0,0.0,0.0,0.0,1.3824,0.0,0.0,0.0,0.0,0.0,0.0,2.0074,0.0,0.0,2.5599,2.4677,2.7051,0.0,0.0,0.0,2.9034,0.0,0.0,0.0,0.0,0.0,2.8191,2.8945,2.7601,2.6957,2.6899,2.5345,2.2857,0.0,0.0,0.0,0.0,0.0,1.8051,1.9759,0.0,0.0,1.7114,1.7223,1.7256,0.0,1.7372,1.7392,1.7392,1.7392,1.7467,1.7528,1.7528,1.7629,0.0,0.0,0.0,1.7765,1.7875,0.0,0.0,0.0,0.0,0.0,0.0,0.0,0.0,0.0,0.0,0.0,0.0,0.0,0.0,0.0,1.8795,1.8805,1.8805,1.8805,1.8801,1.8799,2.2506,2.3218,1.9114,2.2605,2.8424,3.6462,3.6896,3.7443,3.8656,3.8696,3.8696,3.8689,3.8689,3.87,3.8706,3.8695,3.2026,1.9708,1.9696,1.9697,1.971,1.971,1.971,1.971,1.971,1.971,1.971,1.971,1.971,1.971,1.971,1.971,1.971,1.3795,0.0,0.0,0.0,0.0,0.0,0.0,0.0,0.0,0.0,1.6645,0.0,2.0824,0.0,2.2883,0.0,2.7368,2.7484,2.7444,2.8984,0.0,2.7895,2.9276,0.0,0.0,0.0,0.0,0.0,0.0,2.8986,3.0503,2.9184,2.8624,2.87,2.795,2.5924,2.2979,2.1202,1.9552,0.0,0.0,2.0506,0.0,0.0,2.0378,2.0503,0.0,1.9906,1.904,1.9085,1.8437,1.7589,1.7636,1.7704,1.7792,1.7839,1.792,1.8009,1.8009,1.7946,0.0,1.7904,1.7904,0.0,1.7904,0.0,0.0,0.0,0.0,0.0,0.0,0.0,0.0,0.0,0.0,0.0,0.0,2.5241,2.5241,2.5241,2.143,1.8799,1.8805,1.8797,2.0583,2.4902,2.5236,2.8656,3.6478,3.69,3.725,3.8048,3.8485,3.8696,3.8689,3.8689,3.8689,3.8689,3.8707,3.4391,2.6299,2.1772,1.9707,1.9704,1.9692,1.9697,1.9702,1.9705,1.971,1.971,1.971,1.971,1.971,1.971,1.971,1.971,0.0,0.0,0.0,0.0,1.3829,0.0,0.0,0.0,1.8111,0.0,2.0682,2.3249,2.5742,2.6134,2.7217,2.9702,2.9942,0.0,3.0402,3.0114,0.0,0.0,3.0562,3.0537,3.0782,0.0,0.0,0.0,0.0,3.0833,3.086,3.1117,3.1411,3.1646,2.9406,2.8528,2.8404,2.3431,2.1324,2.1392,2.1856,2.3855,2.6559,2.6569,2.6579,2.6544,2.6221,2.4362,2.204,2.2021,2.0195,1.7942,1.8071,1.8111,1.8124,1.8259,1.825,1.8201,1.8201,1.8059,1.7925,1.7897,0.0,0.0,0.0,0.0,1.7934,0.0,0.0,0.0,0.0,0.0,0.0,0.0,0.0,0.0,0.0,3.6909,3.6909,3.6909,2.6719,1.9455,1.8851,1.9348,2.448,3.6036,3.6901,3.6897,3.6897,3.6897,3.6903,3.6898,3.8076,3.8696,3.8705,3.8689,3.8689,3.8689,3.8707,3.8695,3.8288,2.6156,2.0641,2.0641,2.0644,2.0281,1.9695,1.9702,1.971,1.971,1.971,1.971,1.971,1.971,1.971,1.971,1.4475,1.4475,1.4475,0.0,1.4304,1.4274,0.0,0.0,0.0,0.0,2.0743,2.3279,2.5863,2.6393,2.7566,3.0053,3.0459,0.0,0.0,0.0,0.0,3.0782,3.0726,3.0726,3.0807,3.0807,0.0,3.0807,0.0,0.0,3.1473,3.1744,3.205,3.233,3.1741,3.0589,2.9068,2.771,2.629,2.4984,2.5313,2.7283,3.0048,0.0,3.1657,3.2635,2.5836,2.3083,2.2321,2.0066,1.8804,1.8199,1.8232,1.8253,1.8253,1.8287,1.825,1.8201,1.8201,1.8201,1.8144,1.7954,1.7897,1.8017,0.0,0.0,0.0,0.0,0.0,0.0,0.0,0.0,0.0,0.0,0.0,0.0,0.0,0.0,3.6891,3.6891,3.4155,2.8707,1.9689,2.6959,3.3562,3.6664,3.6902,3.6896,3.6896,3.6896,3.6903,3.6903,3.8064,3.87,3.8699,3.8696,3.8689,3.8689,3.8697,3.8699,3.8579,3.5304,3.3828,3.3813,3.3826,2.8458,1.9696,1.97,1.9692,1.971,1.971,1.971,1.971,1.971,1.971,1.971,1.4706,0.0,0.0,1.4816,0.0,0.0,1.6381,0.0,0.0,2.196,2.4297,0.0,2.8036,2.8382,2.9058,3.045,3.0713,0.0,0.0,0.0,0.0,3.1181,3.1181,3.1248,3.1381,3.1502,0.0,3.1592,0.0,0.0,3.2099,3.2261,3.2543,3.2944,3.2944,3.2404,3.1423,3.0411,2.9415,2.8513,2.8779,3.07,0.0,3.3571,3.4729,3.5431,2.8936,2.6668,2.6476,2.4743,2.3325,2.2281,2.2357,2.1457,2.0406,2.0474,1.9527,1.8454,1.8454,1.8482,1.8482,1.8339,1.8286,1.838,1.8722,1.8801,1.8796,0.0,0.0,0.0,0.0,0.0,0.0,0.0,0.0,0.0,0.0,0.0,0.0,3.6899,3.6903,3.4229,2.7378,3.2896,3.6901,3.6903,3.6896,3.6899,3.6899,3.6899,3.6894,3.6908,3.7563,3.8168,3.8691,3.8699,3.8689,3.8689,3.8689,3.8697,3.8697,3.8697,3.8705,3.8702,3.8701,3.4631,2.7568,2.1999,1.9699,1.9697,1.9705,1.971,1.971,1.971,1.971,1.971,0.0,0.0,0.0,0.0,0.0,0.0,0.0,2.1288,0.0,2.641,0.0,3.0537,3.078,3.0822,3.0862,3.0902,0.0,3.1089,3.1371,3.1181,3.1273,3.1793,3.1819,3.1928,3.217,3.2448,0.0,0.0,0.0,0.0,3.2768,3.2768,3.3038,3.3521,3.3521,3.3855,3.4288,3.2383,3.1724,3.195,3.2213,3.3861,3.6166,3.6179,3.634,3.6211,3.3589,3.2287,3.1729,3.1344,2.9544,2.7484,2.7597,2.5836,2.3746,2.3868,2.1853,1.9473,1.8946,1.8795,1.8795,1.8795,1.8799,1.9226,2.0809,2.1175,2.1177,2.1166,2.9564,3.6907,0.0,0.0,0.0,0.0,0.0,0.0,0.0,0.0,0.0,0.0,3.6891,0.0,3.6898,3.6903,3.69,3.6898,3.6899,3.6899,3.6899,3.6899,3.6896,3.6898,3.6907,3.7478,3.868,3.8702,3.8689,3.8689,3.8689,3.8689,3.8689,3.8689,3.8689,3.8689,3.8697,3.8698,3.7837,2.6751,2.1212,1.9695,1.9697,1.9705,1.971,1.971,1.971,1.971,0.0,0.0,0.0,0.0,0.0,2.0035,2.208,2.4411,2.6191,2.6922,2.9188,3.0753,3.0782,3.0997,3.1238,3.1513,3.173,0.0,0.0,0.0,0.0,3.2433,3.2447,3.246,3.2502,3.2567,3.2714,0.0,0.0,0.0,3.3667,3.3667,3.3841,3.4136,3.4136,3.447,3.5057,3.515,3.5225,3.529,3.5537,3.597,3.6459,3.6673,3.6792,3.6764,3.624,3.4417,3.1906,2.9401,2.8236,2.7819,2.7849,2.7473,2.7062,2.7083,2.5509,2.3027,1.9704,1.8807,1.8807,1.8807,1.8801,2.1419,3.1449,3.3726,3.3726,3.3727,3.5419,3.6893,3.6898,0.0,0.0,0.0,0.0,0.0,0.0,0.0,0.0,0.0,0.0,3.691,3.6899,3.6903,3.69,3.6898,3.6899,3.6899,3.6899,3.6899,3.6898,3.691,3.6901,3.7483,0.0,0.0,3.8689,3.8689,3.8689,3.8689,3.8689,3.8689,3.8689,3.8689,3.87,3.8699,3.8535,3.628,2.9178,1.9696,1.97,1.9692,1.971,1.971,1.971,1.971,0.0,0.0,0.0,0.0,0.0,0.0,0.0,2.7747,0.0,2.9222,3.0417,3.1315,3.145,3.173,3.1995,3.214,3.2276,3.2488,3.2782,3.2809,3.2876,3.3011,3.3185,0.0,3.3265,3.3412,3.3546,3.3668,0.0,0.0,0.0,3.4108,3.4336,3.4777,3.5097,3.5391,3.5685,3.6126,0.0,3.634,3.6606,3.6713,3.6712,3.6845,3.6899,3.6899,3.6899,3.5973,3.4503,3.3064,3.2564,3.2564,3.2564,3.1487,3.0227,3.0227,2.8425,2.6219,2.5312,2.4308,2.4265,2.7408,2.8195,2.973,3.5571,3.6903,3.6897,3.6903,3.6891,3.6891,3.6891,3.69,0.0,0.0,0.0,0.0,0.0,0.0,0.0,0.0,0.0,0.0,3.6899,3.6894,3.6894,3.6899,3.6899,3.6899,3.6899,3.6899,3.6899,3.6899,3.6901,3.7485,3.8682,0.0,3.8689,3.8689,3.8689,3.8689,3.8689,3.8689,3.8689,3.8689,3.8689,3.8697,3.8699,3.8687,3.5094,2.8905,2.2278,1.9703,1.971,1.971,1.971,1.971,0.0,2.207,0.0,0.0,2.434,0.0,2.8079,3.0331,3.1849,3.1543,3.1741,3.1995,3.2251,3.2542,3.2741,3.2875,3.2888,3.2996,3.3252,3.3279,3.336,3.3575,3.3841,3.3988,3.3988,3.4189,3.4336,0.0,0.0,0.0,0.0,3.459,3.4937,3.5404,3.5939,3.6193,0.0,0.0,3.6579,3.6606,3.6806,3.6899,3.6899,3.6899,3.6899,3.6899,3.6899,3.6899,3.6899,3.6899,3.6899,3.6899,3.6899,3.5267,3.3363,3.3363,3.1672,3.0169,3.1732,3.1026,3.0955,3.5718,3.6903,3.69,3.69,3.6906,3.6899,3.6899,3.6899,3.6899,3.6899,3.6899,0.0,0.0,0.0,0.0,0.0,0.0,0.0,0.0,0.0,0.0,3.6899,3.6899,3.6899,3.6899,3.6899,3.6899,3.6899,3.6899,3.6899,3.6899,3.6901,3.7485,3.8682,0.0,3.8689,3.8689,3.8689,3.8689,3.8689,3.8689,3.8689,3.8689,3.8689,3.8689,3.8689,3.8697,3.8698,3.7438,2.4674,1.9696,1.9692,1.9692,1.9692,1.9697,0.0,0.0,0.0,0.0,0.0,0.0,2.8633,3.1057,3.277,3.2502,3.25,3.2621,3.2891,3.2944,3.3185,3.372,3.3786,3.3881,3.4162,3.4176,3.4189,3.4203,3.4256,3.4256,3.4256,3.4296,3.4456,0.0,0.0,0.0,0.0,0.0,3.5966,3.6033,0.0,0.0,0.0,3.674,3.6859,3.6859,3.6899,3.6899,3.6899,3.6899,3.6899,3.6899,3.6899,3.6899,3.6899,3.6899,3.6899,3.6899,3.6899,3.6719,3.6484,3.6484,3.6276,3.6111,3.629,3.6207,3.618,3.6759,3.691,3.6898,3.6898,3.6898,3.6899,3.6899,3.6899,3.6899,3.6899,3.6899,3.6899,0.0,0.0,0.0,0.0,0.0,0.0,0.0,0.0,0.0,3.6899,3.6899,3.6899,3.6899,3.6899,3.6899,3.6899,3.6899,3.6899,3.6899,3.6901,3.7485,3.8682,3.8694,3.8689,3.8689,3.8689,3.8689,3.8689,3.8689,3.8689,3.8689,3.8689,3.8689,3.8689,3.87,3.8699,3.7427,2.4671,1.969,1.9697,1.9697,1.9697,1.9702,0.0,0.0,0.0,0.0,0.0,0.0,0.0,3.267,3.356,3.3613,3.3479,3.3425,3.352,3.3681,3.3881,3.4122,3.4136,3.4269,3.4576,3.475,3.491,3.5071,3.5271,3.5391,3.5391,3.5391,3.5444,0.0,0.0,0.0,0.0,0.0,0.0,0.0,0.0,3.674,3.674,3.6845,3.6899,3.6899,3.6899,3.6899,3.6899,3.6899,3.6899,3.6899,3.6899,3.6899,3.6899,3.6899,3.6899,3.6899,3.6899,3.6899,3.6899,3.6899,3.6899,3.6899,3.6899,3.6899,3.6899,3.6899,3.6899,3.6899,3.6899,3.6899,3.6899,3.6899,3.6899,3.6899,3.6899,3.6899,3.6899,0.0,0.0,0.0,0.0,0.0,0.0,0.0,0.0,0.0,3.6899,3.6899,3.6899,3.6899,3.6899,3.6899,3.6899,0.0,0.0,3.6899,3.6901,3.7485,3.8682,3.8694,3.8689,3.8689,3.8689,3.8689,3.8689,3.8689,3.8689,3.8689,3.8689,3.8689,3.8689,3.8689,3.8689,3.8187,3.3091,3.1098,3.1095,3.1095,3.1095,3.1095,3.0329,0.0,3.2388,0.0,3.1977,3.3453,3.3642,3.3948,3.4255,3.4523,3.4469,3.4336,3.4175,3.4402,3.4603,3.4683,3.4763,3.4923,3.5177,3.5351,3.5551,3.5738,3.5979,0.0,3.6099,3.6099,3.6099,3.6099,3.6193,0.0,0.0,0.0,0.0,0.0,3.682,3.6899,3.6899,3.6899,3.6899,3.6899,3.6899,3.6899,3.6899,3.6899,3.6967,3.706,3.706,3.71,3.7167,3.7167,3.7167,3.7127,3.6967,3.6899,3.6899,3.6899,3.6899,3.6899,3.6899,3.6899,3.6899,3.6899,3.6899,3.6899,3.6899,3.6899,3.6899,3.6899,3.6899,3.6899,3.6899,3.6899,3.6899,3.6899,0.0,0.0,0.0,0.0,0.0,0.0,3.6899,3.6899,3.6899,3.6899,3.6899,3.6899,3.6899,3.6899,0.0,0.0,0.0,0.0,0.0,0.0,3.8682,3.8694,3.8689,3.8689,3.8689,3.8689,3.8689,3.8689,3.8689,3.8689,3.8689,3.8689,3.8689,3.8689,3.8708,3.8707,3.8707,3.8695,3.8701,3.8701,3.8701,3.8701,3.2948,3.3454,3.3868,3.3843,3.4083,3.4296,3.4296,3.4576,3.4883,3.5151,3.5418,3.5378,3.4856,3.503,3.5297,3.5565,3.5899,3.6086,3.6086,3.6086,3.6086,0.0,0.0,3.6099,3.6099,3.6099,3.6099,3.6099,0.0,0.0,3.5618,0.0,3.638,3.6899,3.6899,3.6899,3.6899,3.6899,3.6899,3.6899,3.6899,3.6899,3.6899,3.6899,3.7114,3.7396,3.7396,3.7555,3.7781,3.7781,3.7781,3.7688,3.7087,3.6899,3.6899,3.6899,3.6899,3.6899,3.6899,3.6899,3.6899,3.6899,3.6899,3.6899,3.6899,3.6899,3.6899,3.6899,3.6899,3.6899,3.6899,3.6899,3.6899,3.6899,0.0,0.0,0.0,0.0,0.0,0.0,3.6899,3.6899,3.6899,3.6899,3.6899,3.6899,3.6899,0.0,0.0,0.0,0.0,3.6899,3.6901,0.0,3.8682,3.8694,3.8689,3.8689,3.8689,3.8689,3.8689,3.8689,3.8689,3.8689,3.8689,3.8689,3.8689,3.8689,3.8689,3.8689,3.8689,3.8689,3.8689,3.8689,3.8689,3.87,3.3895,3.4029,3.4176,3.4176,3.4576,3.491,3.491,3.5351,3.5712,3.5792,3.5885,3.5872,3.5698,3.5765,3.5845,0.0,3.6046,3.6099,0.0,3.6273,3.6366,3.6366,3.654,3.6647,3.6647,3.6647,3.6647,3.6647,0.0,0.0,0.0,3.6606,3.674,3.6899,3.6899,3.6899,3.6899,3.6899,3.6899,3.6927,3.7141,3.7235,3.7261,3.7434,3.7581,3.7676,3.7676,3.7728,3.7795,3.7795,3.7795,3.7768,3.7567,3.7515,3.7515,3.7515,3.7417,3.7251,3.6968,3.6902,3.6903,3.6898,3.6899,3.6899,3.6899,3.6899,3.6899,3.6899,3.6899,3.6899,3.6899,3.6899,3.6899,3.6899,3.6899,0.0,0.0,0.0,0.0,3.6899,3.6899,3.6899,3.6899,3.6899,3.6899,3.6899,3.6899,0.0,0.0,0.0,0.0,0.0,3.6896,0.0,3.8684,3.8704,3.8689,3.8689,3.8689,3.8689,3.8689,3.8689,3.8689,3.8689,3.8689,3.8689,3.8689,3.8689,3.8689,3.8689,3.8689,3.8689,3.8689,3.8689,3.8689,3.8689,3.463,3.4817,3.4977,3.4977,3.5297,3.5538,3.5538,3.5859,3.6139,3.6233,3.6246,3.6286,3.6393,3.6393,0.0,3.626,3.634,3.6393,3.6393,3.6566,3.6659,3.6659,3.6806,3.6899,3.6899,3.6899,0.0,3.6899,3.6899,3.6899,3.6899,3.6899,3.6899,3.6899,3.6899,3.6899,3.6913,3.7034,3.7087,3.7114,3.7436,3.7541,3.7583,3.7742,3.7875,3.7982,3.7982,3.8049,3.8143,3.8143,3.8143,3.8143,3.8143,3.8143,3.8089,3.7875,3.7654,3.7459,3.7301,3.7066,3.6903,3.6898,3.69,3.6902,3.6906,3.6906,3.6894,3.6898,3.6899,3.6899,3.6899,3.6899,3.6899,3.6899,3.6899,3.6899,3.6899,0.0,3.6899,0.0,0.0,0.0,0.0,3.6899,3.6899,3.6899,3.6899,0.0,0.0,0.0,0.0,3.6908,3.7339,0.0,3.8691,3.8699,3.8689,3.8689,3.8689,3.8689,3.8689,3.8689,3.8689,3.8689,3.8689,3.8689,3.8689,3.8689,3.8689,3.8689,3.8689,3.8689,3.8689,3.8689,3.8689,3.8689,3.5257,3.5712,3.6099,0.0,3.6113,0.0,3.6126,3.6153,3.6246,3.65,3.6526,3.6619,3.6873,3.6899,3.6806,3.654,0.0,0.0,0.0,3.6899,3.6899,3.6899,3.6899,3.6899,3.6899,3.6899,3.6899,3.6899,3.6899,3.6899,3.6899,3.6899,3.6913,3.6926,3.6926,3.6953,3.698,3.7301,3.7436,3.7448,3.7728,3.7835,3.7835,3.7861,3.8065,3.8319,3.8319,3.8492,3.8689,3.8689,3.8689,3.8689,3.8689,3.8689,3.8582,3.8036,3.7734,3.7621,3.7807,3.7455,3.7019,3.7021,3.7021,3.7027,3.7014,3.6962,3.6897,3.6896,3.6898,3.6898,3.6898,3.6899,3.6899,3.6899,3.6899,3.6899,3.6899,0.0,3.6899,3.6899,0.0,0.0,0.0,3.6899,3.6899,0.0,0.0,0.0,0.0,0.0,3.6906,3.6893,3.8081,3.8689,3.8702,3.8699,3.8689,3.8689,3.8689,3.8689,3.8689,3.8689,3.8689,3.8689,3.8689,3.8689,3.8689,3.8689,3.8689,3.8689,3.8689,3.8689,3.8689,3.8689,3.8689,3.8689,0.0,0.0,3.6099,3.6099,3.6273,3.6407,3.6407,3.658,3.6726,3.6806,3.6806,3.6819,3.6899,3.6899,3.6873,3.6806,3.6859,3.6899,3.6899,3.6899,3.6899,3.6899,3.6899,3.6899,3.6899,3.6899,3.6899,3.6899,3.6899,3.6899,3.6899,3.6899,3.7034,3.7289,3.7289,3.7394,3.7581,3.7676,3.7702,3.7728,3.8051,3.8172,3.8198,3.8408,3.8544,3.8611,3.8611,3.8651,3.8689,3.8689,3.8689,3.8689,3.8689,3.8689,3.8676,3.853,3.8446,3.8421,3.8479,3.8384,3.8273,3.827,3.8273,3.8273,3.8276,3.7562,3.6889,3.6907,3.6893,3.69,3.69,3.6894,3.6899,3.6899,3.6899,3.6899,3.6899,3.6899,3.6899,0.0,3.6899,3.6899,3.6899,3.6899,3.6899,0.0,0.0,3.6896,3.69,3.69,3.6893,3.6889,3.8067,3.8702,3.8696,3.8705,3.8689,3.8689,3.8689,3.8689,3.8689,3.8689,3.8689,3.8689,3.8689,3.8689,3.8689,3.8689,3.8689,3.8689,3.8689,3.8689,3.8689,3.8689,3.8689,3.8689,3.6286,3.638,3.6473,3.6473,3.6579,3.6673,3.6673,3.6806,3.6899,3.6899,3.6899,3.6899,3.6899,3.6899,3.6899,3.6899,3.6899,3.6899,3.6899,3.6899,3.6899,3.6899,3.6899,3.6899,3.6899,3.6899,3.6899,3.6899,3.706,3.7128,3.7127,3.7247,3.7422,3.7583,3.7583,3.7661,3.7809,3.7956,3.8025,3.8065,3.8357,3.8492,3.8506,3.8636,3.8689,3.8689,3.8689,3.8689,3.8689,3.8689,3.8689,3.8689,3.8689,3.8689,3.8689,3.8689,3.8689,3.8705,3.8704,3.8706,3.8694,3.8702,3.8707,3.8695,3.8701,3.8194,3.7716,3.7722,3.7716,3.7541,3.701,3.6897,3.6906,3.6906,3.691,3.6899,3.6899,3.6899,3.6899,3.6899,3.6899,3.6899,3.6899,3.6899,3.6899,3.6899,3.6896,0.0,3.6908,3.7426,3.7722,3.7728,3.8354,3.8696,3.8689,3.8689,3.8689,3.8689,3.8689,3.8689,3.8689,3.8689,3.8689,3.8689,3.8689,3.8689,3.8689,3.8689,3.8689,3.8689,3.8689,3.8689,3.8689,3.8689,3.8689,3.8689,3.6566,3.674,3.6899,3.6899,3.6899,3.6899,3.6899,3.6899,3.6899,3.6899,3.6899,3.6899,3.6899,3.6899,3.6899,3.6899,3.6953,3.6953,3.6899,3.6899,3.6899,3.6899,3.6953,3.698,3.698,3.702,3.7046,3.7046,3.7329,3.7448,3.7462,3.7688,3.7835,3.7875,3.7875,3.7888,3.7942,3.8238,3.8359,3.8385,3.8611,3.8689,3.8689,3.8689,3.8689,3.8689,3.8689,3.8689,3.8689,3.8689,3.8689,3.8689,3.8689,3.8689,3.8689,3.8689,3.8689,3.8689,3.8689,3.8689,3.8689,3.8689,3.8689,3.8708,3.8696,3.8701,3.8691,3.8689,3.8706,3.8383,3.7355,3.7173,3.71,3.6932,3.6902,3.6896,3.691,0.0,3.6898,3.6899,3.6899,3.6899,3.691,3.691,3.691,3.6894,3.6898,3.6974,3.7165,3.8138,3.8702,3.8701,3.8701,3.8706,3.8689,3.8689,3.8689,3.8689,3.8689,3.8689,3.8689,3.8689,3.8689,3.8689,3.8689,3.8689,3.8689,3.8689,3.8689,3.8689,3.8689,3.8689,3.8689,3.8689,3.8689,3.8689,3.6833,3.6873,3.6899,3.6899,3.6899,3.6899,3.6899,3.6899,3.6899,3.6899,3.6899,3.6899,3.6899,3.6899,3.6899,3.6899,3.7155,3.7195,3.6927,3.6899,3.6899,3.6899,3.7167,3.7329,3.7329,3.7541,3.7661,3.7661,3.7714,3.7742,3.7742,3.7782,3.7942,3.8212,3.8212,3.8345,3.857,3.8624,3.8636,3.8636,3.8676,3.8689,3.8689,3.8689,3.8689,3.8689,3.8689,3.8689,3.8689,3.8689,3.8689,3.8689,3.8689,3.8689,3.8689,3.8689,3.8689,3.8689,3.8689,3.8689,3.8689,3.8689,3.8689,3.8689,3.8708,3.8708,3.8708,3.8699,3.8699,3.8638,3.8453,3.8408,3.8094,3.7069,3.6889,3.6896,3.6897,0.0,3.6902,3.6898,3.6899,3.6896,3.69,3.6898,3.6893,3.6905,3.6889,3.7357,3.8372,3.8607,3.8699,3.8708,3.8708,3.8705,3.8689,3.8689,3.8689,3.8689,3.8689,3.8689,3.8689,3.8689,3.8689,3.8689,3.8689,3.8689,3.8689,3.8689,3.8689,3.8689,3.8689,3.8689,3.8689,3.8689,3.8689,3.8689,3.6899,3.6899,3.6899,3.6899,3.6899,3.6899,3.6899,3.6899,3.6899,3.6899,3.6899,3.6899,3.6899,3.706,3.7182,3.7182,3.7434,3.7541,3.738,3.738,3.738,3.738,3.7529,3.7609,3.7609,3.7742,3.7795,3.7795,3.7984,3.8065,3.8076,3.8223,3.8357,3.8518,3.8518,3.8584,3.8689,3.8689,3.8689,3.8689,3.8689,3.8689,3.8689,3.8689,3.8689,3.8689,3.8689,3.8689,3.8689,3.8689,3.8689,3.8689,3.8689,3.8689,3.8689,3.8689,3.8689,3.8689,3.8689,3.8689,3.8689,3.8689,3.8689,3.8689,3.8689,3.8689,3.8689,3.8689,3.8696,3.8704,3.8704,3.8691,3.8517,3.7952,3.7873,0.0,0.0,3.7315,3.6898,3.6893,3.6893,3.6891,3.6896,3.7483,3.7858,3.7865,3.7871,3.8103,3.8676,3.8696,3.8699,3.8689,3.8689,3.8689,3.8689,3.8689,3.8689,3.8689,3.8689,3.8689,3.8689,3.8689,3.8689,3.8689,3.8689,3.8689,3.8689,3.8689,3.8689,3.8689,3.8689,3.8689,3.8689,3.8689,3.8689,3.8689,3.6899,3.6899,3.6899,3.6899,3.6899,3.6899,3.6899,3.6899,3.6926,3.7006,3.702,3.7046,3.71,3.7342,3.7489,3.7489,3.7742,3.7929,3.7929,3.7968,3.7942,3.7809,3.7875,3.7942,3.8008,3.8008,3.8008,3.8008,3.8264,3.8399,3.8399,3.8596,3.8689,3.8689,3.8689,3.8689,3.8689,3.8689,3.8689,3.8689,3.8689,3.8689,3.8689,3.8689,3.8689,3.8689,3.8689,3.8689,3.8689,3.8689,3.8689,3.8689,3.8689,3.8689,3.8689,3.8689,3.8689,3.8689,3.8689,3.8689,3.8689,3.8689,3.8689,3.8689,3.8689,3.8689,3.8689,3.8689,3.8689,3.8689,3.8689,3.8702,3.8699,3.8699,0.0,0.0,0.0,3.7888,3.7326,3.7317,3.7317,3.7328,3.731,3.8169,3.8705,3.8701,3.8691,3.8699,3.8699,3.8699,3.8689,3.8689,3.8689,3.8689,3.8689,3.8689,3.8689,3.8689,3.8689,3.8689,3.8689,3.8689,3.8689,3.8689,3.8689,3.8689,3.8689,3.8689,3.8689,3.8689,3.8689,3.8689,3.8689,3.8689,3.8689,3.8689,3.6899,3.6899,3.6899,3.6899,3.6899,3.6899,3.6899,3.6899,3.7006,3.7329,3.7356,3.7448,3.7702,3.7768,3.7768,3.7768,3.8065,3.8266,3.8266,3.8504,3.8383,3.7821,3.8105,3.8385,3.8636,3.8636,3.8636,3.8636,3.8662,3.8676,3.8676,3.8689,3.8689,3.8689,3.8689,3.8689,3.8689,3.8689,3.8689,3.8689,3.8689,3.8689,3.8689,3.8689,3.8689,3.8689,3.8689,3.8689,3.8689,3.8689,3.8689,3.8689,3.8689,3.8689,3.8689,3.8689,3.8689,3.8689,3.8689,3.8689,3.8689,3.8689,3.8689,3.8689,3.8689,3.8689,3.8689,3.8689,3.8689,3.8689,3.8689,3.8705,3.8705,3.8705,0.0,0.0,3.8691,3.8622,3.8571,3.8582,3.8569,3.8565,3.8567,3.865,3.8701,3.8708,3.8705,3.8705,3.8705,3.8689,3.8689,3.8689,3.8689,3.8689,3.8689,3.8689,3.8689,3.8689,3.8689,3.8689,3.8689,3.8689,3.8689,3.8689,3.8689,3.8689,3.8689,3.8689,3.8689,3.8689,3.8689,3.8689,3.8689,3.8689,3.8689,3.8689,3.6899,3.6899,3.6899,3.6899,3.6899,3.6966,3.7181,3.7209,3.7329,3.7609,3.765,3.7688,3.7781,3.7998,3.8105,3.8105,3.8385,3.8544,3.8544,3.8636,3.8596,3.8368,3.8492,3.8596,3.8689,3.8689,3.8689,3.8689,3.8689,3.8689,3.8689,3.8689,3.8689,3.8689,3.8689,3.8689,3.8689,3.8689,3.8689,3.8689,3.8689,3.8689,3.8689,3.8689,3.8689,3.8689,3.8689,3.8689,3.8689,3.8689,3.8689,3.8689,3.8689,3.8689,3.8689,3.8689,3.8689,3.8689,3.8689,3.8689,3.8689,3.8689,3.8689,3.8689,3.8689,3.8689,3.8689,3.8689,3.8689,3.8689,3.8689,3.8689,3.8689,3.8689,0.0,3.8705,3.8699,3.8702,3.8704,3.8696,3.8696,3.8694,3.8702,3.8702,3.8699,3.8689,3.8689,3.8689,3.8689,3.8689,3.8689,3.8689,3.8689,3.8689,3.8689,3.8689,3.8689,3.8689,3.8689,3.8689,3.8689,3.8689,3.8689,3.8689,3.8689,3.8689,3.8689,3.8689,3.8689,3.8689,3.8689,3.8689,3.8689,3.8689,3.8689,3.8689,3.6899,3.6899,3.6926,3.7034,3.706,3.7155,3.7474,3.7529,3.7635,3.7929,3.7956,3.7982,3.8075,3.829,3.8426,3.8426,3.8582,3.8689,3.8689,3.8689,3.8689,3.8689,3.8689,3.8689,3.8689,3.8689,3.8689,3.8689,3.8689,3.8689,3.8689,3.8689,3.8689,3.8689,3.8689,3.8689,3.8689,3.8689,3.8689,3.8689,3.8689,3.8689,3.8689,3.8689,3.8689,3.8689,3.8689,3.8689,3.8689,3.8689,3.8689,3.8689,3.8689,3.8689,3.8689,3.8689,3.8689,3.8689,3.8689,3.8689,3.8689,3.8689,3.8689,3.8689,3.8689,3.8689,3.8689,3.8689,3.8689,3.8689,3.8689,3.8689,3.8689,3.8689,3.8689,3.8689,3.8689,3.8689,3.8689,3.8689,3.8689,3.8689,3.8689,3.8689,3.8689,3.8689,3.8689,3.8689,3.8689,3.8689,3.8689,3.8689,3.8689,3.8689,3.8689,3.8689,3.8689,3.8689,3.8689,3.8689,3.8689,3.8689,3.8689,3.8689,3.8689,3.8689,3.8689,3.8689,3.8689,3.8689,3.8689,3.8689,3.8689,3.8689,3.8689,3.8689,3.6899,3.6913,3.7006,3.7342,3.7396,3.7489,3.7768,3.7795,3.7929,3.8266,3.8306,3.8399,3.8676,3.8689,3.8689,3.8689,3.8689,3.8689,3.8689,3.8689,3.8689,3.8689,3.8689,3.8689,3.8689,3.8689,3.8689,3.8689,3.8689,3.8689,3.8689,3.8689,3.8689,3.8689,3.8689,3.8689,3.8689,3.8689,3.8689,3.8689,3.8689,3.8689,3.8689,3.8689,3.8689,3.8689,3.8689,3.8689,3.8689,3.8689,3.8689,3.8689,3.8689,3.8689,3.8689,3.8689,3.8689,3.8689,3.8689,3.8689,3.8689,3.8689,3.8689,3.8689,3.8689,3.8689,3.8689,3.8689,3.8689,3.8689,3.8689,3.8689,3.8689,3.8689,3.8689,3.8689,3.8689,3.8689,3.8689,3.8689,3.8689,3.8689,3.8689,3.8689,3.8689,3.8689,3.8689,3.8689,3.8689,3.8689,3.8689,3.8689,3.8689,3.8689,3.8689,3.8689,3.8689,3.8689,3.8689,3.8689,3.8689,3.8689,3.8689,3.8689,3.8689,3.8689,3.8689,3.8689,3.8689,3.8689,3.8689,3.8689,3.8689,3.8689,3.8689,3.8689,3.7249,3.7394,3.7567,3.7661,3.769,3.7797,3.8105,3.8159,3.8252,3.8544,3.8584,3.8611,3.8689,3.8689,3.8689,3.8689,3.8689,3.8689,3.8689,3.8689,3.8689,3.8689,3.8689,3.8689,3.8689,3.8689,3.8689,3.8689,3.8689,3.8689,3.8689,3.8689,3.8689,3.8689,3.8689,3.8689,3.8689,3.8689,3.8689,3.8689,3.8689,3.8689,3.8689,3.8689,3.8689,3.8689,3.8689,3.8689,3.8689,3.8689,3.8689,3.8689,3.8689,3.8689,3.8689,3.8689,3.8689,3.8689,3.8689,3.8689,3.8689,3.8689,3.8689,3.8689,3.8689,3.8689,3.8689,3.8689,3.8689,3.8689,3.8689,3.8689,3.8689,3.8689,3.8689,3.8689,3.8689,3.8689,3.8689,3.8689,3.8689,3.8689,3.8689,3.8689,3.8689,3.8689,3.8689,3.8689,3.8689,3.8689,3.8689,3.8689,3.8689,3.8689,3.8689,3.8689,3.8689,3.8689,3.8689,3.8689,3.8689,3.8689,3.8689,3.8689,3.8689,3.8689,3.8689,3.8689,3.8689,3.8689,3.8689,3.8689,3.8689,3.8689,3.8689,3.8689,3.7555,3.7688,3.7835,3.7969,3.7996,3.8103,3.8411,3.8466,3.8518,3.8676,3.8689,3.8689,3.8689,3.8689,3.8689,3.8689,3.8689,3.8689,3.8689,3.8689,3.8689,3.8689,3.8689,3.8689,3.8689,3.8689,3.8689,3.8689,3.8689,3.8689,3.8689,3.8689,3.8689,3.8689,3.8689,3.8689,3.8689,3.8689,3.8689,3.8689,3.8689,3.8689,3.8689,3.8689,3.8689,3.8689,3.8689,3.8689,3.8689,3.8689,3.8689,3.8689,3.8689,3.8689,3.8689,3.8689,3.8689,3.8689,3.8689,3.8689,3.8689,3.8689,3.8689,3.8689,3.8689,3.8689,3.8689,3.8689,3.8689,3.8689,3.8689,3.8689,3.8689,3.8689,3.8689,3.8689,3.8689,3.8689,3.8689,3.8689,3.8689,3.8689,3.8689,3.8689,3.8689,3.8689,3.8689,3.8689,3.8689,3.8689,3.8689,3.8689,3.8689,3.8689,3.8689,3.8689,3.8689,3.8689,3.8689,3.8689,3.8689,3.8689,3.8689,3.8689,3.8689,3.8689,3.8689,3.8689,3.8689,3.8689,3.8689,3.8689,3.8689,3.8689,3.8689,3.8689,3.7835,3.7861,3.7982,3.8279,3.8333,3.8411,3.8662,3.8689,3.8689,3.8689,3.8689,3.8689,3.8689,3.8689,3.8689,3.8689,3.8689,3.8689,3.8689,3.8689,3.8689,3.8689,3.8689,3.8689,3.8689,3.8689,3.8689,3.8689,3.8689,3.8689,3.8689,3.8689,3.8689,3.8689,3.8689,3.8689,3.8689,3.8689,3.8689,3.8689,3.8689,3.8689,3.8689,3.8689,3.8689,3.8689,3.8689,3.8689,3.8689,3.8689,3.8689,3.8689,3.8689,3.8689,3.8689,3.8689,3.8689,3.8689,3.8689,3.8689,3.8689,3.8689,3.8689,3.8689,3.8689,3.8689,3.8689,3.8689,3.8689,3.8689,3.8689,3.8689,3.8689,3.8689,3.8689,3.8689,3.8689,3.8689,3.8689,3.8689,3.8689,3.8689,3.8689,3.8689,3.8689,3.8689,3.8689,3.8689,3.8689,3.8689,3.8689,3.8689,3.8689,3.8689,3.8689,3.8689,3.8689,3.8689,3.8689,3.8689,3.8689,3.8689,3.8689,3.8689,3.8689,3.8689,3.8689,3.8689,3.8689,3.8689,3.8689,3.8689,3.8689,3.8689,3.8689,3.8689,3.8186,3.8357,3.853,3.8596,3.8611,3.8636,3.8689,3.8689,3.8689,3.8689,3.8689,3.8689,3.8689,3.8689,3.8689,3.8689,3.8689,3.8689,3.8689,3.8689,3.8689,3.8689,3.8689,3.8689,3.8689,3.8689,3.8689,3.8689,3.8689,3.8689,3.8689,3.8689,3.8689,3.8689,3.8689,3.8689,3.8689,3.8689,3.8689,3.8689,3.8689,3.8689,3.8689,3.8689,3.8689,3.8689,3.8689,3.8689,3.8689,3.8689,3.8689,3.8689,3.8689,3.8689,3.8689,3.8689,3.8689,3.8689,3.8689,3.8689,3.8689,3.8689,3.8689,3.8689,3.8689,3.8689,3.8689,3.8689,3.8689,3.8689,3.8689,3.8689,3.8689,3.8689,3.8689,3.8689,3.8689,3.8689,3.8689,3.8689,3.8689,3.8689,3.8689,3.8689,3.8689,3.8689,3.8689,3.8689,3.8689,3.8689,3.8689,3.8689,3.8689,3.8689,3.8689,3.8689,3.8689,3.8689,3.8689,3.8689,3.8689,3.8689,3.8689,3.8689,3.8689,3.8689,3.8689,3.8689,3.8689,3.8689,3.8689,3.8689,3.8689,3.8689,3.8689,3.8689,3.8492,3.8596,3.8689,3.8689,3.8689,3.8689,3.8689,3.8689,3.8689,3.8689,3.8689,3.8689,3.8689,3.8689,3.8689,3.8689,3.8689,3.8689,3.8689,3.8689,3.8689,3.8689,3.8689,3.8689,3.8689,3.8689,3.8689,3.8689,3.8689,3.8689,3.8689,3.8689,3.8689,3.8689,3.8689,3.8689,3.8689,3.8689,3.8689,3.8689,3.8689,3.8689,3.8689,3.8689,3.8689,3.8689,3.8689,3.8689,3.8689,3.8689,3.8689,3.8689,3.8689,3.8689,3.8689,3.8689,3.8689,3.8689,3.8689,3.8689,3.8689,3.8689,3.8689,3.8689,3.8689,3.8689,3.8689,3.8689,3.8689,3.8689,3.8689,3.8689,3.8689,3.8689,3.8689,3.8689,3.8689,3.8689,3.8689,3.8689,3.8689,3.8689,3.8689,3.8689,3.8689,3.8689,3.8689,3.8689,3.8689,3.8689,3.8689,3.8689,3.8689,3.8689,3.8689,3.8689,3.8689,3.8689,3.8689,3.8689,3.8689,3.8689,3.8689,3.8689,3.8689,3.8689,3.8689,3.8689,3.8689,3.8689,3.8689,3.8689,3.8689,3.8689,3.8689,3.8689,3.8689,3.8689,3.8689,3.8689,3.8689,3.8689,3.8689,3.8689,3.8689,3.8689,3.8689,3.8689,3.8689,3.8689,3.8689,3.8689,3.8689,3.8689,3.8689,3.8689,3.8689,3.8689,3.8689,3.8689,3.8689,3.8689,3.8689,3.8689,3.8689,3.8689,3.8689,3.8689,3.8689,3.8689,3.8689,3.8689,3.8689,3.8689,3.8689,3.8689,3.8689,3.8689,3.8689,3.8689,3.8689,3.8689,3.8689,3.8689,3.8689,3.8689,3.8689,3.8689,3.8689,3.8689,3.8689,3.8689,3.8689,3.8689,3.8689,3.8689,3.8689,3.8689,3.8689,3.8689,3.8689,3.8689,3.8689,3.8689,3.8689,3.8689,3.8689,3.8689,3.8689,3.8689,3.8689,3.8689,3.8689,3.8689,3.8689,3.8689,3.8689,3.8689,3.8689,3.8689,3.8689,3.8689,3.8689,3.8689,3.8689,3.8689,3.8689,3.8689,3.8689,3.8689,3.8689,3.8689,3.8689,3.8689,3.8689,3.8689,3.8689,3.8689,3.8689,3.8689,3.8689,3.8689,3.8689,3.8689,3.8689,3.8689,3.8689,3.8689,3.8689,3.8689,3.8689,3.8689,3.8689,3.8689,3.8689,3.8689,3.8689,3.8689,3.8689,3.8689,3.8689,3.8689,3.8689,3.8689,3.8689,3.8689,3.8689,3.8689,3.8689,3.8689,3.8689,3.8689,3.8689,3.8689,3.8689,3.8689,3.8689,3.8689,3.8689,3.8689,3.8689,3.8689,3.8689,3.8689,3.8689,3.8689,3.8689,3.8689,3.8689,3.8689,3.8689,3.8689,3.8689,3.8689,3.8689,3.8689,3.8689,3.8689,3.8689,3.8689,3.8689,3.8689,3.8689,3.8689,3.8689,3.8689,3.8689,3.8689,3.8689,3.8689,3.8689,3.8689,3.8689,3.8689,3.8689,3.8689,3.8689,3.8689,3.8689,3.8689,3.8689,3.8689,3.8689,3.8689,3.8689,3.8689,3.8689,3.8689,3.8689,3.8689,3.8689,3.8689,3.8689,3.8689,3.8689,3.8689,3.8689,3.8689,3.8689,3.8689,3.8689,3.8689,3.8689,3.8689,3.8689,3.8689,3.8689,3.8689,3.8689,3.8689,3.8689,3.8689,3.8689,3.8689,3.8689,3.8689,3.8689,3.8689,3.8689,3.8689,3.8689,3.8689,3.8689,3.8689,3.8689,3.8689,3.8689,3.8689,3.8689,3.8689,3.8689,3.8689,3.8689,3.8689,3.8689,3.8689,3.8689,3.8689,3.8689,3.8689,3.8689,3.8689,3.8689,3.8689,3.8689,3.8689,3.8689,3.8689,3.8689,3.8689,3.8689,3.8689,3.8689,3.8689,3.8689,3.8689,3.8689,3.8689,3.8689,3.8689,3.8689,3.8689,3.8689,3.8689,3.8689,3.8689,3.8689,3.8689,3.8689,3.8689,3.8689,3.8689,3.8689,3.8689,3.8689,3.8689,3.8689,3.8689,3.8689,3.8689,3.8689,3.8689,3.8689,3.8689,3.8689,3.8689,3.8689,3.8689,3.8689,3.8689,3.8689,3.8689,3.8689,3.8689,3.8689,3.8689,3.8689,3.8689,3.8689,3.8689,3.8689,3.8689,3.8689,3.8689,3.8689,3.8689,3.8689,3.8689,3.8689,3.8689,3.8689,3.8689,3.8689,3.8689,3.8689,3.8689,3.8689,3.8689,3.8689,3.8689,3.8689,3.8689,3.8689,3.8689,3.8689,3.8689,3.8689,3.8689,3.8689,3.8689,3.8689,3.8689,3.8689,3.8689,3.8689,3.8689,3.8689,3.8689,3.8689,3.8689,3.8689,3.8689,3.8689,3.8689]}]]